[[{"header":{"parameterUnit":"m.s-1","parameterCategory":1,"la1":30.6,"la2":29.2853,"lo1":-89.7004,"lo2":-87.6739,"dx":0.0162,"dy":0.0183,"nx":112,"ny":82,"refTime":"2022-12-05T18:00:00:Z","depth":0,"parameterNumber":2,"parameterNumberName":"U-component_of_WINDS"},"data":[0.0,0.0,0.0,0.0,0.0,0.0,0.0,0.0,0.0,0.0,0.0,0.0,0.0,0.0,0.0,0.0,0.0,0.0,0.0,0.0,0.0,0.0,0.0,0.0,0.0,0.0,0.0,0.0,0.0,0.0,0.0,0.0,0.0,0.0,0.0,0.0,0.0,0.0,0.0,0.0,0.0,0.0,0.0,0.0,0.0,0.0,0.0,0.0,0.0,0.0,0.0,0.0,0.0,0.0,0.0,0.0,0.0,0.0,0.0,0.0,0.0,0.0,0.0,0.0,0.0,0.0,0.0,0.0,0.0,0.0,0.0,0.0,0.0,0.0,0.0,0.0,0.0,0.0,0.0,0.0,0.0,0.0,0.0,0.0,0.0,0.0,0.0,0.0,0.0,0.0,-2.3175,-2.4964,-2.8353,-3.0494,-3.0491,-2.9376,-2.6896,-2.2688,0.0,0.0,0.0,0.0,0.0,0.0,0.0,0.0,0.0,0.0,0.0,0.0,0.0,0.0,0.0,0.0,0.0,0.0,0.0,0.0,0.0,0.0,0.0,0.0,0.0,0.0,0.0,0.0,0.0,0.0,0.0,0.0,0.0,0.0,0.0,0.0,0.0,0.0,0.0,0.0,0.0,0.0,0.0,0.0,0.0,0.0,0.0,0.0,0.0,0.0,0.0,0.0,0.0,0.0,0.0,0.0,0.0,0.0,0.0,0.0,0.0,0.0,0.0,0.0,0.0,0.0,0.0,0.0,0.0,0.0,0.0,0.0,0.0,0.0,0.0,0.0,0.0,0.0,0.0,0.0,0.0,0.0,0.0,0.0,0.0,0.0,0.0,0.0,0.0,0.0,0.0,0.0,0.0,0.0,0.0,0.0,0.0,0.0,0.0,0.0,0.0,0.0,0.0,0.0,-2.2953,-2.8821,-3.0091,-3.0477,-3.0411,-2.9867,-2.7516,-2.2783,0.0,0.0,0.0,0.0,0.0,0.0,0.0,0.0,0.0,0.0,0.0,0.0,0.0,0.0,0.0,0.0,0.0,0.0,0.0,0.0,0.0,0.0,0.0,0.0,0.0,0.0,0.0,0.0,0.0,0.0,0.0,0.0,0.0,0.0,0.0,0.0,0.0,0.0,0.0,0.0,0.0,0.0,0.0,0.0,0.0,0.0,0.0,0.0,0.0,0.0,0.0,0.0,0.0,0.0,0.0,0.0,0.0,0.0,0.0,0.0,0.0,0.0,0.0,0.0,0.0,0.0,0.0,0.0,0.0,0.0,0.0,0.0,0.0,0.0,0.0,0.0,0.0,0.0,0.0,0.0,0.0,0.0,0.0,0.0,0.0,0.0,0.0,0.0,0.0,0.0,0.0,0.0,0.0,0.0,0.0,0.0,0.0,0.0,0.0,0.0,0.0,0.0,0.0,-2.1643,-2.4601,-3.0481,-3.1122,-3.1138,-3.1102,-3.067,-2.794,-2.2167,-1.9884,0.0,0.0,0.0,0.0,0.0,0.0,0.0,0.0,0.0,0.0,0.0,0.0,0.0,0.0,0.0,0.0,0.0,0.0,0.0,0.0,0.0,0.0,0.0,0.0,0.0,0.0,0.0,0.0,0.0,0.0,0.0,0.0,0.0,0.0,0.0,0.0,0.0,0.0,0.0,0.0,0.0,0.0,0.0,0.0,0.0,0.0,0.0,0.0,0.0,0.0,0.0,0.0,0.0,0.0,0.0,0.0,0.0,0.0,0.0,0.0,0.0,0.0,0.0,0.0,0.0,0.0,0.0,0.0,0.0,0.0,0.0,0.0,0.0,0.0,0.0,0.0,0.0,0.0,0.0,0.0,0.0,0.0,0.0,0.0,0.0,0.0,0.0,0.0,0.0,0.0,0.0,0.0,0.0,0.0,0.0,0.0,0.0,0.0,0.0,0.0,0.0,0.0,-2.4779,-2.7376,-3.1275,-3.1872,-3.1987,-3.1987,-3.1389,-2.8277,-2.1918,-2.0126,0.0,0.0,0.0,0.0,0.0,0.0,0.0,0.0,0.0,0.0,0.0,0.0,0.0,0.0,0.0,0.0,0.0,0.0,0.0,0.0,0.0,0.0,0.0,0.0,0.0,0.0,0.0,0.0,0.0,0.0,0.0,0.0,0.0,0.0,0.0,0.0,0.0,0.0,0.0,0.0,0.0,0.0,0.0,0.0,0.0,0.0,0.0,0.0,0.0,0.0,0.0,0.0,0.0,0.0,0.0,0.0,0.0,0.0,0.0,0.0,0.0,0.0,0.0,0.0,0.0,0.0,0.0,0.0,0.0,0.0,0.0,0.0,0.0,0.0,0.0,0.0,0.0,0.0,0.0,0.0,0.0,0.0,0.0,0.0,0.0,0.0,0.0,0.0,0.0,0.0,0.0,0.0,0.0,0.0,0.0,0.0,0.0,0.0,0.0,0.0,0.0,0.0,-2.6774,-3.1295,-3.166,-3.2372,-3.2814,-3.2814,-3.1694,-2.8531,-2.2766,-2.0438,0.0,0.0,0.0,0.0,0.0,0.0,0.0,0.0,0.0,0.0,0.0,0.0,0.0,0.0,0.0,0.0,0.0,0.0,0.0,0.0,0.0,0.0,0.0,0.0,0.0,0.0,0.0,0.0,0.0,0.0,0.0,0.0,0.0,0.0,0.0,0.0,0.0,0.0,0.0,0.0,0.0,0.0,0.0,0.0,0.0,0.0,0.0,0.0,0.0,0.0,0.0,0.0,0.0,0.0,0.0,0.0,0.0,0.0,0.0,0.0,0.0,0.0,0.0,0.0,0.0,0.0,0.0,0.0,0.0,0.0,0.0,0.0,0.0,0.0,0.0,0.0,0.0,0.0,0.0,0.0,0.0,0.0,0.0,0.0,0.0,0.0,0.0,0.0,0.0,0.0,0.0,0.0,0.0,0.0,0.0,0.0,0.0,0.0,0.0,0.0,0.0,0.0,-2.5428,-2.9737,-3.291,-3.3526,-3.3705,-3.3705,-3.251,-2.8888,-2.2179,0.0,0.0,0.0,0.0,0.0,0.0,0.0,0.0,0.0,0.0,0.0,0.0,0.0,0.0,0.0,0.0,0.0,0.0,0.0,0.0,0.0,0.0,0.0,0.0,0.0,0.0,0.0,0.0,0.0,0.0,0.0,0.0,0.0,0.0,0.0,0.0,0.0,0.0,0.0,0.0,0.0,0.0,0.0,0.0,0.0,0.0,0.0,0.0,0.0,0.0,0.0,0.0,0.0,0.0,0.0,0.0,0.0,0.0,0.0,0.0,0.0,0.0,0.0,0.0,0.0,0.0,0.0,0.0,0.0,0.0,0.0,0.0,0.0,0.0,0.0,0.0,0.0,0.0,0.0,0.0,0.0,0.0,0.0,0.0,0.0,0.0,0.0,0.0,0.0,0.0,0.0,0.0,0.0,0.0,0.0,0.0,0.0,0.0,0.0,0.0,0.0,0.0,-2.1139,-2.5909,-3.0333,-3.384,-3.4449,-3.4583,-3.4482,-3.3325,-2.945,-2.2051,0.0,0.0,0.0,0.0,0.0,0.0,0.0,0.0,0.0,0.0,0.0,0.0,0.0,0.0,0.0,0.0,0.0,0.0,0.0,0.0,0.0,0.0,0.0,0.0,0.0,0.0,0.0,0.0,0.0,0.0,0.0,0.0,0.0,0.0,0.0,0.0,0.0,0.0,0.0,0.0,0.0,0.0,0.0,0.0,0.0,0.0,0.0,0.0,0.0,0.0,0.0,0.0,0.0,0.0,0.0,0.0,0.0,0.0,0.0,0.0,0.0,0.0,0.0,0.0,0.0,0.0,0.0,0.0,0.0,0.0,0.0,0.0,0.0,0.0,0.0,0.0,0.0,0.0,0.0,0.0,0.0,0.0,0.0,0.0,0.0,0.0,0.0,0.0,0.0,0.0,0.0,0.0,0.0,0.0,0.0,0.0,0.0,0.0,0.0,0.0,0.0,0.0,-2.1523,-2.8948,-3.4205,-3.4199,-3.4981,-3.5383,-3.5113,-3.4045,-3.0195,0.0,0.0,0.0,0.0,0.0,0.0,0.0,0.0,0.0,0.0,0.0,0.0,0.0,0.0,0.0,0.0,0.0,0.0,0.0,0.0,0.0,0.0,0.0,0.0,0.0,0.0,0.0,0.0,0.0,0.0,0.0,0.0,0.0,0.0,0.0,0.0,0.0,0.0,0.0,0.0,0.0,0.0,0.0,0.0,0.0,0.0,0.0,0.0,0.0,0.0,0.0,0.0,0.0,0.0,0.0,0.0,0.0,0.0,0.0,0.0,0.0,0.0,0.0,0.0,0.0,0.0,0.0,0.0,0.0,0.0,0.0,0.0,0.0,0.0,0.0,0.0,0.0,0.0,0.0,0.0,0.0,0.0,0.0,0.0,0.0,0.0,0.0,0.0,0.0,0.0,0.0,0.0,0.0,0.0,0.0,0.0,0.0,0.0,0.0,0.0,0.0,0.0,0.0,-2.3182,-2.9684,-3.4363,-3.4791,-3.5062,-3.5105,-3.4832,-3.3761,-2.9991,-2.2665,0.0,0.0,0.0,0.0,0.0,0.0,0.0,0.0,0.0,0.0,0.0,0.0,0.0,0.0,0.0,0.0,0.0,0.0,0.0,0.0,0.0,0.0,0.0,0.0,0.0,0.0,0.0,0.0,0.0,0.0,0.0,0.0,0.0,0.0,0.0,0.0,0.0,0.0,0.0,0.0,0.0,0.0,0.0,0.0,0.0,0.0,0.0,0.0,0.0,0.0,0.0,0.0,0.0,0.0,0.0,0.0,0.0,0.0,0.0,0.0,0.0,0.0,0.0,0.0,0.0,0.0,0.0,0.0,0.0,0.0,0.0,0.0,0.0,0.0,0.0,0.0,0.0,0.0,0.0,0.0,0.0,0.0,0.0,0.0,0.0,0.0,0.0,0.0,0.0,0.0,0.0,0.0,0.0,0.0,0.0,0.0,0.0,0.0,0.0,0.0,0.0,0.0,-2.3767,-3.0164,-3.4665,-3.4915,-3.4944,-3.4822,-3.4529,-3.3874,-3.0892,-2.4816,0.0,0.0,0.0,0.0,0.0,0.0,0.0,0.0,0.0,0.0,0.0,0.0,0.0,0.0,0.0,0.0,0.0,0.0,0.0,0.0,0.0,0.0,0.0,0.0,0.0,0.0,0.0,0.0,0.0,0.0,0.0,0.0,0.0,0.0,0.0,0.0,0.0,0.0,0.0,0.0,0.0,0.0,0.0,0.0,0.0,0.0,0.0,0.0,0.0,0.0,0.0,0.0,0.0,0.0,0.0,0.0,0.0,0.0,0.0,0.0,0.0,0.0,0.0,0.0,0.0,0.0,0.0,0.0,0.0,0.0,0.0,0.0,0.0,0.0,0.0,0.0,0.0,0.0,0.0,0.0,0.0,0.0,0.0,0.0,0.0,0.0,0.0,0.0,0.0,0.0,0.0,0.0,0.0,0.0,0.0,0.0,0.0,0.0,0.0,0.0,0.0,0.0,-2.3714,-3.0419,-3.5019,-3.4797,-3.4766,-3.4631,-3.4306,-3.4282,-3.2412,-2.8066,0.0,0.0,0.0,0.0,0.0,0.0,0.0,0.0,0.0,0.0,0.0,0.0,0.0,0.0,0.0,0.0,0.0,0.0,0.0,0.0,0.0,0.0,0.0,0.0,0.0,0.0,0.0,0.0,0.0,0.0,0.0,0.0,0.0,0.0,0.0,0.0,0.0,0.0,0.0,0.0,0.0,0.0,0.0,0.0,0.0,0.0,0.0,0.0,0.0,0.0,0.0,0.0,0.0,0.0,0.0,0.0,0.0,0.0,0.0,0.0,-2.6628,-2.4039,0.0,0.0,0.0,0.0,0.0,0.0,0.0,0.0,0.0,0.0,0.0,0.0,0.0,0.0,0.0,0.0,0.0,0.0,0.0,0.0,0.0,0.0,0.0,0.0,0.0,0.0,0.0,0.0,0.0,0.0,0.0,0.0,0.0,0.0,0.0,0.0,0.0,0.0,0.0,0.0,-2.4406,-3.0722,-3.5164,-3.5303,-3.532,-3.5188,-3.486,-3.482,-3.282,-2.811,-2.699,0.0,0.0,0.0,0.0,0.0,0.0,0.0,0.0,0.0,0.0,0.0,0.0,0.0,0.0,0.0,0.0,0.0,0.0,0.0,0.0,0.0,0.0,0.0,0.0,0.0,0.0,0.0,0.0,0.0,0.0,0.0,0.0,0.0,0.0,0.0,0.0,0.0,0.0,0.0,0.0,0.0,0.0,0.0,0.0,0.0,0.0,0.0,0.0,0.0,0.0,0.0,0.0,0.0,0.0,0.0,0.0,0.0,0.0,0.0,-2.9442,-2.7518,0.0,0.0,0.0,0.0,0.0,0.0,0.0,0.0,0.0,0.0,0.0,0.0,0.0,0.0,0.0,0.0,0.0,0.0,0.0,0.0,0.0,0.0,0.0,0.0,0.0,0.0,0.0,0.0,0.0,0.0,0.0,0.0,0.0,0.0,0.0,0.0,0.0,0.0,0.0,0.0,-2.5469,-3.1346,-3.5439,-3.5853,-3.588,-3.5813,-3.5638,-3.5243,-3.394,-3.1408,-2.9072,0.0,0.0,0.0,0.0,0.0,0.0,0.0,0.0,0.0,0.0,0.0,0.0,0.0,0.0,0.0,0.0,0.0,0.0,0.0,0.0,0.0,0.0,0.0,0.0,0.0,0.0,0.0,0.0,0.0,0.0,0.0,0.0,0.0,0.0,0.0,0.0,0.0,0.0,0.0,0.0,0.0,0.0,0.0,0.0,0.0,0.0,0.0,0.0,0.0,0.0,0.0,0.0,0.0,-3.1538,-3.21,-3.2884,-3.2884,-3.3618,-3.4743,-3.2614,-3.1733,-3.1599,-2.8796,0.0,0.0,0.0,0.0,0.0,0.0,0.0,0.0,0.0,0.0,0.0,0.0,0.0,0.0,0.0,0.0,0.0,0.0,0.0,0.0,0.0,0.0,-2.6983,-2.8038,-2.8258,-2.7692,-2.5742,0.0,0.0,0.0,0.0,0.0,0.0,0.0,0.0,0.0,0.0,0.0,-2.6995,-3.2265,-3.5905,-3.6456,-3.6505,-3.6505,-3.6505,-3.5862,-3.5316,-3.5023,-3.1262,-2.8374,0.0,0.0,0.0,0.0,0.0,0.0,0.0,0.0,0.0,0.0,0.0,0.0,0.0,0.0,0.0,0.0,0.0,0.0,0.0,0.0,0.0,0.0,0.0,0.0,0.0,0.0,0.0,0.0,0.0,0.0,0.0,0.0,-2.4865,-2.5967,0.0,0.0,0.0,0.0,0.0,0.0,0.0,0.0,0.0,0.0,0.0,0.0,0.0,-3.0364,-3.1258,-3.2718,-3.387,-3.468,-3.6638,-3.7991,-3.8796,-3.8796,-3.8906,-3.9038,-3.8028,0.0,-3.3403,-3.2271,0.0,0.0,0.0,0.0,0.0,0.0,0.0,0.0,0.0,0.0,0.0,0.0,0.0,0.0,0.0,0.0,0.0,0.0,0.0,0.0,0.0,0.0,-3.4816,-3.4968,-3.5003,-3.4924,-3.4619,-2.7973,-2.2066,-2.2044,-2.1407,-1.9808,0.0,0.0,0.0,0.0,0.0,0.0,-2.9269,-3.3741,-3.6745,-3.7265,-3.7345,-3.7345,-3.7345,-3.7235,-3.6541,-3.5096,-3.4399,-3.2124,-2.7824,-2.7206,0.0,0.0,0.0,0.0,0.0,0.0,0.0,0.0,0.0,0.0,0.0,0.0,0.0,0.0,0.0,0.0,0.0,0.0,0.0,0.0,0.0,0.0,0.0,0.0,0.0,0.0,0.0,0.0,0.0,-2.4274,-2.6346,-2.7236,-2.6563,-2.5524,0.0,0.0,0.0,0.0,0.0,0.0,0.0,0.0,0.0,-3.3835,-3.433,-3.5343,-3.7079,-3.7904,-3.85,-3.8858,-3.9666,-4.0215,-4.0579,-4.0579,-4.0579,-4.0508,-3.942,-3.8103,-3.6614,-3.4458,-3.1588,-2.8488,0.0,0.0,0.0,0.0,-2.6051,-2.6196,-2.8626,-2.9225,-2.8718,-2.7455,0.0,0.0,0.0,0.0,0.0,0.0,0.0,-2.7967,-3.0993,-3.317,-3.4849,-3.6021,-3.59,-3.5661,-3.6179,-3.2861,-2.923,-2.7398,-2.5291,-2.2492,-1.8291,-1.9483,0.0,0.0,0.0,-2.8835,-3.1837,-3.51,-3.7413,-3.8098,-3.8175,-3.8175,-3.8175,-3.7768,-3.6997,-3.5807,-3.5261,-3.3848,-3.1274,-2.9026,-2.5772,0.0,0.0,0.0,0.0,0.0,0.0,0.0,0.0,0.0,0.0,0.0,0.0,0.0,0.0,0.0,0.0,0.0,0.0,0.0,0.0,0.0,0.0,0.0,0.0,0.0,0.0,0.0,0.0,-2.6601,-2.8294,-2.8506,-2.8736,-2.8044,0.0,0.0,0.0,0.0,0.0,0.0,-3.2875,-3.3305,-3.486,-3.7822,-3.8404,-3.9592,-4.1495,-4.1651,-4.1684,-4.1605,-4.1573,-4.1484,-4.1407,-4.1407,-4.1407,-4.1335,-4.0138,-3.9532,-3.9174,-3.6246,-3.3729,-3.1596,-3.0404,-2.9183,-2.8264,-2.9479,-2.9853,-3.0087,-3.2512,-3.3212,-3.2826,-3.1655,-3.0779,-2.976,-2.7362,0.0,0.0,0.0,0.0,-3.0463,-3.3231,-3.4277,-3.4996,-3.6556,-3.6372,-3.6059,-3.6753,-3.6152,-3.4724,-3.225,-2.9824,-2.677,-2.2281,-2.4025,0.0,-2.3575,-2.7574,-3.177,-3.4412,-3.6538,-3.8043,-3.8634,-3.8707,-3.8707,-3.8707,-3.8138,-3.7382,-3.6358,-3.5697,-3.4857,-3.3844,-3.0925,-2.8576,-2.6943,0.0,0.0,0.0,0.0,0.0,0.0,0.0,0.0,0.0,0.0,0.0,0.0,0.0,0.0,0.0,0.0,0.0,0.0,0.0,0.0,0.0,0.0,0.0,0.0,0.0,0.0,0.0,0.0,0.0,-3.0462,-3.3096,0.0,0.0,0.0,0.0,-3.1506,-3.3045,-3.5084,-3.7531,-3.8157,-3.9633,-4.2209,-4.1999,-4.1924,-4.2056,-4.2069,-4.1919,-4.1605,-4.2373,-4.2557,-4.2249,-4.2249,-4.2249,-4.2194,-4.1354,-4.0716,-4.0077,-3.7932,-3.5596,-3.3371,-3.3283,-3.1824,-3.0074,-3.2403,-3.2982,-3.2936,-3.5353,-3.5685,-3.5042,-3.4973,-3.317,-3.1,-3.086,-2.9867,0.0,0.0,-3.3126,-3.4803,-3.7041,-3.8027,-3.8438,-3.8545,-3.8548,-3.8514,-3.8563,-3.6714,-3.5215,-3.5862,-3.5862,-3.4669,-3.1323,0.0,-3.0993,-3.0883,-3.1788,-3.366,-3.6905,-3.8083,-3.867,-3.8707,-3.8707,-3.8707,-3.8707,-3.867,-3.7973,-3.6395,-3.6266,-3.5495,-3.3862,-3.3605,-3.1678,-2.7824,-2.6256,0.0,0.0,0.0,0.0,0.0,0.0,0.0,0.0,0.0,0.0,0.0,0.0,0.0,0.0,0.0,0.0,0.0,0.0,0.0,0.0,0.0,0.0,0.0,0.0,0.0,0.0,0.0,0.0,-3.291,-3.4423,0.0,-3.2237,-3.4545,-3.6065,-3.5776,-3.8354,-4.0241,-4.0919,-4.1356,-4.2134,-4.3413,-4.3483,-4.379,-4.4345,-4.4149,-4.3973,-4.3855,-4.3648,-4.3512,-4.3394,-4.3174,-4.3057,-4.302,-4.1848,-4.1252,-4.0943,-3.9395,-3.7919,-3.6587,-3.6074,-3.5366,-3.4694,-3.556,-3.5786,-3.5759,-3.6603,-3.6509,-3.5976,-3.5976,-3.5312,-3.4584,-3.4921,-3.4677,-3.4499,-3.5612,-3.6298,-3.698,-3.8113,-3.8562,-3.8707,-3.8707,-3.8707,-3.8707,-3.8707,-3.7995,-3.7477,-3.779,-3.6545,-3.4747,-3.2559,-3.4357,-3.5202,-3.2577,-3.4669,-3.6945,-3.812,-3.8524,-3.8707,-3.8707,-3.8707,-3.8707,-3.8707,-3.8707,-3.823,-3.7144,-3.6754,-3.6057,-3.4939,-3.4365,-3.3141,-3.1169,-3.0516,-2.6669,0.0,0.0,0.0,0.0,0.0,0.0,0.0,0.0,0.0,0.0,0.0,0.0,0.0,0.0,0.0,0.0,0.0,0.0,0.0,0.0,0.0,0.0,0.0,0.0,0.0,-3.2891,-3.4834,-3.4263,-3.6238,-3.6827,-3.4814,-3.7719,-3.9719,-3.9719,-4.2066,-4.341,-4.3187,-4.3661,-4.4102,-4.4461,-4.4547,-4.489,-4.5594,-4.5282,-4.5096,-4.5096,-4.4612,-4.4318,-4.419,-4.3836,-4.3679,-4.3609,-4.2611,-4.2159,-4.2087,-4.096,-4.0199,-3.9605,-3.8463,-3.8008,-3.8008,-3.8008,-3.8008,-3.8008,-3.8008,-3.7774,-3.7472,-3.7472,-3.7472,-3.7554,-3.7893,-3.8105,-3.831,-3.8617,-3.8845,-3.9067,-3.9417,-3.9515,-3.9515,-3.9515,-3.9515,-3.9441,-3.9166,-3.9093,-3.9019,-3.8762,-3.7371,-3.5903,-3.4839,-3.6909,-3.7606,-3.4325,-3.6615,-3.8505,-3.7955,-3.8358,-3.8707,-3.8707,-3.8707,-3.8707,-3.8707,-3.7921,-3.7477,-3.7492,-3.621,-3.5411,-3.5328,-3.3824,-3.2694,-3.2059,-3.1701,-2.8226,-2.1512,0.0,0.0,0.0,0.0,0.0,0.0,0.0,0.0,0.0,0.0,0.0,0.0,0.0,0.0,0.0,0.0,0.0,0.0,0.0,0.0,0.0,0.0,0.0,-3.1968,-3.4692,-3.6199,-3.4629,-3.8796,-4.0835,-3.8392,-4.1181,-4.3143,-4.3143,-4.3874,-4.4335,-4.4335,-4.5152,-4.5605,-4.5586,-4.5292,-4.5282,-4.5577,-4.5263,-4.5126,-4.5126,-4.5096,-4.4919,-4.4593,-4.419,-4.4016,-4.4001,-4.3679,-4.3531,-4.3458,-4.267,-4.2358,-4.2147,-4.0358,-3.9649,-3.9649,-3.9649,-3.9649,-3.9631,-3.9629,-3.9611,-3.9611,-3.9611,-3.9611,-3.9611,-3.9631,-3.996,-4.033,-4.033,-4.0701,-4.1095,-4.1095,-4.1095,-4.1095,-4.1095,-4.1095,-4.0875,-4.0102,-3.9937,-3.9698,-3.8891,-3.8744,-3.8726,-3.8707,-3.8707,-3.8175,-3.6615,-3.7698,0.0,-3.6578,-3.7734,-3.867,-3.8597,-3.8579,-3.8579,-3.8579,-3.638,-3.572,-3.7437,-3.4784,-3.371,-3.4995,-3.2282,-3.0609,-3.032,-2.9683,-2.8174,-2.5785,0.0,0.0,0.0,0.0,0.0,0.0,0.0,0.0,0.0,0.0,0.0,0.0,0.0,0.0,0.0,0.0,0.0,0.0,0.0,0.0,0.0,-3.3058,-3.5577,-3.5365,-3.7219,-3.8873,-3.9623,-4.095,-4.1777,-4.17,-4.3085,-4.397,-4.397,-4.4759,-4.5248,-4.5248,-4.5479,-4.5495,-4.5243,-4.5371,-4.54,-4.5232,-4.539,-4.5457,-4.5467,-4.4966,-4.4825,-4.4943,-4.4285,-4.4146,-4.4433,-4.4337,-4.4121,-4.3846,-4.3624,-4.3393,-4.3003,-4.1335,-4.0685,-4.0685,-4.0685,-4.0685,-4.0633,-4.0239,-4.011,-4.011,-4.011,-4.011,-4.0184,-4.0562,-4.0789,-4.0874,-4.0874,-4.0994,-4.1095,-4.1095,-4.1095,-4.1095,-4.1095,-4.1095,-4.104,-4.0836,-4.0781,-4.0543,-3.9735,-3.957,-3.9386,-3.8799,-3.8707,-3.856,-3.812,-3.8414,-3.8542,-3.8102,-3.8432,-3.7995,-3.6215,-3.6013,-3.6013,-3.6013,-3.5389,-3.5958,-3.823,-3.7234,-3.6452,-3.6231,-3.4896,-3.3722,-3.2816,-2.9796,-2.7995,0.0,0.0,0.0,0.0,0.0,0.0,0.0,0.0,0.0,0.0,0.0,0.0,0.0,0.0,0.0,0.0,0.0,0.0,0.0,0.0,0.0,0.0,-3.5718,-3.8027,-3.8731,-3.9719,-4.0719,-4.1673,-4.2431,-4.3047,-4.3547,-4.4355,-4.4836,-4.4836,-4.5306,-4.5594,-4.5594,-4.5594,-4.5513,-4.5322,-4.5352,-4.5362,-4.5312,-4.5352,-4.5448,-4.5605,-4.5211,-4.5118,-4.5302,-4.4726,-4.4587,-4.4793,-4.4657,-4.4359,-4.4001,-4.4001,-4.3804,-4.3423,0.0,0.0,0.0,0.0,-4.2121,-4.2069,-4.1756,-4.165,-4.165,-4.165,-4.165,-4.1703,-4.2017,-4.2121,-4.2121,-4.2121,-4.2121,-4.2121,-4.2121,-4.2121,-4.2121,-4.2121,-4.2121,-4.2011,-4.168,-4.159,-4.1277,-4.012,-3.99,0.0,-3.8836,-3.8707,-3.8469,-3.7808,-3.8267,-3.8469,-3.779,-3.8285,-3.8141,-3.6692,-3.6545,-3.6545,-3.6545,-3.561,0.0,0.0,0.0,-3.5833,-3.4691,-3.3764,0.0,0.0,0.0,-2.9444,-3.0702,-2.8501,0.0,0.0,-2.4665,-2.4193,0.0,0.0,0.0,0.0,0.0,0.0,0.0,0.0,0.0,0.0,0.0,0.0,0.0,0.0,0.0,0.0,-3.8315,-4.0104,-4.1577,-4.1962,-4.2077,-4.2077,-4.3393,-4.4335,-4.4432,-4.5152,-4.5594,-4.5594,-4.5594,-4.5594,-4.5594,-4.5594,0.0,0.0,0.0,-4.5273,-4.5531,-4.5292,-4.5312,-4.5594,-4.5568,-4.5568,-4.5586,-4.5243,-4.5118,-4.5129,-4.4849,-4.4482,-4.4117,-4.4073,-4.3833,-4.3515,-4.3515,-4.3515,-4.3515,-4.3515,-4.3515,-4.3515,-4.3515,0.0,0.0,-4.3515,-4.3515,-4.3515,-4.3515,-4.3515,-4.3515,-4.3515,-4.3515,-4.3515,-4.3515,-4.3515,-4.3515,-4.3515,-4.3515,-4.3313,-4.2598,-4.2433,-4.1992,-4.0469,-4.0157,-3.9918,-3.9111,-3.8836,-3.823,-3.678,-3.779,-3.8193,-3.6743,-3.7826,-3.8597,-3.8322,-3.8285,0.0,-3.8285,-3.627,-3.6068,-3.8542,-3.6096,-3.3892,-3.237,-3.1297,-3.0705,-3.0613,-3.0613,-3.1807,-3.4265,-3.4551,-3.4463,-3.3829,-2.712,-2.5652,0.0,0.0,0.0,0.0,0.0,0.0,0.0,0.0,0.0,0.0,0.0,0.0,0.0,0.0,0.0,-3.6555,-3.9288,-4.1431,-4.175,-4.297,-4.3816,-4.3816,-4.4105,-4.4586,-4.5287,-4.5498,-4.5594,-4.5594,-4.5594,-4.5594,-4.5594,-4.5594,-4.5485,-4.5211,-4.54,-4.541,-4.5201,-4.541,-4.555,-4.5594,-4.5322,0.0,-4.5586,-4.5243,-4.5243,-4.5504,-4.5438,-4.5203,-4.4865,-4.4606,-4.4095,-4.3515,-4.3515,-4.3515,-4.3515,-4.3515,-4.3515,-4.3515,-4.3515,-4.3515,-4.3515,-4.3515,-4.3515,-4.3515,-4.3515,-4.3515,0.0,-4.3515,-4.3515,-4.3515,-4.3515,-4.3515,-4.3515,-4.3515,-4.3515,-4.346,-4.3313,-4.3276,-4.2965,-4.2011,-4.1846,-4.1589,-4.0765,-3.957,-3.8597,-3.8285,-3.8505,-3.8597,-3.8285,-3.8505,-3.7921,-3.594,-3.572,-3.572,-3.572,-3.5279,-3.6068,-3.8542,-3.7551,-3.6435,-3.5478,-3.455,-3.3757,-3.3109,-3.3109,-3.3599,-3.4593,-3.4663,-3.4859,-3.5124,-3.2961,-3.2346,0.0,0.0,0.0,0.0,0.0,0.0,0.0,0.0,0.0,0.0,0.0,-3.2724,-3.3597,0.0,-3.7608,-3.9023,-4.0692,-4.2077,-4.2931,-4.3778,-4.4297,-4.4297,-4.4682,-4.5133,-4.5556,-4.5594,-4.5594,-4.5594,-4.5594,-4.5594,-4.5594,-4.5594,-4.5522,-4.5352,-4.5513,-4.5513,-4.5352,-4.5513,-4.5594,-4.5594,-4.5429,-4.5438,-4.5586,-4.5429,-4.5438,-4.5594,-4.5594,-4.541,-4.5063,-4.4521,-4.3989,-4.3515,-4.3515,-4.3515,-4.3515,-4.3515,-4.3515,-4.3515,-4.3515,-4.3515,-4.3515,-4.3515,-4.3515,-4.3515,-4.3515,-4.3515,-4.3515,-4.3515,-4.3515,-4.3515,-4.3515,-4.3515,-4.3515,-4.3515,-4.3515,-4.3515,-4.3515,-4.3515,-4.3259,-4.2451,-4.2304,-4.2047,-4.1242,-4.0416,-3.9772,-3.9368,-3.9294,-3.9166,-3.8762,-3.8707,-3.823,-3.6986,-3.6839,-3.6839,-3.6839,-3.6839,-3.7371,-3.8615,-3.7936,-3.7327,-3.6923,-3.5665,-3.4821,-3.4399,-3.4009,-3.4087,-3.4694,-3.4694,-3.4972,-3.5481,-3.5045,-3.4853,0.0,0.0,0.0,0.0,0.0,0.0,0.0,-3.0081,-3.0902,-3.3158,-3.4324,-3.5397,-3.692,-3.7985,-3.9384,-4.1673,-4.2181,-4.2758,-4.4105,-4.4451,-4.4547,-4.4547,-4.5171,-4.5594,-4.5594,-4.5594,-4.5594,-4.5594,-4.5594,-4.5594,-4.5594,-4.5594,-4.5594,-4.5594,-4.5594,-4.5594,-4.5594,-4.5594,-4.5594,-4.5594,-4.5594,-4.5594,-4.5594,-4.5594,-4.5594,-4.5594,-4.5594,-4.541,-4.5044,-4.4449,-4.4016,-4.3712,-4.3712,-4.3712,-4.3695,-4.3548,-4.3515,-4.3515,-4.3515,-4.3515,-4.3515,-4.3515,-4.3515,-4.3515,-4.3515,-4.3515,-4.3515,-4.3515,-4.3515,-4.3515,-4.3515,-4.3515,-4.3515,-4.3515,-4.3515,-4.3515,-4.3515,-4.3515,-4.3296,-4.2653,-4.2525,-4.2323,-4.168,-4.1572,-4.1203,-4.0065,-3.99,-3.9606,-3.8799,-3.8707,-3.8707,-3.8707,-3.8707,-3.8707,-3.8707,-3.8707,-3.8707,-3.8707,-3.8083,-3.7658,-3.7511,-3.6211,-3.5334,-3.5023,-3.4362,-3.4253,-3.4694,-3.4694,-3.4972,-3.55,-3.55,-3.55,-3.1487,-3.1141,-3.1044,-3.0077,-3.1019,-3.3026,0.0,-3.6313,-3.6159,-3.7404,-3.8579,-3.9584,-4.0261,-4.0684,-4.137,-4.2725,-4.3547,-4.4085,-4.4278,-4.4979,-4.546,-4.546,-4.5537,-4.5594,-4.5594,-4.5594,-4.5594,-4.5594,-4.5594,-4.5594,-4.5594,-4.5594,-4.5594,-4.5594,-4.5594,-4.5594,-4.5594,-4.5594,-4.5594,-4.5594,-4.5594,-4.5594,-4.5594,-4.5594,-4.5594,-4.5594,-4.5594,-4.541,-4.5096,-4.5,-4.4781,-4.4474,-4.4474,-4.4474,-4.4392,-4.3744,-4.3515,-4.3515,-4.3515,-4.3515,-4.3515,-4.3515,-4.3515,-4.3515,-4.3515,-4.3515,-4.3515,-4.3515,-4.3515,-4.3515,-4.3515,-4.3515,-4.3515,-4.3515,-4.3515,-4.3515,-4.3515,-4.3515,-4.3478,-4.3386,-4.3369,-4.3332,-4.324,-4.3222,-4.247,-4.0246,-3.99,-3.9606,-3.8799,-3.8707,-3.8707,-3.8707,-3.8707,-3.8707,-3.8707,-3.8707,-3.8707,-3.8707,-3.8615,-3.8248,-3.7529,-3.7327,-3.6523,-3.5041,-3.4912,-3.4815,-3.4694,-3.4694,-3.4972,-3.55,-3.55,-3.55,-3.4545,-3.4269,-3.3827,-3.3462,-3.425,-3.5488,-3.693,-3.7199,-3.7578,-3.9058,-3.9755,-4.0166,-4.0397,-4.1074,-4.1918,-4.2934,-4.3778,-4.447,-4.4998,-4.5364,-4.5594,-4.5594,-4.5594,-4.5594,-4.5594,-4.5594,-4.5594,-4.5594,-4.5594,-4.5594,-4.5594,-4.5594,-4.5594,-4.5594,-4.5594,-4.5594,-4.5594,-4.5594,-4.5594,-4.5594,-4.5594,-4.5594,-4.5594,-4.5594,-4.5594,-4.5594,-4.5594,-4.541,-4.5096,-4.5096,-4.4908,-4.4593,-4.4593,-4.4593,-4.4553,-4.4252,-4.3989,-4.3788,-4.3788,-4.3662,-4.3515,-4.3515,-4.3515,-4.3515,-4.3515,-4.3515,-4.3515,-4.3515,-4.3515,-4.3515,-4.3515,-4.3515,-4.3515,-4.3515,-4.3515,-4.3515,-4.3515,-4.3515,-4.3515,-4.3515,-4.3515,-4.3515,-4.3515,-4.3515,-4.3001,-4.1515,-4.1295,-4.0836,-3.9551,-3.9405,-3.9221,-3.8762,-3.8707,-3.8707,-3.8707,-3.8707,-3.8707,-3.8707,-3.8707,-3.856,-3.8212,-3.7749,-3.718,-3.6468,-3.6009,-3.5784,-3.5857,-3.6023,-3.6283,-3.6662,-3.6853,-3.6949,-3.5449,-3.5731,-3.5827,-3.5827,-3.6788,-3.7757,-3.7757,-3.8038,-3.8648,-3.9843,-4.0158,-4.0262,-4.0406,-4.1375,-4.245,-4.3297,-4.4124,-4.4874,-4.5518,-4.5594,-4.5594,-4.5594,-4.5594,-4.5594,-4.5594,-4.5594,-4.5594,-4.5594,-4.5594,-4.5594,-4.5594,-4.5594,-4.5594,-4.5594,-4.5594,-4.5594,-4.5594,-4.5594,-4.5594,-4.5594,-4.5594,-4.5594,-4.5594,-4.5594,-4.5594,-4.5594,-4.5594,-4.5457,-4.5232,-4.5232,-4.5096,-4.4884,-4.4884,-4.4884,-4.4884,-4.4884,-4.4574,-4.418,-4.418,-4.3943,-4.3629,-4.3629,-4.358,-4.3515,-4.3515,-4.3515,-4.3515,-4.3515,-4.3515,-4.3515,-4.3515,-4.3515,-4.3515,-4.3515,-4.3515,-4.3515,-4.3515,-4.3515,-4.3515,-4.3515,-4.3515,-4.3515,-4.3515,-4.3515,-4.3313,-4.2708,-4.2635,-4.2047,-4.0432,-4.0029,-3.9588,-3.8799,-3.8707,-3.8707,-3.8707,-3.8707,-3.8707,-3.8707,-3.8707,-3.8707,-3.8707,-3.8138,-3.7731,-3.7492,-3.6942,-3.6639,-3.6695,-3.6983,-3.7237,-3.7517,-3.7832,-3.8123,-3.3468,-3.4795,-3.6654,-3.6654,-3.8546,-4.0381,-4.0381,-4.0392,-4.0348,-4.0129,-4.0313,-4.0655,-4.117,-4.2247,-4.3316,-4.4124,-4.4998,-4.5575,-4.5594,-4.5594,-4.5594,-4.5594,-4.5594,-4.5594,-4.5594,-4.5594,-4.5594,-4.5594,-4.5594,-4.5594,-4.5594,-4.5594,-4.5594,-4.5594,-4.5594,-4.5594,-4.5594,-4.5594,-4.5594,-4.5594,-4.5594,-4.5594,-4.5594,-4.5594,-4.5594,-4.5594,-4.5594,-4.5586,-4.5586,-4.5586,-4.5577,-4.5568,-4.5568,-4.5568,-4.5568,-4.5568,-4.515,-4.458,-4.458,-4.4304,-4.3967,-4.3967,-4.3756,-4.3515,-4.3515,-4.3515,-4.3515,-4.3515,-4.3515,-4.3515,-4.3515,-4.3515,-4.3515,-4.3515,-4.3515,-4.3515,-4.3515,-4.3515,-4.3515,-4.3515,-4.3515,-4.3515,-4.3515,-4.3515,-4.3496,-4.3478,-4.346,-4.2873,-4.126,-4.0377,-3.9588,-3.8799,-3.8707,-3.8707,-3.8707,-3.8707,-3.8707,-3.8707,-3.8707,-3.8707,-3.8707,-3.8689,-3.8303,-3.7529,-3.7474,-3.7206,-3.6695,-3.6983,-3.7237,-3.7517,-3.7832,-3.845,-3.5122,-3.6469,-3.7834,-3.8931,-3.9881,-4.0496,-4.0496,-4.0496,-4.0473,-4.0381,-4.0441,-4.055,-4.0745,-4.2055,-4.3181,-4.3451,-4.4682,-4.5594,-4.5594,-4.5594,-4.5594,-4.5594,-4.5594,-4.5594,-4.5594,-4.5594,-4.5594,-4.5594,-4.5594,-4.5594,-4.5594,-4.5594,-4.5594,-4.5594,-4.5594,-4.5594,-4.5594,-4.5594,-4.5594,-4.5594,-4.5594,-4.5594,-4.5594,-4.5594,-4.5594,-4.5594,-4.5594,-4.5594,-4.5594,-4.5594,-4.5594,-4.5594,-4.5594,-4.5594,-4.5594,-4.5594,-4.5448,-4.5232,-4.5,-4.4695,-4.4346,-4.4106,-4.4106,-4.414,-4.3647,-4.3662,-4.3788,-4.3546,-4.3515,-4.3515,-4.3515,-4.3515,-4.3515,-4.3515,-4.3515,-4.3515,-4.3515,-4.3515,-4.3515,-4.3515,-4.3515,-4.3515,-4.3515,-4.3515,-4.3515,-4.3515,-4.3039,-4.2323,-4.1242,-4.0396,-3.9588,-3.8799,-3.8707,-3.8707,-3.8707,-3.8707,-3.8707,-3.8707,-3.8707,-3.8707,-3.8707,-3.8707,-3.8579,-3.8303,-3.8303,-3.8294,-3.8284,-3.8618,-3.8923,-3.9223,-3.9528,-3.9823,-3.6469,-3.7565,-3.8392,-4.0073,-4.0496,-4.0496,-4.0496,-4.0496,-4.0496,-4.0496,-4.0015,-3.9708,-4.0015,-4.1227,-4.2277,-4.2585,-4.4297,-4.5594,-4.5594,-4.5594,-4.5594,-4.5594,-4.5594,-4.5594,-4.5594,-4.5594,-4.5594,-4.5594,-4.5594,-4.5594,-4.5594,-4.5594,-4.5594,-4.5594,-4.5594,-4.5594,-4.5594,-4.5594,-4.5594,-4.5594,-4.5594,-4.5594,-4.5594,-4.5594,-4.5594,-4.5594,-4.5594,-4.5594,-4.5594,-4.5594,-4.5594,-4.5594,-4.5594,-4.5594,-4.5594,-4.5594,-4.5594,-4.5568,-4.5352,-4.5063,-4.4732,-4.4482,-4.4482,-4.4487,-4.3868,-4.3836,-4.3924,-4.3597,-4.3515,-4.3515,-4.3515,-4.3515,-4.3515,-4.3515,-4.3515,-4.3515,-4.3515,-4.3515,-4.3515,-4.3515,-4.3515,-4.3515,-4.3515,-4.3515,-4.3515,-4.3515,-4.3057,-4.2323,-4.1242,-4.0653,-3.9918,-3.8817,-3.8707,-3.8707,-3.8707,-3.8788,-3.8803,-3.8707,-3.8788,-3.8844,-3.8844,-3.8844,-3.8898,-3.9027,-3.9008,-3.9114,-3.9276,-3.9611,-3.9891,-4.0101,-4.0372,-4.0496,-3.7334,-3.8065,-3.8507,-4.0092,-4.0496,-4.0496,-4.0496,-4.0496,-4.0477,-4.04,-3.9104,-3.82,-3.8919,-3.9804,-4.0708,-4.1546,-4.3835,-4.5556,-4.5594,-4.5594,-4.5594,-4.5594,-4.5594,-4.5594,-4.5594,-4.5594,-4.5594,-4.5594,-4.5594,-4.5594,-4.5594,-4.5594,-4.5594,-4.5594,-4.5594,-4.5594,-4.5594,-4.5594,-4.5594,-4.5594,-4.5594,-4.5594,-4.5594,-4.5594,-4.5594,-4.5594,-4.5594,-4.5594,-4.5594,-4.5594,-4.5594,-4.5594,-4.5594,-4.5594,-4.5594,-4.5594,-4.5594,-4.5594,-4.5594,-4.54,-4.5118,-4.5096,-4.4896,-4.458,-4.4146,-4.4043,-4.3986,-4.3646,-4.3548,-4.3531,-4.3531,-4.3513,-4.3515,-4.3515,-4.3515,-4.3515,-4.3515,-4.3515,-4.3515,-4.3515,-4.3515,-4.3515,-4.3515,-4.3515,-4.3515,-4.3515,-4.3515,-4.2928,-4.1352,-4.1132,-4.049,-3.8927,-3.8726,-3.8707,-3.8719,-3.8961,-3.8999,-3.8747,-3.8971,-3.9139,-3.9139,-3.9139,-3.9276,-3.9599,-3.9599,-3.9611,-3.9622,-3.9943,-4.011,-4.0129,-4.0381,-4.0496,-3.7642,-3.8911,-3.9977,-4.04,-4.0496,-4.0496,-4.0496,-4.0496,-4.015,-3.8892,-3.8296,-3.7488,-3.5821,-3.7745,-3.9688,-3.9892,-4.2585,-4.4855,-4.5518,-4.5594,-4.5594,-4.5594,-4.5594,-4.5594,-4.5594,-4.5594,-4.5594,-4.5594,-4.5594,-4.5594,-4.5594,-4.5594,-4.5594,-4.5594,-4.5594,-4.5594,-4.5594,-4.5594,-4.5594,-4.5594,-4.5594,-4.5594,-4.5594,-4.5594,-4.5594,-4.5594,-4.5594,-4.5594,-4.5594,-4.5594,-4.5594,-4.5594,-4.5594,-4.5594,-4.5594,-4.5594,-4.5594,-4.5594,-4.5594,-4.5531,-4.5429,-4.5191,-4.5211,-4.5223,-4.4644,-4.4612,-4.4757,-4.4419,-4.4106,-4.3881,-4.3881,-4.3695,-4.3515,-4.3515,-4.3515,-4.3515,-4.3515,-4.3515,-4.3515,-4.3515,-4.3515,-4.3515,-4.3515,-4.3515,-4.3515,-4.3515,-4.3515,-4.313,-4.2121,-4.1462,-4.071,-3.9698,-3.9056,-3.8773,-3.8971,-3.9044,-3.9178,-3.9364,-3.9432,-3.9462,-3.9462,-3.9462,-3.9498,-3.9599,-3.9599,-3.9712,-3.9982,-4.0061,-4.0195,-4.0397,-4.0473,-4.0496,-3.8757,-3.9785,-4.0496,-4.0496,-4.0496,-4.0208,-3.9084,-3.9155,-3.874,-3.6271,-3.5502,-3.484,-3.3365,-3.5872,-3.8277,-3.8661,-4.2181,-4.5037,-4.5537,-4.5594,-4.5594,-4.5594,-4.5594,-4.5594,-4.5594,-4.5594,-4.5594,-4.5594,-4.5594,-4.5594,-4.5594,-4.5594,-4.5594,-4.5594,-4.5594,-4.5594,-4.5594,-4.5594,-4.5594,-4.5594,-4.5594,-4.5594,-4.5594,-4.5594,-4.5594,-4.5594,-4.5594,-4.5594,-4.5594,-4.5594,-4.5594,-4.5594,-4.5594,-4.5594,-4.5594,-4.5594,-4.5594,-4.5594,-4.5594,-4.5594,-4.5568,-4.539,-4.5438,-4.5504,-4.4977,-4.4943,-4.503,-4.4682,-4.4447,-4.4219,-4.4061,-4.3865,-4.3677,-4.3531,-4.3515,-4.3515,-4.3515,-4.3515,-4.3515,-4.3515,-4.3515,-4.3515,-4.3515,-4.3515,-4.3515,-4.3515,-4.3515,-4.3221,-4.2396,-4.159,-4.0799,-3.9992,-3.9184,-3.8818,-3.9072,-3.9225,-3.9389,-3.9587,-3.9742,-3.9819,-3.9819,-3.9819,-3.9872,-3.9994,-3.9985,-4.0091,-4.0286,-4.0286,-4.0356,-4.0496,-4.0496,-4.0496,-4.0112,-4.0496,-4.0496,-4.0496,-4.0496,-3.9861,-3.743,-3.7424,-3.6945,-3.346,-3.2167,-3.154,-3.127,-3.3955,-3.6581,-3.7685,-4.1932,-4.5225,-4.558,-4.5612,-4.5594,-4.5594,-4.5594,-4.5594,-4.5594,-4.5594,-4.5594,-4.5594,-4.5594,-4.5594,-4.5594,-4.5594,-4.5594,-4.5594,-4.5594,-4.5594,-4.5594,-4.5594,-4.5594,-4.5594,-4.5594,-4.5594,-4.5594,-4.5594,-4.5594,-4.5594,-4.5594,-4.5594,-4.5594,-4.5594,-4.5594,-4.5594,-4.5594,-4.5594,-4.5594,-4.5594,-4.5594,-4.5594,-4.5594,-4.5594,-4.5594,-4.5594,-4.5594,-4.555,-4.5253,-4.5169,-4.5107,-4.4806,-4.4695,-4.4593,-4.4233,-4.4073,-4.3924,-4.3647,-4.3531,-4.3515,-4.3515,-4.3515,-4.3515,-4.3515,-4.3515,-4.3515,-4.3515,-4.3515,-4.3515,-4.3515,-4.3515,-4.3221,-4.2396,-4.159,-4.0799,-3.9992,-3.9184,-3.8833,-3.9139,-3.9426,-3.9634,-3.9712,-3.9993,-4.0148,-4.0148,-4.0148,-4.025,-4.0489,-4.0496,-4.0496,-4.0496,-4.0496,-4.0496,-4.0496,-4.0496,-4.0496,-4.0419,-4.0496,-4.0496,-4.0496,-4.0496,-4.0015,-3.818,-3.7392,-3.6062,-3.2694,-3.1353,-3.035,-2.8904,-3.1463,-3.4523,-3.6725,-4.0158,-4.3304,-4.5459,-4.5673,-4.5594,-4.5594,-4.5594,-4.5594,-4.5594,-4.5594,-4.5594,-4.5594,-4.5594,-4.5594,-4.5594,-4.5594,-4.5594,-4.5594,-4.5594,-4.5594,-4.5594,-4.5594,-4.5594,-4.5594,-4.5594,-4.5594,-4.5594,-4.5594,-4.5594,-4.5594,-4.5594,-4.5594,-4.5594,-4.5594,-4.5594,-4.5594,-4.5594,-4.5594,-4.5594,-4.5594,-4.5594,-4.5594,-4.5594,-4.5594,-4.5594,-4.5594,-4.5594,-4.5586,-4.5522,-4.5513,-4.5504,-4.5438,-4.5232,-4.5007,-4.4931,-4.4468,-4.3986,-4.3924,-4.3693,-4.3515,-4.3515,-4.3515,-4.3515,-4.3515,-4.3515,-4.3515,-4.3515,-4.3515,-4.3515,-4.3515,-4.3515,-4.3221,-4.2396,-4.159,-4.0799,-3.9992,-3.9184,-3.8931,-3.9469,-3.9576,-3.981,-4.03,-4.0397,-4.0441,-4.0441,-4.0441,-4.0457,-4.0496,-4.0496,-4.0496,-4.0496,-4.0496,-4.0496,-4.0496,-4.0496,-4.0496,-4.0496,-4.0496,-4.0496,-4.0496,-4.0496,-3.9592,-3.6122,-3.5437,-3.4154,-2.9395,-2.8536,-2.8217,-2.6885,-2.9873,-3.3063,-3.4707,-3.8933,-4.259,-4.4314,-4.5215,-4.57,-4.57,-4.5643,-4.5594,-4.5594,-4.5594,-4.5627,-4.5692,-4.5643,-4.5594,-4.5594,-4.5594,-4.5594,-4.5594,-4.5594,-4.5594,-4.5594,-4.5594,-4.5594,-4.5594,-4.5594,-4.5594,-4.5594,-4.5594,-4.5594,-4.5594,-4.5594,-4.5594,-4.5594,-4.5594,-4.5594,-4.5594,-4.5594,-4.5594,-4.5594,-4.5594,-4.5594,-4.5594,-4.5594,-4.5594,-4.5594,-4.5594,-4.5594,-4.5594,-4.5594,-4.5594,-4.5594,-4.5594,-4.5485,-4.5322,-4.5159,-4.4842,-4.4535,-4.4346,-4.4016,-4.371,-4.3531,-4.3515,-4.3515,-4.3515,-4.3515,-4.3515,-4.3515,-4.3515,-4.3515,-4.3515,-4.313,-4.258,-4.1791,-4.0983,-4.0322,-3.9937,-3.9184,-3.8927,-3.9552,-3.9599,-3.9853,-4.0473,-4.0496,-4.0496,-4.0496,-4.0496,-4.0496,-4.0496,-4.0496,-4.0496,-4.0496,-4.0496,-4.0496,-4.0496,-4.0496,-4.0496,-4.0458,-4.0496,-4.0496,-4.0496,-4.0496,-3.9207,-3.4295,-3.3616,-3.2425,-2.6757,-2.6097,-2.6356,-2.5793,-2.866,-3.1623,-3.3248,-3.7737,-4.1583,-4.321,-4.4644,-4.5596,-4.5789,-4.5692,-4.5612,-4.5643,-4.562,-4.5643,-4.5747,-4.5696,-4.5627,-4.5594,-4.5594,-4.5594,-4.5594,-4.5594,-4.5594,-4.5594,-4.5594,-4.5594,-4.5594,-4.5594,-4.5594,-4.5594,-4.5594,-4.5594,-4.5594,-4.5594,-4.5594,-4.5594,-4.5594,-4.5594,-4.5594,-4.5594,-4.5594,-4.5594,-4.5594,-4.5594,-4.5594,-4.5594,-4.5594,-4.5594,-4.5594,-4.5594,-4.5594,-4.5594,-4.5594,-4.5594,-4.5594,-4.5594,-4.555,-4.5282,-4.514,-4.5019,-4.467,-4.4346,-4.4031,-4.3677,-4.3614,-4.358,-4.3513,-4.3515,-4.3515,-4.3515,-4.3368,-4.3239,-4.3239,-4.2561,-4.1754,-4.0948,-4.0286,-3.9827,-3.9662,-3.9133,-3.9008,-3.9552,-3.9656,-3.9934,-4.0473,-4.0496,-4.0496,-4.0496,-4.0496,-4.0496,-4.0496,-4.0496,-4.0496,-4.0496,-4.0496,-4.0496,-4.0496,-4.0496,-4.0419,-4.0304,-4.0496,-4.0496,-4.0496,-4.0496,-3.9381,-3.5071,-3.3585,-3.1869,-2.7488,-2.6052,-2.5836,-2.654,-2.769,-2.9833,-3.3817,-3.6202,-3.8963,-4.301,-4.4176,-4.493,-4.5794,-4.5722,-4.5651,-4.5782,-4.5673,-4.5603,-4.562,-4.573,-4.5718,-4.5603,-4.5594,-4.5594,-4.5594,-4.5594,-4.5594,-4.5594,-4.5594,-4.5594,-4.5594,-4.5594,-4.5594,-4.5594,-4.5594,-4.5594,-4.5594,-4.5594,-4.5594,-4.5594,-4.5594,-4.5594,-4.5594,-4.5594,-4.5594,-4.5594,-4.5594,-4.5594,-4.5594,-4.5594,-4.5594,-4.5594,-4.5594,-4.5594,-4.5594,-4.5594,-4.5594,-4.5594,-4.5594,-4.5594,-4.5586,-4.5568,-4.5332,-4.5019,-4.467,-4.4567,-4.4447,-4.4046,-4.3955,-4.3865,-4.3565,-4.3515,-4.3515,-4.3515,-4.2892,-4.2415,-4.2415,-4.1735,-4.0912,-4.0102,-3.9937,-3.9625,-3.8891,-3.896,-3.9218,-3.9576,-3.988,-4.0186,-4.0481,-4.0496,-4.0496,-4.0496,-4.0496,-4.0496,-4.0496,-4.0496,-4.0496,-4.0496,-4.0496,-4.0496,-4.0496,-4.0496,-4.0112,-3.9688,-4.0131,-4.0496,-4.0496,-4.015,-3.8664,-3.4447,-3.2827,-3.1025,-2.678,-2.5651,-2.5556,-2.5945,-2.6786,-2.8324,-3.1147,-3.3431,-3.5851,-3.8624,-4.0477,-4.2086,-4.3552,-4.3943,-4.4542,-4.5686,-4.568,-4.5627,-4.5715,-4.588,-4.5924,-4.5782,-4.5729,-4.5669,-4.5594,-4.5594,-4.5594,-4.5594,-4.5594,-4.5594,-4.5594,-4.5594,-4.5594,-4.5594,-4.5594,-4.5594,-4.5594,-4.5594,-4.5594,-4.5594,-4.5594,-4.5594,-4.5594,-4.5594,-4.5594,-4.5594,-4.5594,-4.5594,-4.5594,-4.5594,-4.5594,-4.5594,-4.5594,-4.5594,-4.5594,-4.5594,-4.5594,-4.5594,-4.5594,-4.5594,-4.5594,-4.5594,-4.5504,-4.5322,-4.4977,-4.4896,-4.4745,-4.4132,-4.4001,-4.3912,-4.3582,-4.3515,-4.3349,-4.2855,-4.2506,-4.2139,-4.1662,-4.0891,-4.0267,-3.9937,-3.9478,-3.9056,-3.8726,-3.8933,-3.9244,-3.9576,-3.9912,-4.0213,-4.0481,-4.0496,-4.0496,-4.0496,-4.0496,-4.0496,-4.0496,-4.0496,-4.0496,-4.0496,-4.0496,-4.0496,-4.0496,-3.9996,-3.9611,-3.9189,-3.9899,-4.0496,-4.0496,-3.9708,-3.7863,-3.3886,-3.2104,-3.0183,-2.6193,-2.5364,-2.5395,-2.5462,-2.6022,-2.7162,-2.9235,-3.1308,-3.3613,-3.6387,-3.82,-4.0019,-4.2063,-4.2565,-4.3342,-4.488,-4.5413,-4.5692,-4.579,-4.5998,-4.6042,-4.5907,-4.5891,-4.5832,-4.5691,-4.5684,-4.5684,-4.5684,-4.5684,-4.5673,-4.5657,-4.5657,-4.5635,-4.5594,-4.5594,-4.5594,-4.5594,-4.5594,-4.5594,-4.5594,-4.5594,-4.5594,-4.5594,-4.5594,-4.5594,-4.5594,-4.5594,-4.5594,-4.5594,-4.5594,-4.5594,-4.5594,-4.5594,-4.5594,-4.5594,-4.5594,-4.5594,-4.5594,-4.5594,-4.5594,-4.5594,-4.5594,-4.5594,-4.5531,-4.5312,-4.5243,-4.5044,-4.4332,-4.4175,-4.4046,-4.358,-4.3296,-4.2965,-4.2396,-4.1901,-4.1405,-4.0836,-4.0065,-3.9551,-3.9551,-3.9056,-3.8707,-3.8707,-3.8933,-3.9244,-3.9576,-3.9983,-4.0304,-4.0489,-4.0496,-4.0496,-4.0496,-4.0496,-4.0496,-4.0496,-4.0496,-4.0496,-4.0496,-4.0496,-4.0381,-4.0131,-3.9554,-3.9015,-3.8916,-3.9946,-4.0496,-4.0496,-3.9238,-3.7123,-3.368,-3.1621,-2.9442,-2.6019,-2.5308,-2.5327,-2.5383,-2.5459,-2.6392,-2.9076,-3.0309,-3.2715,-3.7851,-3.8478,-3.9386,-4.1999,-4.2066,-4.2267,-4.313,-4.4796,-4.5796,-4.5803,-4.5998,-4.6042,-4.5907,-4.603,-4.6036,-4.5899,-4.5894,-4.5894,-4.5894,-4.5894,-4.5852,-4.5796,-4.5796,-4.5718,-4.5594,-4.5594,-4.5594,-4.5594,-4.5594,-4.5594,-4.5594,-4.5594,-4.5594,-4.5594,-4.5594,-4.5594,-4.5594,-4.5594,-4.5594,-4.5594,-4.5594,-4.5594,-4.5594,-4.5594,-4.5594,-4.5594,-4.5594,-4.5594,-4.5594,-4.5594,-4.5594,-4.5594,-4.5594,-4.5594,-4.5594,-4.5605,-4.5586,-4.5419,-4.4732,-4.4593,-4.4378,-4.3647,-4.2855,-4.2304,-4.2304,-4.0983,-3.9918,-3.99,-3.9239,-3.8707,-3.8707,-3.8707,-3.8707,-3.8707,-3.8933,-3.9244,-3.9576,-4.0157,-4.0496,-4.0496,-4.0496,-4.0496,-4.0496,-4.0496,-4.0496,-4.0496,-4.0496,-4.0496,-4.0496,-4.0496,-4.0092,-3.9304,-3.9304,-3.8373,-3.4956,-3.6009,-3.6796,-3.5603,-3.4911,-3.3801,-3.0997,-2.9932,-2.8725,-2.5942,-2.533,-2.5327,-2.5387,-2.5443,-2.6764,-3.066,-3.1051,-3.2285,-3.6269,-3.7721,-3.8926,-4.0348,-4.2913,-4.4639,-4.4824,-4.5466,-4.5862,-4.5862,-4.6101,-4.6223,-4.6174,-4.6203,-4.6122,-4.5907,-4.5899,-4.5899,-4.5899,-4.5899,-4.5881,-4.5862,-4.5862,-4.5825,-4.5733,-4.5733,-4.5696,-4.5594,-4.5594,-4.5594,-4.5594,-4.5594,-4.5594,-4.5594,-4.5594,-4.5594,-4.5594,-4.5594,-4.5594,-4.5594,-4.5594,-4.5594,-4.5594,-4.5594,-4.5594,-4.5594,-4.5594,-4.5594,-4.5594,-4.5594,-4.5594,-4.5594,-4.5594,-4.5594,-4.5594,-4.5594,-4.5594,-4.5419,-4.4732,-4.4593,-4.4378,-4.3647,-4.2837,-4.2139,-4.1572,-4.0598,-3.9698,-3.9166,-3.8854,-3.8707,-3.8707,-3.8707,-3.8707,-3.8707,-3.8933,-3.9244,-3.9576,-3.9993,-4.0294,-4.0489,-4.0496,-4.0496,-4.0496,-4.0496,-4.0246,-3.9688,-3.9688,-3.94,-3.8796,-3.8796,-3.8354,-3.7526,-3.7526,-3.693,-3.2359,-3.348,-3.425,-3.3179,-3.2429,-3.1466,-2.9583,-2.8641,-2.7628,-2.576,-2.5326,-2.5313,-2.5354,-2.5441,-2.6502,-2.9606,-2.9993,-3.1348,-3.543,-3.6851,-3.8274,-4.0368,-4.3089,-4.4874,-4.5084,-4.5564,-4.5867,-4.5899,-4.611,-4.6247,-4.6308,-4.6308,-4.6224,-4.6069,-4.6045,-4.6045,-4.6045,-4.6045,-4.603,-4.5978,-4.5978,-4.5923,-4.5836,-4.5836,-4.5783,-4.568,-4.568,-4.5651,0.0,-4.5594,-4.5594,-4.5594,-4.5594,-4.5594,-4.5594,-4.5594,-4.5594,-4.5594,-4.5594,-4.5594,-4.5594,-4.5594,-4.5594,-4.5594,-4.5594,-4.5594,-4.5594,-4.5594,-4.5594,-4.5594,-4.5594,-4.5594,-4.5594,-4.5594,-4.5504,-4.5263,-4.4707,-4.4487,-4.4101,-4.3227,-4.2396,-4.1589,-4.0799,-3.9974,-3.9276,-3.8781,-3.8707,-3.8707,-3.8707,-3.8707,-3.8707,-3.8707,-3.8859,-3.9063,-3.9396,-3.9829,-4.0167,-4.0339,-4.043,-4.0362,-4.0054,-4.0054,-3.9669,-3.8834,-3.8815,-3.8546,-3.8007,-3.768,-3.7238,-3.6692,-3.6385,-3.5981,0.0,-3.1934,-3.2506,-3.2391,-3.1231,-2.9904,-2.903,-2.7659,0.0,-2.5481,-2.5293,-2.5341,-2.5476,-2.5508,-2.589,-2.7065,-2.7993,-3.0351,-3.5469,-3.6386,-3.7989,-4.1891,-4.2905,-4.3566,-4.4316,-4.5247,-4.5832,-4.589,-4.6011,-4.617,-4.6289,-4.6308,-4.6308,-4.6308,-4.6308,-4.6308,-4.6308,-4.6308,-4.6246,-4.6115,-4.6115,-4.6042,-4.5912,-4.5912,-4.5886,-4.5816,-4.5803,-4.5718,-4.5612,-4.5603,-4.5594,-4.5594,-4.5594,-4.5594,-4.5594,-4.5594,-4.5594,-4.5594,-4.5594,-4.5594,-4.5594,-4.5594,-4.5594,-4.5594,-4.5594,-4.5594,-4.5594,-4.5594,-4.5594,-4.5594,-4.5594,-4.5594,-4.5594,-4.5594,-4.5352,-4.5041,-4.467,-4.4323,-4.3701,-4.2533,-4.1662,-4.0838,-4.0029,-3.9239,-3.8707,-3.8707,-3.8707,-3.8707,-3.8707,-3.8707,-3.8707,-3.8707,-3.8707,-3.8803,-3.9063,-3.9656,-4.0061,-4.0101,-4.0264,-4.0023,-3.9342,-3.9196,-3.8747,-3.7889,-3.7812,-3.78,-3.7815,-3.7,-3.6615,-3.6596,-3.5846,-3.55,-2.6665,0.0,-2.8756,-2.7423,-2.7288,-2.725,0.0,-2.6404,-2.6346,-2.5481,-2.5348,-2.5786,-2.7117,-2.6395,-2.6939,-3.1103,-3.1498,-3.2851,-3.7363,-4.0118,-4.2478,-4.4669,-4.4978,-4.5094,-4.5287,-4.5595,-4.5832,-4.589,-4.6011,-4.617,-4.6289,-4.6308,-4.6308,-4.6308,-4.6308,-4.6308,-4.6308,-4.6308,-4.6289,-4.6248,-4.6248,-4.6177,-4.6047,-4.6047,-4.5981,-4.5872,-4.5814,-4.5776,-4.5747,-4.5643,-4.5594,-4.5594,-4.5594,-4.5594,-4.5594,-4.5594,-4.5594,-4.5594,-4.5594,-4.5594,-4.5594,-4.5594,-4.5594,-4.5594,-4.5594,-4.5594,-4.5594,-4.5594,-4.5594,-4.5594,-4.5594,-4.5594,-4.5594,-4.5594,-4.555,-4.5322,-4.472,-4.4527,-4.4022,-4.2582,-4.1662,-4.0838,-4.0029,-3.9239,-3.8707,-3.8707,-3.8707,-3.8707,-3.8707,-3.8707,-3.8707,-3.8707,-3.8707,-3.8719,-3.8788,-3.9136,-3.9552,-4.0071,-3.9334,-3.9023,-3.9288,-3.8277,-3.7376,-3.6716,-3.6105,-3.5871,-3.6096,-3.5885,-3.5788,-3.5788,-3.5596,-3.55,-2.5308,-2.6563,-2.7659,-2.6736,-2.6851,-2.7063,-2.6601,-2.6231,-2.588,-2.5436,-2.5364,-2.57,-2.6621,-2.7456,-2.8626,-3.0606,-3.2941,-3.5898,-3.9805,-4.2815,-4.4935,-4.5753,-4.5743,-4.5665,-4.5603,-4.5665,-4.5764,-4.5885,-4.5974,-4.6087,-4.6289,-4.6308,-4.6308,-4.6308,-4.6308,-4.6308,-4.6308,-4.6308,-4.6308,-4.6308,-4.6308,-4.6268,-4.6199,-4.6199,-4.6117,-4.5985,-4.5891,-4.5832,-4.579,-4.5668,-4.5594,-4.5594,-4.5594,-4.5594,-4.5594,-4.5594,-4.5594,-4.5594,-4.5594,-4.5594,-4.5594,-4.5594,-4.5594,-4.5594,-4.5594,-4.5594,-4.5594,-4.5594,-4.5594,-4.5594,-4.5594,-4.5594,-4.5594,-4.5594,-4.5362,-4.5033,-4.467,-4.4036,-4.3193,-4.1981,-4.1111,-4.0286,-3.9496,-3.9001,-3.8707,-3.8707,-3.8707,-3.8707,-3.8707,-3.8707,-3.8707,-3.8707,-3.8707,-3.8707,-3.8707,-3.8829,-3.9021,-3.9258,-3.8718,-3.8265,-3.7945,-3.7072,-3.6269,-3.5571,-3.5135,-3.5053,-3.5312,-3.5312,-3.5376,-3.55,-3.55,-3.55,-2.5769,-2.7159,-2.8313,-2.7659,-2.7713,-2.7839,-2.7568,-2.6361,-2.5321,-2.5379,-2.5387,-2.5642,-2.6442,-2.8795,-3.0403,-2.979,-3.4306,-3.8984,-4.2106,-4.4606,-4.6036,-4.5862,-4.5813,-4.5747,-4.5612,-4.5594,-4.5676,-4.5881,-4.5899,-4.6027,-4.6289,-4.6308,-4.6308,-4.6308,-4.6308,-4.6308,-4.6308,-4.6308,-4.6308,-4.6308,-4.6308,-4.6289,-4.6268,-4.6268,-4.6202,-4.6087,-4.5952,-4.5871,-4.582,-4.5673,-4.5612,-4.5618,-4.5603,-4.5594,-4.5594,-4.5594,-4.5594,-4.5594,-4.5594,-4.5594,-4.5594,-4.5594,-4.5594,-4.5594,-4.5594,-4.5594,-4.5594,-4.5594,-4.5594,-4.5594,-4.5594,-4.5594,-4.5594,-4.5594,-4.5129,-4.4657,-4.4606,-4.3431,-4.213,-4.1258,-4.0451,-3.9643,-3.8836,-3.8707,-3.8707,-3.8707,-3.8707,-3.8707,-3.8707,-3.8707,-3.8707,-3.8707,-3.8707,-3.8707,-3.8707,-3.8707,-3.851,-3.8085,-3.807,-3.7419,-3.597,-3.5737,-3.5331,-3.4632,-3.4614,-3.4764,-3.5053,-3.5088,-3.5215,-3.5439,-3.5486,-3.55,-2.7928,-2.9794,-3.0237,-2.6615,-2.6853,-2.7574,-2.6044,-2.5541,-2.5375,-2.5312,-2.5363,-2.675,-3.119,-3.0735,-3.1295,-3.6189,-3.9023,-4.1222,-4.2997,-4.4886,-4.5994,-4.5681,-4.574,-4.5747,-4.5612,-4.5594,-4.5676,-4.5881,-4.5899,-4.6027,-4.6289,-4.6308,-4.6308,-4.6308,-4.6308,-4.6308,-4.6308,-4.6308,-4.6308,-4.6308,-4.6308,-4.6246,-4.612,-4.612,-4.6117,-4.6084,-4.5901,-4.5911,-4.6021,-4.5728,-4.5665,-4.5761,-4.5651,-4.5594,-4.5594,-4.5594,-4.5594,-4.5594,-4.5594,-4.5594,-4.5594,-4.5594,-4.5594,-4.5594,-4.5594,-4.5594,-4.5594,-4.5594,-4.5594,-4.5594,-4.5594,-4.5594,-4.5594,-4.5594,-4.5293,-4.4943,-4.4657,-4.361,-4.2402,-4.1305,-4.0451,-3.9643,-3.8836,-3.8707,-3.8707,-3.8707,-3.8707,-3.8707,-3.8707,-3.8707,-3.8707,-3.8707,-3.8707,-3.8707,-3.8707,-3.8707,-3.8206,-3.7006,-3.6729,-3.5887,-3.4258,-3.4369,-3.44,-3.4288,-3.4288,-3.4434,-3.4754,-3.499,-3.5122,-3.5174,-3.5391,-3.55,-2.6736,-2.8313,-2.9275,-2.7736,-2.9723,-3.1821,-3.0993,-3.054,-3.0005,-2.9071,-2.9298,-3.0403,-3.2808,-3.3891,-3.6248,-4.1855,-4.2637,-4.3123,-4.4735,-4.5623,-4.6018,-4.5801,-4.579,-4.5747,-4.5612,-4.5665,-4.5764,-4.5885,-4.5974,-4.6087,-4.6289,-4.6308,-4.6308,-4.6308,-4.6308,-4.6308,-4.6308,-4.6308,-4.6308,-4.6308,-4.6308,-4.6268,-4.6201,-4.6122,-4.6108,-4.6082,-4.5899,-4.5875,-4.5974,-4.5713,-4.568,-4.5783,-4.564,-4.5594,-4.5594,-4.5594,-4.5594,-4.5594,-4.5594,-4.5594,-4.5594,-4.5594,-4.5594,-4.5594,-4.5594,-4.5594,-4.5594,-4.5594,-4.5594,-4.5594,-4.5594,-4.5594,-4.5594,-4.5594,-4.5211,-4.4668,-4.4027,-4.2842,-4.1591,-4.063,-3.9808,-3.9129,-3.8762,-3.8707,-3.8707,-3.8707,-3.8707,-3.8707,-3.8707,-3.8707,-3.8707,-3.8707,-3.8707,-3.8707,-3.8707,-3.8707,-3.807,-3.6583,-3.5645,-3.4761,-3.3839,-3.3928,-3.3986,-3.3986,-3.3986,-3.4129,-3.4423,-3.4744,-3.4963,-3.5105,-3.5376,-3.55,-2.6038,-2.7159,-2.8472,-2.9684,-3.1877,-3.4,-3.4968,-3.4312,-3.3356,-3.2854,-3.3307,-3.4014,-3.4667,-3.7664,-4.1287,-4.5078,-4.4882,-4.4723,-4.6026,-4.6145,-4.6033,-4.5852,-4.5814,-4.5747,-4.5612,-4.573,-4.5832,-4.589,-4.6011,-4.617,-4.6289,-4.6308,-4.6308,-4.6308,-4.6308,-4.6308,-4.6308,-4.6268,-4.6268,-4.6308,-4.6268,-4.6245,-4.6201,-4.6075,-4.604,-4.6011,-4.5832,-4.5801,-4.5881,-4.5676,-4.568,-4.5783,-4.564,-4.5594,-4.5594,-4.5594,-4.5594,-4.5594,-4.5594,-4.5594,-4.5594,-4.5594,-4.5594,-4.5594,-4.5594,-4.5594,-4.5594,-4.5594,-4.5594,-4.5594,-4.5594,-4.5594,-4.5594,-4.5594,-4.4987,-4.4209,-4.3467,-4.2043,-4.0709,-4.0026,-3.9239,-3.8707,-3.8707,-3.8707,-3.8707,-3.8707,-3.8707,-3.8707,-3.8707,-3.8707,-3.8707,-3.8707,-3.8707,-3.8615,-3.8432,-3.8248,-3.7533,-3.6083,-3.48,-3.4006,-3.382,-3.3807,-3.3807,-3.3807,-3.3807,-3.3902,-3.4099,-3.4508,-3.4812,-3.5008,-3.5354,-3.55,-2.8179,-2.8915,-2.9608,-3.2025,-3.0576,-2.9545,-3.3403,-3.2477,-3.1627,-3.4616,-3.5297,-3.6115,-3.8684,-4.2005,-4.4254,-4.3945,-4.5027,-4.5938,-4.594,-4.6033,-4.5986,-4.5661,-4.5725,-4.5747,-4.5612,-4.573,-4.5832,-4.589,-4.6011,-4.617,-4.6289,-4.6308,-4.6308,-4.6308,-4.6308,-4.6308,-4.6308,-4.6175,-4.6175,-4.6308,-4.6174,-4.6045,-4.592,-4.5847,-4.5815,-4.5809,-4.5661,-4.5729,-4.5881,-4.5676,-4.568,-4.5783,-4.564,-4.5594,-4.5594,-4.5594,-4.5594,-4.5594,-4.5594,-4.5594,-4.5594,-4.5594,-4.5594,-4.5594,-4.5594,-4.5594,-4.5594,-4.5594,-4.5594,-4.5594,-4.5594,-4.5594,-4.5594,-4.5594,-4.471,-4.3756,-4.3384,-4.175,-4.0269,-3.996,-3.9239,-3.8707,-3.8707,-3.8707,-3.8707,-3.8707,-3.8707,-3.8707,-3.8707,-3.8707,-3.8707,-3.8707,-3.8707,-3.8395,-3.7658,-3.689,-3.6083,-3.5151,-3.4298,-3.3815,-3.3807,-3.3807,-3.3807,-3.3807,-3.3807,-3.3802,-3.3829,-3.4428,-3.4704,-3.4734,-3.5266,-3.55,-2.6481,-2.789,-2.9588,-3.1641,-3.1214,-3.1391,-3.5617,-3.7128,-3.7995,-3.9232,-3.9989,-4.0587,-4.1162,-4.3723,-4.5465,-4.4648,-4.5466,-4.6175,-4.6042,-4.5995,-4.5909,-4.5735,-4.5775,-4.5776,-4.5718,-4.5885,-4.5994,-4.6027,-4.6147,-4.6247,-4.6308,-4.6308,-4.6308,-4.6308,-4.6308,-4.6268,-4.6174,-4.6138,-4.6082,-4.6045,-4.5995,-4.5992,-4.6027,-4.5859,-4.582,-4.5861,-4.5757,-4.5796,-4.5885,-4.5764,-4.5754,-4.5783,-4.564,-4.5594,-4.5594,-4.5594,-4.5594,-4.5594,-4.5594,-4.5594,-4.5594,-4.5594,-4.5594,-4.5594,-4.5594,-4.5594,-4.5594,-4.5594,-4.5594,-4.5594,-4.5594,-4.5594,-4.546,-4.4921,-4.4279,-4.3428,-4.2092,-4.0995,-4.0071,-3.9298,-3.8909,-3.8707,-3.8707,-3.8707,-3.8707,-3.8707,-3.8707,-3.8707,-3.8707,-3.8707,-3.8707,-3.8707,-3.8707,-3.8377,-3.7566,-3.6758,-3.5936,-3.5059,-3.4234,-3.3807,-3.3807,-3.3807,-3.3807,-3.3807,-3.3807,-3.3876,-3.4056,-3.4486,-3.4793,-3.4954,-3.5339,-3.55,-2.6193,-2.7609,-2.9703,-3.1928,-3.2275,-3.3256,-3.7757,-3.9797,-4.1177,-4.2748,-4.3212,-4.3262,-4.3047,-4.4304,-4.5276,-4.4962,-4.5627,-4.614,-4.6011,-4.5933,-4.5847,-4.5754,-4.5763,-4.5803,-4.5803,-4.5975,-4.6108,-4.6108,-4.6224,-4.6308,-4.6308,-4.6308,-4.6308,-4.6308,-4.6268,-4.6199,-4.6108,-4.6047,-4.5979,-4.5899,-4.5836,-4.5886,-4.5994,-4.5808,-4.5764,-4.5805,-4.5769,-4.5764,-4.5805,-4.5769,-4.5733,-4.5737,-4.5635,-4.5594,-4.5594,-4.5594,-4.5594,-4.5594,-4.5594,-4.5594,-4.5594,-4.5594,-4.5594,-4.5594,-4.5594,-4.5594,-4.5594,-4.5594,-4.5594,-4.5537,-4.5267,-4.519,-4.5037,-4.4432,-4.3722,-4.2773,-4.135,-4.0606,-3.9962,-3.9009,-3.8829,-3.8803,-3.8704,-3.8777,-3.8829,-3.8829,-3.8829,-3.8829,-3.8829,-3.8747,-3.8707,-3.8707,-3.8469,-3.7991,-3.7199,-3.6358,-3.5532,-3.4674,-3.41,-3.3807,-3.3807,-3.3807,-3.3807,-3.3807,-3.3807,-3.3923,-3.42,-3.454,-3.4851,-3.5105,-3.5376,-3.55,-2.812,-2.8583,-3.0128,-3.3364,-3.3583,-3.4295,-3.9381,-3.9238,-3.9488,-4.4556,-4.4322,-4.3499,-4.4344,-4.3917,-4.37,-4.4567,-4.5369,-4.5877,-4.5803,-4.5803,-4.5754,-4.562,-4.573,-4.5803,-4.5803,-4.5975,-4.6091,-4.6091,-4.6224,-4.6308,-4.6308,-4.6308,-4.6308,-4.6308,-4.6173,-4.6108,-4.6106,-4.5896,-4.5825,-4.5894,-4.5699,-4.5673,-4.5796,-4.5657,-4.5594,-4.5594,-4.5594,-4.5594,-4.5594,-4.5594,-4.5594,-4.5594,-4.5594,-4.5594,-4.5594,-4.5594,-4.5594,-4.5594,-4.5594,-4.5594,-4.5594,-4.5594,-4.5594,-4.5594,-4.5594,-4.5594,-4.5594,-4.5594,-4.5594,-4.5402,-4.4509,-4.4297,-4.4278,-4.4278,-4.3008,-4.1711,-4.1371,-4.0653,-3.9901,-3.9225,-3.9093,-3.9008,-3.8747,-3.8937,-3.9093,-3.9093,-3.9093,-3.9112,-3.9099,-3.8855,-3.8707,-3.8707,-3.7988,-3.718,-3.6358,-3.55,-3.4656,-3.3844,-3.3807,-3.3807,-3.3807,-3.3807,-3.3807,-3.3807,-3.3807,-3.3923,-3.42,-3.454,-3.4851,-3.5113,-3.5376,-3.55,-2.5799,-2.8457,-3.2077,-3.3044,-3.5802,-3.8957,-4.17,-4.1931,-4.2354,-4.5056,-4.5295,-4.4918,-4.4576,-4.4854,-4.5062,-4.4742,-4.5369,-4.5877,-4.5803,-4.5803,-4.5754,-4.562,-4.5764,-4.5867,-4.5867,-4.6082,-4.6246,-4.6246,-4.6289,-4.6308,-4.6308,-4.6308,-4.6267,-4.6152,-4.6117,-4.6021,-4.5885,-4.5828,-4.5809,-4.5832,-4.5669,-4.5673,-4.5796,-4.5657,-4.564,-4.574,-4.574,-4.574,-4.5725,-4.5643,-4.5594,-4.5594,-4.5594,-4.5594,-4.5594,-4.5594,-4.5594,-4.5594,-4.5594,-4.5594,-4.5594,-4.5594,-4.5594,-4.5594,-4.5594,-4.5594,-4.5594,-4.5594,-4.5171,-4.4624,-4.4374,-4.3431,-4.2547,-4.2547,-4.2154,-4.1539,-4.0654,-4.0272,-3.9982,-3.9541,-3.945,-3.9432,-3.9352,-3.9396,-3.945,-3.945,-3.9238,-3.9036,-3.8844,-3.8747,-3.8707,-3.8707,-3.7988,-3.718,-3.6358,-3.55,-3.4656,-3.3844,-3.3807,-3.3807,-3.3807,-3.3807,-3.3807,-3.3807,-3.3807,-3.4037,-3.4551,-3.4653,-3.4935,-3.5376,-3.5453,-3.55,-2.8777,-3.1507,-3.4891,-3.6547,-3.8488,-4.0746,-4.347,-4.4085,-4.4374,-4.5383,-4.5395,-4.5143,-4.4981,-4.5156,-4.5281,-4.5097,-4.5512,-4.583,-4.5733,-4.573,-4.5685,-4.5612,-4.5744,-4.5867,-4.5894,-4.6087,-4.6247,-4.6308,-4.6308,-4.6308,-4.6308,-4.6308,-4.6246,-4.6091,-4.6045,-4.5955,-4.5803,-4.5803,-4.5803,-4.5803,-4.5743,-4.5743,-4.5796,-4.5657,-4.5651,-4.573,-4.573,-4.573,-4.5715,-4.5627,-4.5594,-4.5594,-4.5594,-4.5594,-4.5594,-4.5594,-4.5594,-4.5594,-4.5594,-4.5594,-4.5594,-4.5594,-4.5594,-4.5594,-4.5594,-4.5594,-4.5594,-4.5594,-4.4979,-4.422,-4.3912,-4.2816,-4.1788,-4.1788,-4.1546,-4.1111,-4.0419,-4.025,-4.0177,-3.9851,-3.9797,-3.9765,-3.9622,-3.9701,-3.9797,-3.9797,-3.9498,-3.9157,-3.875,-3.8707,-3.8579,-3.8267,-3.7496,-3.6703,-3.5862,-3.5004,-3.4307,-3.3825,-3.3807,-3.3855,-3.3948,-3.3868,-3.3807,-3.3807,-3.3807,-3.4087,-3.4694,-3.4694,-3.4972,-3.55,-3.55,-3.55,-3.4244,-3.5828,-3.7837,-4.1767,-4.1296,-4.0881,-4.4729,-4.5594,-4.5594,-4.5594,-4.4979,-4.4662,-4.546,-4.5044,-4.4812,-4.5494,-4.57,-4.5733,-4.562,-4.5594,-4.5594,-4.5594,-4.5723,-4.5826,-4.589,-4.603,-4.6168,-4.6289,-4.6308,-4.6308,-4.6308,-4.6308,-4.6246,-4.6091,-4.5974,-4.5881,-4.5803,-4.5803,-4.5809,-4.5803,-4.5867,-4.5867,-4.5821,-4.5677,-4.5612,-4.5594,-4.5594,-4.5594,-4.5594,-4.5594,-4.5594,-4.5594,-4.5594,-4.5594,-4.5594,-4.5594,-4.5594,-4.5594,-4.5594,-4.5594,-4.5594,-4.5594,-4.5594,-4.5594,-4.5594,-4.5594,-4.5594,-4.5594,-4.4921,-4.4028,-4.3297,-4.2393,-4.1673,-4.1673,-4.1085,-4.0496,-4.0496,-4.0496,-4.0441,-4.0177,-4.0139,-4.0042,-3.9735,-3.9943,-4.012,-4.0052,-3.9797,-3.9389,-3.8795,-3.8634,-3.8303,-3.7584,-3.6707,-3.5862,-3.5078,-3.4266,-3.3807,-3.3807,-3.3815,-3.3948,-3.4188,-3.3961,-3.3842,-3.3842,-3.3868,-3.4148,-3.4694,-3.4714,-3.4999,-3.55,-3.55,-3.55,-2.9748,-3.3057,-3.7287,-3.9542,-4.2209,-4.4479,-4.5383,-4.5594,-4.5594,-4.5594,-4.546,-4.5383,-4.5575,-4.5475,-4.5415,-4.5565,-4.5618,-4.5627,-4.5603,-4.5594,-4.5594,-4.5594,-4.5723,-4.5826,-4.589,-4.603,-4.6168,-4.6289,-4.6308,-4.6308,-4.6308,-4.6308,-4.6246,-4.6091,-4.5974,-4.5881,-4.5803,-4.5803,-4.5826,-4.5881,-4.589,-4.5952,-4.604,-4.5844,-4.57,-4.5594,-4.5594,-4.5594,-4.5594,-4.5594,-4.5594,-4.5594,-4.5594,-4.5594,-4.5594,-4.5594,-4.5594,-4.5594,-4.5594,-4.5594,-4.5594,-4.5594,-4.5594,-4.5594,-4.5594,-4.5594,-4.5594,-4.5594,-4.4509,-4.3316,-4.3143,-4.195,-4.0785,-4.0785,-4.065,-4.0496,-4.0496,-4.0496,-4.0481,-4.0433,-4.0406,-4.0389,-4.0328,-4.0372,-4.0248,-3.9786,-3.9645,-3.9389,-3.8795,-3.8138,-3.7694,-3.7529,-3.6174,-3.5206,-3.5023,-3.4266,-3.3807,-3.3807,-3.4012,-3.4147,-3.4188,-3.4147,-3.4111,-3.4111,-3.4375,-3.4569,-3.4694,-3.4917,-3.519,-3.55,-3.55,-3.55,-3.1006,-3.4372,-3.8027,-4.095,-4.3671,-4.5594,-4.5594,-4.5594,-4.5594,-4.5594,-4.5594,-4.5594,-4.5594,-4.5594,-4.5594,-4.5594,-4.5594,-4.5594,-4.5594,-4.5594,-4.5594,-4.5594,-4.5657,-4.5757,-4.5881,-4.5951,-4.6084,-4.6289,-4.6308,-4.6268,-4.6202,-4.6201,-4.6145,-4.6001,-4.5915,-4.585,-4.5803,-4.5838,-4.5876,-4.5903,-4.6033,-4.605,-4.5995,-4.5853,-4.5737,-4.5594,-4.5594,-4.5594,-4.5594,-4.5594,-4.5594,-4.5594,-4.5594,-4.5594,-4.5594,-4.5594,-4.5594,-4.5594,-4.5594,-4.5594,-4.5594,-4.5594,-4.5594,-4.5594,-4.5594,-4.5594,-4.5518,-4.5094,-4.4066,-4.3008,-4.2585,-4.1489,-4.0496,-4.0496,-4.0496,-4.0496,-4.0496,-4.0496,-4.0496,-4.0496,-4.0496,-4.0496,-4.0496,-4.0389,-4.0148,-3.9668,-3.945,-3.9197,-3.8765,-3.7991,-3.7345,-3.6978,-3.5771,-3.4908,-3.4639,-3.4239,-3.4062,-3.4232,-3.4364,-3.45,-3.4626,-3.4636,-3.4574,-3.4434,-3.4603,-3.4754,-3.4898,-3.5025,-3.5231,-3.55,-3.55,-3.55,-3.2404,-3.5712,-3.8796,-4.3028,-4.4855,-4.5594,-4.5594,-4.5594,-4.5594,-4.5594,-4.5594,-4.5594,-4.5594,-4.5594,-4.5594,-4.5594,-4.5594,-4.5594,-4.5594,-4.5594,-4.5594,-4.5594,-4.5594,-4.5673,-4.5867,-4.5886,-4.5974,-4.6203,-4.6225,-4.6177,-4.6077,-4.6072,-4.603,-4.5932,-4.5842,-4.5816,-4.5821,-4.5867,-4.5899,-4.5903,-4.6147,-4.6138,-4.5886,-4.5826,-4.5737,-4.5594,-4.5594,-4.5594,-4.5594,-4.5594,-4.5594,-4.5594,-4.5594,-4.5594,-4.5594,-4.5594,-4.5594,-4.5594,-4.5594,-4.5594,-4.5594,-4.5594,-4.5594,-4.5575,-4.5421,-4.5383,-4.521,-4.4335,-4.3508,-4.272,-4.1981,-4.1143,-4.0496,-4.0496,-4.0496,-4.0496,-4.0496,-4.0496,-4.0496,-4.0496,-4.0496,-4.0496,-4.0496,-4.0286,-3.9992,-3.9645,-3.9314,-3.8957,-3.8551,-3.7804,-3.6978,-3.6156,-3.5354,-3.4674,-3.425,-3.4246,-3.4401,-3.4684,-3.4734,-3.4879,-3.5096,-3.5138,-3.5051,-3.4832,-3.4851,-3.4926,-3.5105,-3.5157,-3.5289,-3.55,-3.55,-3.55,-2.6442,-3.1654,-3.7911,-4.2181,-4.4432,-4.5594,-4.5594,-4.5594,-4.5594,-4.5594,-4.5594,-4.5594,-4.5594,-4.5594,-4.5594,-4.5594,-4.5594,-4.5594,-4.5594,-4.5594,-4.5594,-4.5594,-4.5594,-4.5657,-4.5796,-4.5815,-4.5847,-4.5955,-4.5944,-4.5955,-4.5924,-4.5924,-4.5978,-4.6075,-4.5896,-4.5832,-4.5896,-4.5894,-4.5899,-4.5903,-4.6047,-4.6027,-4.5815,-4.579,-4.5737,-4.5594,-4.5594,-4.5594,-4.5594,-4.5594,-4.5594,-4.5594,-4.5594,-4.5594,-4.5594,-4.5594,-4.5594,-4.5594,-4.5594,-4.5594,-4.5594,-4.5594,-4.5594,-4.546,-4.4701,-4.447,-4.4297,-4.3489,-4.2643,-4.1942,-4.1827,-4.1143,-4.0496,-4.0496,-4.0496,-4.0496,-4.0496,-4.0496,-4.0496,-4.0496,-4.0496,-4.0496,-4.0496,-4.0286,-3.9992,-3.9645,-3.9314,-3.8753,-3.7776,-3.696,-3.6138,-3.5261,-3.4659,-3.4282,-3.4206,-3.4475,-3.4653,-3.4694,-3.4926,-3.507,-3.5096,-3.532,-3.5432,-3.5391,-3.5383,-3.5297,-3.5105,-3.5327,-3.546,-3.55,-3.55,-3.55,-2.8269,-3.3038,-3.7827,-4.2585,-4.4335,-4.4998,-4.5498,-4.5594,-4.5594,-4.5594,-4.5594,-4.5594,-4.5594,-4.5594,-4.5594,-4.5594,-4.5594,-4.5594,-4.5594,-4.5594,-4.5594,-4.5594,-4.5594,-4.564,-4.5783,-4.5803,-4.5832,-4.589,-4.5899,-4.5872,-4.5853,-4.5847,-4.5875,-4.5935,-4.5764,-4.5735,-4.5847,-4.5886,-4.5932,-4.6005,-4.5992,-4.5944,-4.585,-4.5821,-4.5737,-4.5594,-4.5594,-4.5594,-4.5594,-4.5594,-4.5594,-4.5594,-4.5594,-4.5594,-4.5594,-4.5594,-4.5594,-4.5594,-4.5594,-4.5594,-4.5594,-4.5594,-4.5594,-4.5441,-4.4566,-4.4297,-4.4028,-4.2739,-4.2104,-4.17,-4.12,-4.0785,-4.0496,-4.0496,-4.0496,-4.0496,-4.0496,-4.0496,-4.0496,-4.0496,-4.0496,-4.0496,-4.0496,-4.012,-3.9775,-3.9622,-3.9189,-3.8549,-3.7632,-3.6813,-3.5973,-3.5096,-3.44,-3.4117,-3.4464,-3.4622,-3.4841,-3.5122,-3.5266,-3.532,-3.532,-3.5439,-3.55,-3.55,-3.55,-3.5439,-3.532,-3.5439,-3.55,-3.55,-3.55,-3.5231,-2.8602,-3.2199,-3.5173,-4.0931,-4.2854,-4.3662,-4.4979,-4.5441,-4.5594,-4.5594,-4.5594,-4.5594,-4.5594,-4.5594,-4.5594,-4.5594,-4.5594,-4.5594,-4.5594,-4.5594,-4.5594,-4.5594,-4.5594,-4.5643,-4.574,-4.5747,-4.577,-4.5814,-4.582,-4.5807,-4.5761,-4.5747,-4.5756,-4.5796,-4.5673,-4.5665,-4.5796,-4.5839,-4.5935,-4.6045,-4.5959,-4.5899,-4.5899,-4.5859,-4.575,-4.566,-4.562,-4.5594,-4.5594,-4.5594,-4.5594,-4.5594,-4.5594,-4.5594,-4.5594,-4.5594,-4.5594,-4.5594,-4.5594,-4.5594,-4.5594,-4.5594,-4.5594,-4.5402,-4.4316,-4.3989,-4.3643,-4.195,-4.147,-4.1316,-4.0669,-4.0496,-4.0496,-4.0496,-4.0496,-4.0496,-4.0496,-4.0496,-4.0496,-4.0496,-4.0496,-4.0496,-4.0496,-4.0082,-3.9709,-3.9611,-3.9136,-3.8405,-3.7342,-3.6684,-3.5881,-3.4802,-3.4218,-3.4123,-3.4653,-3.4754,-3.4999,-3.546,-3.55,-3.55,-3.55,-3.55,-3.55,-3.55,-3.55,-3.55,-3.55,-3.55,-3.55,-3.5481,-3.5269,-3.4814,-2.3129,-2.5216,-2.7692,-3.5212,-3.8911,-4.1343,-4.3816,-4.5017,-4.5594,-4.5594,-4.5594,-4.5594,-4.5594,-4.5594,-4.5594,-4.5594,-4.5594,-4.5594,-4.5594,-4.5594,-4.5594,-4.5594,-4.5594,-4.5594,-4.5612,-4.5612,-4.5612,-4.5629,-4.5629,-4.5601,-4.5612,-4.5612,-4.5665,-4.5796,-4.5673,-4.5665,-4.5796,-4.5809,-4.5836,-4.5907,-4.5903,-4.5899,-4.5899,-4.5894,-4.5861,-4.5776,-4.5668,-4.5594,-4.5594,-4.5594,-4.5594,-4.5594,-4.5594,-4.5594,-4.5594,-4.5594,-4.5594,-4.5594,-4.5594,-4.5594,-4.5594,-4.5594,-4.5594,-4.5306,-4.3662,-4.3162,-4.2797,-4.1054,-4.0573,-4.0554,-4.0516,-4.0496,-4.0496,-4.0496,-4.0496,-4.0496,-4.0496,-4.0496,-4.0496,-4.0496,-4.0496,-4.0496,-4.0496,-4.0258,-3.9972,-3.9645,-3.9289,-3.8423,-3.6599,-3.6321,-3.5661,-3.4045,-3.4037,-3.4323,-3.4674,-3.4935,-3.5198,-3.5486,-3.55,-3.55,-3.55,-3.55,-3.55,-3.55,-3.55,-3.55,-3.55,-3.55,-3.55,-3.5481,-3.4641,-3.4244,-2.2162,-2.4255,-2.6615,-3.2115,-3.5795,-3.8738,-4.1285,-4.3382,-4.4913,-4.5479,-4.5594,-4.5594,-4.5594,-4.5594,-4.5594,-4.5594,-4.5594,-4.5594,-4.5594,-4.5594,-4.5594,-4.5594,-4.5594,-4.5594,-4.5594,-4.5594,-4.5594,-4.5594,-4.5594,-4.5594,-4.5594,-4.5594,-4.561,-4.5673,-4.5637,-4.5665,-4.5796,-4.5803,-4.5825,-4.5899,-4.5899,-4.5955,-4.603,-4.5932,-4.5935,-4.5998,-4.5855,-4.5722,-4.5594,-4.5594,-4.5594,-4.5594,-4.5594,-4.5594,-4.5594,-4.5594,-4.5594,-4.5594,-4.5594,-4.5594,-4.5594,-4.5594,-4.5229,-4.4547,-4.3431,-4.272,-4.2027,-4.0823,-4.0496,-4.0496,-4.0496,-4.0496,-4.0496,-4.0496,-4.0496,-4.0496,-4.0496,-4.0496,-4.0496,-4.0496,-4.0496,-4.0496,-4.0496,-4.0286,-3.9992,-3.9645,-3.9314,-3.8419,-3.6544,-3.6303,-3.5661,-3.3972,-3.4043,-3.4345,-3.4674,-3.4944,-3.5215,-3.5486,-3.55,-3.55,-3.55,-3.55,-3.55,-3.55,-3.4949,-3.4949,-3.55,-3.55,-3.5212,-3.4661,-3.4359,-3.3628,-2.0065,-2.1908,-2.4351,-2.9217,-3.1891,-3.4661,-3.9777,-4.1816,-4.3181,-4.519,-4.5594,-4.5594,-4.5594,-4.5594,-4.5594,-4.5594,-4.5594,-4.5594,-4.5594,-4.5594,-4.5594,-4.5594,-4.5594,-4.5594,-4.5594,-4.5594,-4.5594,-4.5594,-4.5594,-4.5594,-4.5594,-4.5594,-4.5594,-4.5594,-4.5594,-4.5643,-4.5725,-4.5789,-4.5825,-4.5899,-4.5955,-4.6039,-4.6152,-4.6077,-4.6069,-4.6106,-4.6018,-4.5862,-4.5706,-4.5706,-4.5706,-4.5706,-4.5706,-4.5706,-4.5699,-4.5669,-4.5665,-4.5657,-4.562,-4.5421,-4.5171,-4.5171,-4.4586,-4.3739,-4.2912,-4.2258,-4.1623,-4.0746,-4.0496,-4.0496,-4.0496,-4.0496,-4.0496,-4.0496,-4.0496,-4.0496,-4.0496,-4.0496,-4.0496,-4.0496,-4.0496,-4.0496,-4.0496,-4.0356,-4.0024,-3.9429,-3.9079,-3.8176,-3.6283,-3.6025,-3.5491,-3.407,-3.4183,-3.4489,-3.4803,-3.499,-3.5215,-3.5486,-3.55,-3.55,-3.55,-3.55,-3.55,-3.55,-3.4641,-3.4468,-3.5064,-3.4769,-3.4334,-3.3763,-3.3487,-3.2602,0.0,0.0,0.0,-2.6183,-2.7063,-2.9102,-3.9115,-4.0162,-4.0265,-4.4556,-4.5441,-4.546,-4.5575,-4.5594,-4.5594,-4.5594,-4.5594,-4.5594,-4.5594,-4.5594,-4.5594,-4.5594,-4.5594,-4.5594,-4.5594,-4.5594,-4.5594,-4.5594,-4.5594,-4.5594,-4.5594,-4.5594,-4.5594,-4.5594,-4.5594,-4.5594,-4.5603,-4.5733,-4.583,-4.5907,-4.6042,-4.6174,-4.6308,-4.6308,-4.6225,-4.611,-4.611,-4.6036,-4.5912,-4.5903,-4.5899,-4.5899,-4.5899,-4.5899,-4.5885,-4.5826,-4.5809,-4.5783,-4.5648,-4.5045,-4.4306,-4.4306,-4.3748,-4.2893,-4.2066,-4.1769,-4.1585,-4.0746,-4.0496,-4.0496,-4.0496,-4.0496,-4.0496,-4.0496,-4.0496,-4.0496,-4.0496,-4.0477,-4.0477,-4.0496,-4.0496,-4.0496,-4.0496,-4.0477,-4.009,-3.8975,-3.8567,-3.7672,-3.5769,-3.5516,-3.518,-3.4305,-3.4518,-3.4832,-3.5079,-3.5105,-3.5223,-3.5486,-3.55,-3.55,-3.55,-3.55,-3.5481,-3.5462,-3.4603,-3.4148,-3.4129,-3.3295,-3.2891,-3.2852,-3.2045,-3.1212,-1.666,0.0,0.0,0.0,0.0,0.0,-3.0544,-3.2314,-3.4584,-4.0669,-4.1458,-4.1978,-4.5037,-4.5594,-4.5594,-4.5594,-4.5594,-4.5594,-4.5594,-4.5594,-4.5594,-4.5594,-4.5594,-4.5594,-4.5594,-4.5594,-4.5594,-4.5594,-4.5594,-4.5594,-4.5594,-4.5594,-4.5594,-4.5594,-4.5594,-4.5651,-4.574,-4.5836,-4.5931,-4.6045,-4.6175,-4.6268,-4.6308,-4.6308,-4.6289,-4.6247,-4.6247,-4.6224,-4.6174,-4.5981,-4.5899,-4.5899,-4.5899,-4.5899,-4.5894,-4.5881,-4.5867,-4.5862,-4.5825,-4.5214,-4.4432,-4.4432,-4.3404,-4.2104,-4.1865,-4.1354,-4.0804,-4.0573,-4.0496,-4.0496,-4.0496,-4.0496,-4.0496,-4.0496,-4.0496,-4.0496,-4.0496,-4.0035,-3.9804,-4.04,-4.0496,-4.0496,-4.0496,-4.0015,-3.9437,-3.888,-3.8194,-3.7259,-3.5956,-3.5791,-3.5472,-3.4655,-3.4822,-3.5016,-3.5096,-3.5281,-3.5424,-3.55,-3.55,-3.55,-3.55,-3.55,-3.5192,-3.4564,-3.3699,-3.2968,-3.2391,-3.2737,-3.2602,-3.2006,-3.1154,-3.0635,-1.7865,-1.8769,-2.0212,-2.0954,0.0,0.0,-2.9987,-3.1256,-3.3179,-4.1016,-4.2247,-4.2689,-4.5152,-4.5594,-4.5594,-4.5594,-4.5594,-4.5594,-4.5594,-4.5594,-4.5594,-4.5594,-4.5594,-4.5594,-4.5594,-4.5594,-4.5594,-4.5594,-4.5594,-4.5594,-4.5594,-4.5594,-4.5594,-4.5594,-4.5594,-4.5635,-4.5723,-4.5845,-4.5932,-4.6027,-4.6202,-4.6308,-4.6308,-4.6308,-4.6308,-4.6308,-4.6308,-4.6308,-4.6289,-4.612,-4.6075,-4.6075,-4.6075,-4.6075,-4.605,-4.5998,-4.5985,-4.5919,-4.5546,-4.4803,-4.3979,-4.3624,-4.2534,-4.1371,-4.1371,-4.1029,-4.0629,-4.0629,-4.0629,-4.0629,-4.0629,-4.0591,-4.0575,-4.0575,-4.0537,-4.0419,-4.0073,-3.9631,-3.9438,-3.9919,-3.9708,-3.9457,-3.9457,-3.9065,-3.8566,-3.8,-3.7408,-3.6652,-3.5695,-3.5561,-3.5391,-3.4908,-3.5105,-3.5273,-3.5273,-3.5417,-3.55,-3.55,-3.55,-3.55,-3.55,-3.5154,-3.4718,-3.4205,-3.3006,-3.1987,-3.1154,-3.1641,-3.1621,-3.1154,-3.0635,-3.0404,-1.9785,0.0,0.0,-2.3336,-2.1523,0.0,-3.2385,-3.2564,-3.3026,-4.1708,-4.3498,-4.3632,-4.4094,-4.4267,-4.4306,-4.4209,-4.4671,-4.5171,-4.5556,-4.5594,-4.5594,-4.5594,-4.5594,-4.5594,-4.5594,-4.5594,-4.5594,-4.5594,-4.5594,-4.5594,-4.5594,-4.5594,-4.5594,-4.5594,-4.5594,-4.562,-4.5632,-4.5803,-4.5912,-4.5959,-4.6196,-4.6308,-4.6308,-4.6308,-4.6308,-4.6308,-4.6308,-4.6308,-4.6308,-4.6308,-4.6308,-4.6308,-4.6308,-4.6308,-4.6289,-4.6171,-4.6119,-4.5993,-4.5066,-4.4153,-4.3269,-4.2408,-4.1525,-4.0797,-4.0797,-4.0797,-4.0797,-4.0797,-4.0797,-4.0797,-4.0797,-4.0762,-4.0707,-4.0707,-4.0546,-4.018,-3.9468,-3.916,-3.9025,-3.9025,-3.8464,-3.8007,-3.8007,-3.7911,-3.7584,-3.6808,-3.6415,-3.5948,-3.5234,-3.5138,-3.5138,-3.5138,-3.5361,-3.55,-3.55,-3.55,-3.55,-3.55,-3.55,-3.55,-3.55,-3.4661,-3.4148,-3.4071,-3.241,-3.1173,-3.0404,-3.0404,-3.0404,-3.0404,-3.0404,-3.0404,-2.1846,-2.1754,-2.2293,-2.1293,-2.1543,0.0,-2.2393,-2.2985,-2.4793,-2.9352,-3.0314,-3.1352,-3.4757,-3.5956,-3.6187,-3.5488,-3.8823,-4.2459,-4.521,-4.5594,-4.5594,-4.5594,-4.5594,-4.5594,-4.5594,-4.5594,-4.5594,-4.5594,-4.5594,-4.5594,-4.5594,-4.5594,-4.5594,-4.5594,-4.5594,-4.5681,-4.5841,-4.5876,-4.6001,-4.6224,-4.6269,-4.6308,-4.6308,-4.6308,-4.6308,-4.6308,-4.6308,-4.6308,-4.6308,-4.6308,-4.6308,-4.6308,-4.6308,-4.6308,-4.6308,-4.6268,-4.6268,-4.6131,-4.5249,-4.4333,-4.3422,-4.2542,-4.1604,-4.0797,-4.0797,-4.0797,-4.0797,-4.0797,-4.0797,-4.0797,-4.0797,-4.0781,-4.0784,-4.0784,-4.0169,-3.9565,-3.941,-3.8315,-3.7361,-3.7361,-3.77,-3.8007,-3.8007,-3.743,-3.6904,-3.6731,-3.6106,-3.5597,-3.5444,-3.5424,-3.5424,-3.5424,-3.5479,-3.55,-3.55,-3.55,-3.55,-3.55,-3.55,-3.55,-3.55,-3.4661,-3.3878,-3.316,-3.15,-3.0577,-3.0404,-3.0404,-3.0404,-3.0404,-3.0404,-3.0404,-2.3832,-2.3408,-2.3851,-2.3,-2.2466,0.0,0.0,-2.3697,-2.4731,-2.9429,-2.9737,-2.991,-3.2449,-3.2929,-3.2929,-3.291,-3.6469,-3.9419,-3.9842,-4.3209,-4.5594,-4.5594,-4.5594,-4.5594,-4.5594,-4.5594,-4.5594,-4.5594,-4.5594,-4.5594,-4.5594,-4.5594,-4.5594,-4.5594,-4.5594,-4.5673,-4.5859,-4.5891,-4.5995,-4.62,-4.6268,-4.6308,-4.6308,-4.6308,-4.6308,-4.6308,-4.6308,-4.6308,-4.6308,-4.6308,-4.6308,-4.6308,-4.6308,-4.6308,-4.6308,-4.6308,-4.6308,-4.6113,-4.4805,-4.4041,-4.3448,-4.2177,-4.1405,-4.0996,-4.0996,-4.0996,-4.0996,-4.0996,-4.0996,-4.0996,-4.0996,-4.0955,-4.0908,-4.0908,-4.0175,-3.9374,-3.8947,-3.7855,-3.6822,-3.6399,-3.66,-3.6842,-3.6799,-3.6408,-3.6096,-3.6096,-3.575,-3.55,-3.55,-3.55,-3.55,-3.55,-3.55,-3.55,-3.55,-3.55,-3.55,-3.55,-3.55,-3.55,-3.55,-3.4257,-3.2949,-3.1673,-3.0827,-3.0404,-3.0404,-3.0404,-3.0404,-3.0404,-3.0404,-3.0404,-2.6068,-2.5543,-2.6096,-2.5269,-2.4005,-2.3697,0.0,0.0,0.0,-3.0377,-3.0333,-2.9698,-3.0352,-2.9948,-2.966,-3.014,-3.3353,-3.5026,-3.2795,-3.8515,-4.3036,-4.3363,-4.4421,-4.4998,-4.4652,-4.4325,-4.4536,-4.5537,-4.469,-4.4556,-4.5556,-4.5594,-4.5594,-4.5594,-4.5594,-4.5661,-4.5828,-4.5872,-4.5981,-4.6144,-4.6247,-4.6308,-4.6308,-4.6308,-4.6308,-4.6308,-4.6308,-4.6308,-4.6308,-4.6308,-4.6308,-4.6308,-4.6308,-4.6308,-4.6308,-4.6308,-4.6191,-4.582,-4.4258,-4.3594,-4.3203,-4.1699,-4.1191,-4.1191,-4.1191,-4.1191,-4.1191,-4.1191,-4.1191,-4.1191,-4.1191,-4.1126,-4.1049,-4.1049,-4.0184,-3.9188,-3.8471,-3.7514,-3.6576,-3.5885,-3.5749,-3.5716,-3.5616,-3.5564,-3.5502,-3.5507,-3.55,-3.55,-3.55,-3.55,-3.55,-3.55,-3.55,-3.55,-3.55,-3.55,-3.55,-3.55,-3.55,-3.5423,-3.525,-3.3583,-3.1948,-3.0423,-3.0404,-3.0404,-3.0404,-3.0404,-3.0404,-3.0404,-3.0404,-3.0404,-2.9025,-2.8621,-2.8923,-2.5164,-2.6241,-2.6818,-2.1385,0.0,-2.2643,-2.1051,0.0,-2.1615,-2.1712,0.0,0.0,-2.0688,-2.4692,-2.7525,-2.6462,-3.0333,-3.3833,-3.5321,-4.0162,-4.2777,-4.1227,-3.9738,-4.0739,-4.5267,-4.1412,-4.0835,-4.5364,-4.5594,-4.5594,-4.5594,-4.5594,-4.5691,-4.5896,-4.5894,-4.6033,-4.6289,-4.6289,-4.6308,-4.6308,-4.6308,-4.6308,-4.6308,-4.6308,-4.6308,-4.6308,-4.6308,-4.6308,-4.6308,-4.6308,-4.6308,-4.6308,-4.6308,-4.5801,-4.5019,-4.4043,-4.3183,-4.2402,-4.1484,-4.1191,-4.1191,-4.1191,-4.1191,-4.1191,-4.1191,-4.1191,-4.1191,-4.1191,-4.1191,-4.1171,-4.1171,-3.981,-3.8512,-3.8415,-3.7145,-3.599,-3.5894,-3.5875,-3.5819,-3.5631,-3.5595,-3.5579,-3.5508,-3.55,-3.55,-3.55,-3.55,-3.55,-3.55,-3.55,-3.55,-3.55,-3.55,-3.55,-3.55,-3.55,-3.5154,-3.4379,-3.2737,-3.1385,-3.0423,-3.0404,-3.0404,-3.0404,-3.0404,-3.0404,-3.0404,-3.0404,-3.0404,-2.9102,-2.9486,-3.025,-2.6486,-2.6991,-2.7145,-2.2312,-2.1273,-2.1177,-2.0566,0.0,0.0,0.0,0.0,0.0,0.0,-2.2043,-2.3562,-2.1216,-2.5428,-2.991,-3.3064,-3.5238,-3.7161,-3.8873,-3.7969,-3.9161,-4.3797,-4.0335,-4.0008,-4.4605,-4.5325,-4.5594,-4.5594,-4.568,-4.577,-4.5899,-4.5981,-4.6115,-4.6308,-4.6308,-4.6308,-4.6308,-4.6308,-4.6308,-4.6308,-4.6308,-4.6308,-4.6308,-4.6308,-4.6308,-4.6308,-4.6308,-4.6308,-4.6308,-4.6308,-4.6074,-4.5566,-4.418,-4.3457,-4.2949,-4.1621,-4.1191,-4.1191,-4.1191,-4.1191,-4.1191,-4.1191,-4.1191,-4.1191,-4.1191,-4.1191,-4.1191,-4.1191,-3.9823,-3.8529,-3.8529,-3.7161,-3.5951,-3.5951,-3.5951,-3.5919,-3.58,-3.5685,-3.559,-3.5562,-3.5528,-3.55,-3.55,-3.55,-3.55,-3.55,-3.55,-3.55,-3.55,-3.55,-3.55,-3.55,-3.55,-3.4885,-3.3506,-3.2776,-3.1775,-3.0423,-3.0404,-3.0404,-3.0404,-3.0404,-3.0404,-3.0404,-3.0404,-3.0404,-3.1025,-3.1333,-3.1698,-2.7327,-2.6909,-2.6582,-2.2947,-2.1716,-2.137,-2.1485,-2.1081,0.0,0.0,0.0,0.0,0.0,0.0,-2.0735,-1.7776,-2.11,-2.5139,-2.8659,-2.9813,-3.1775,-3.5545,-3.4083,-3.5238,-4.0931,-3.7757,-3.8123,-4.3989,-4.4893,-4.5344,-4.5594,-4.5725,-4.5819,-4.5899,-4.6036,-4.6173,-4.6308,-4.6308,-4.6308,-4.6308,-4.6308,-4.6308,-4.6308,-4.6308,-4.6308,-4.6308,-4.6308,-4.6308,-4.6308,-4.6308,-4.6308,-4.6308,-4.6308,-4.6152,-4.5762,-4.4492,-4.373,-4.3105,-4.168,-4.1191,-4.1191,-4.1191,-4.1191,-4.1191,-4.1191,-4.1191,-4.1191,-4.1191,-4.1191,-4.1191,-4.1191,-4.0059,-3.8887,-3.8652,-3.7422,-3.6289,-3.6055,-3.5996,-3.5976,-3.5942,-3.578,-3.5648,-3.5601,-3.5556,-3.5515,-3.5507,-3.55,-3.55,-3.55,-3.55,-3.55,-3.55,-3.55,-3.55,-3.55,-3.5058,-3.4212,-3.2949,-3.2468,-3.1635,-3.0423,-3.0404,-3.0404,-3.0404,-3.0404,-3.0404,-3.0404,-3.0404,-3.0404,-3.6635,-3.5327,-3.3769,-2.7019,-2.6,-2.5543,-2.1346,-2.2259,-2.3509,-2.1831,-2.3423,-2.4615,-2.3004,0.0,0.0,0.0,0.0,0.0,0.0,-1.6696,-1.7487,-1.9242,-2.3778,0.0,-3.0385,-2.6159,-2.7044,-3.6212,-3.2237,-3.3744,-4.3758,-4.4335,-4.472,-4.5575,-4.5725,-4.5819,-4.5899,-4.6036,-4.6173,-4.6308,-4.6308,-4.6308,-4.6308,-4.6308,-4.6308,-4.6308,-4.6308,-4.6308,-4.6308,-4.6308,-4.6308,-4.6308,-4.6308,-4.6308,-4.6308,-4.6308,-4.5762,-4.5039,-4.498,-4.3848,-4.2305,-4.1465,-4.1191,-4.1191,-4.1191,-4.1191,-4.1191,-4.1191,-4.1191,-4.1191,-4.1191,-4.1191,-4.1191,-4.1191,-4.0508,-3.9629,-3.8789,-3.7891,-3.7012,-3.6152,-3.5996,-3.5996,-3.5996,-3.5944,-3.5819,-3.5626,-3.5605,-3.5571,-3.5501,-3.55,-3.55,-3.55,-3.55,-3.55,-3.55,-3.55,-3.55,-3.55,-3.393,-3.2968,-3.2891,-3.1346,-3.0442,-3.0404,-3.0404,-3.0404,-3.0404,-3.0404,-3.0404,-3.0404,-3.0404,-3.0404,-3.8623,-3.9258,-3.8757,-3.1385,-3.016,-2.9217,-2.3293,-2.3067,-2.3605,-2.187,-2.3538,-2.4788,-2.3101,0.0,0.0,0.0,0.0,0.0,0.0,0.0,-1.4602,0.0,0.0,0.0,0.0,0.0,-2.8992,-3.3814,-3.366,-3.6065,-4.2316,-4.3701,-4.4432,-4.472,-4.5435,-4.5819,-4.5899,-4.6036,-4.6173,-4.6308,-4.6308,-4.6308,-4.6308,-4.6308,-4.6308,-4.6308,-4.6308,-4.6308,-4.6308,-4.6308,-4.6308,-4.6308,-4.6308,-4.6308,-4.6308,-4.6308,-4.6113,-4.5703,-4.4531,-4.3379,-4.2266,-4.1465,-4.1191,-4.1191,-4.1191,-4.1191,-4.1191,-4.1191,-4.1191,-4.1191,-4.1191,-4.1191,-4.1191,-4.1191,-4.0527,-3.9824,-3.9512,-3.8789,-3.7891,-3.7031,-3.6855,-3.668,-3.6094,-3.5975,-3.5923,-3.5816,-3.5716,-3.5633,-3.5571,-3.5574,-3.5552,-3.5494,-3.55,-3.55,-3.55,-3.55,-3.55,-3.55,-3.441,-3.3506,-3.291,-3.1833,-3.0981,-3.0404,-3.0404,-3.0404,-3.0404,-3.0404,-3.0404,-3.0404,-3.0404,-3.0404,-4.1554,-4.2066,-4.1489,-3.4737,-3.3449,-3.2218,-2.6029,-2.576,-2.6318,-2.4562,-2.5274,-2.6447,-2.7178,-2.4639,0.0,0.0,0.0,0.0,0.0,-1.3926,0.0,0.0,0.0,0.0,0.0,0.0,0.0,0.0,0.0,0.0,0.0,-4.3124,-4.3989,-4.4297,-4.5305,-4.5855,-4.5899,-4.608,-4.6203,-4.6308,-4.6308,-4.6308,-4.6308,-4.6308,-4.6308,-4.6308,-4.6308,-4.6308,-4.6308,-4.6308,-4.6308,-4.6308,-4.6308,-4.6308,-4.6308,-4.6308,-4.6308,-4.6055,-4.4297,-4.332,-4.2676,-4.1501,-4.1128,-4.1126,-4.1077,-4.1054,-4.1054,-4.1054,-4.1082,-4.1128,-4.1128,-4.1151,-4.1191,-4.1191,-4.0762,-4.0273,-3.9961,-3.9453,-3.8711,-3.7539,-3.7305,-3.7012,-3.6152,-3.5996,-3.5975,-3.5908,-3.5834,-3.5739,-3.5657,-3.5639,-3.5611,-3.5534,-3.5534,-3.5534,-3.5507,-3.55,-3.55,-3.55,-3.4391,-3.3487,-3.291,-3.1833,-3.1115,-3.0865,-3.0558,-3.0558,-3.0865,-3.0558,-3.0404,-3.0404,-3.0404,-3.0404]},{"header":{"parameterUnit":"m.s-1","parameterCategory":1,"la1":30.6,"la2":29.2853,"lo1":-89.7004,"lo2":-87.6739,"dx":0.0162,"dy":0.0183,"nx":112,"ny":82,"refTime":"2022-12-05T18:00:00:Z","depth":0,"parameterNumber":3,"parameterNumberName":"V-component_of_WINDS"},"data":[0.0,0.0,0.0,0.0,0.0,0.0,0.0,0.0,0.0,0.0,0.0,0.0,0.0,0.0,0.0,0.0,0.0,0.0,0.0,0.0,0.0,0.0,0.0,0.0,0.0,0.0,0.0,0.0,0.0,0.0,0.0,0.0,0.0,0.0,0.0,0.0,0.0,0.0,0.0,0.0,0.0,0.0,0.0,0.0,0.0,0.0,0.0,0.0,0.0,0.0,0.0,0.0,0.0,0.0,0.0,0.0,0.0,0.0,0.0,0.0,0.0,0.0,0.0,0.0,0.0,0.0,0.0,0.0,0.0,0.0,0.0,0.0,0.0,0.0,0.0,0.0,0.0,0.0,0.0,0.0,0.0,0.0,0.0,0.0,0.0,0.0,0.0,0.0,0.0,0.0,0.3077,0.3259,0.3701,0.4048,0.4217,0.6278,0.6925,0.5395,0.0,0.0,0.0,0.0,0.0,0.0,0.0,0.0,0.0,0.0,0.0,0.0,0.0,0.0,0.0,0.0,0.0,0.0,0.0,0.0,0.0,0.0,0.0,0.0,0.0,0.0,0.0,0.0,0.0,0.0,0.0,0.0,0.0,0.0,0.0,0.0,0.0,0.0,0.0,0.0,0.0,0.0,0.0,0.0,0.0,0.0,0.0,0.0,0.0,0.0,0.0,0.0,0.0,0.0,0.0,0.0,0.0,0.0,0.0,0.0,0.0,0.0,0.0,0.0,0.0,0.0,0.0,0.0,0.0,0.0,0.0,0.0,0.0,0.0,0.0,0.0,0.0,0.0,0.0,0.0,0.0,0.0,0.0,0.0,0.0,0.0,0.0,0.0,0.0,0.0,0.0,0.0,0.0,0.0,0.0,0.0,0.0,0.0,0.0,0.0,0.0,0.0,0.0,0.0,0.3893,0.492,0.4396,0.4317,0.5123,0.6861,0.718,0.5417,0.0,0.0,0.0,0.0,0.0,0.0,0.0,0.0,0.0,0.0,0.0,0.0,0.0,0.0,0.0,0.0,0.0,0.0,0.0,0.0,0.0,0.0,0.0,0.0,0.0,0.0,0.0,0.0,0.0,0.0,0.0,0.0,0.0,0.0,0.0,0.0,0.0,0.0,0.0,0.0,0.0,0.0,0.0,0.0,0.0,0.0,0.0,0.0,0.0,0.0,0.0,0.0,0.0,0.0,0.0,0.0,0.0,0.0,0.0,0.0,0.0,0.0,0.0,0.0,0.0,0.0,0.0,0.0,0.0,0.0,0.0,0.0,0.0,0.0,0.0,0.0,0.0,0.0,0.0,0.0,0.0,0.0,0.0,0.0,0.0,0.0,0.0,0.0,0.0,0.0,0.0,0.0,0.0,0.0,0.0,0.0,0.0,0.0,0.0,0.0,0.0,0.0,0.0,0.3792,0.4338,0.5409,0.5138,0.5036,0.5484,0.7116,0.7258,0.522,0.6174,0.0,0.0,0.0,0.0,0.0,0.0,0.0,0.0,0.0,0.0,0.0,0.0,0.0,0.0,0.0,0.0,0.0,0.0,0.0,0.0,0.0,0.0,0.0,0.0,0.0,0.0,0.0,0.0,0.0,0.0,0.0,0.0,0.0,0.0,0.0,0.0,0.0,0.0,0.0,0.0,0.0,0.0,0.0,0.0,0.0,0.0,0.0,0.0,0.0,0.0,0.0,0.0,0.0,0.0,0.0,0.0,0.0,0.0,0.0,0.0,0.0,0.0,0.0,0.0,0.0,0.0,0.0,0.0,0.0,0.0,0.0,0.0,0.0,0.0,0.0,0.0,0.0,0.0,0.0,0.0,0.0,0.0,0.0,0.0,0.0,0.0,0.0,0.0,0.0,0.0,0.0,0.0,0.0,0.0,0.0,0.0,0.0,0.0,0.0,0.0,0.0,0.0,0.4341,0.4796,0.5515,0.562,0.564,0.564,0.7211,0.728,0.5085,0.6249,0.0,0.0,0.0,0.0,0.0,0.0,0.0,0.0,0.0,0.0,0.0,0.0,0.0,0.0,0.0,0.0,0.0,0.0,0.0,0.0,0.0,0.0,0.0,0.0,0.0,0.0,0.0,0.0,0.0,0.0,0.0,0.0,0.0,0.0,0.0,0.0,0.0,0.0,0.0,0.0,0.0,0.0,0.0,0.0,0.0,0.0,0.0,0.0,0.0,0.0,0.0,0.0,0.0,0.0,0.0,0.0,0.0,0.0,0.0,0.0,0.0,0.0,0.0,0.0,0.0,0.0,0.0,0.0,0.0,0.0,0.0,0.0,0.0,0.0,0.0,0.0,0.0,0.0,0.0,0.0,0.0,0.0,0.0,0.0,0.0,0.0,0.0,0.0,0.0,0.0,0.0,0.0,0.0,0.0,0.0,0.0,0.0,0.0,0.0,0.0,0.0,0.0,0.4721,0.5518,0.5583,0.5708,0.5786,0.5786,0.7281,0.7312,0.523,0.6297,0.0,0.0,0.0,0.0,0.0,0.0,0.0,0.0,0.0,0.0,0.0,0.0,0.0,0.0,0.0,0.0,0.0,0.0,0.0,0.0,0.0,0.0,0.0,0.0,0.0,0.0,0.0,0.0,0.0,0.0,0.0,0.0,0.0,0.0,0.0,0.0,0.0,0.0,0.0,0.0,0.0,0.0,0.0,0.0,0.0,0.0,0.0,0.0,0.0,0.0,0.0,0.0,0.0,0.0,0.0,0.0,0.0,0.0,0.0,0.0,0.0,0.0,0.0,0.0,0.0,0.0,0.0,0.0,0.0,0.0,0.0,0.0,0.0,0.0,0.0,0.0,0.0,0.0,0.0,0.0,0.0,0.0,0.0,0.0,0.0,0.0,0.0,0.0,0.0,0.0,0.0,0.0,0.0,0.0,0.0,0.0,0.0,0.0,0.0,0.0,0.0,0.0,0.4484,0.5243,0.5803,0.5911,0.5905,0.5905,0.7393,0.7337,0.4993,0.0,0.0,0.0,0.0,0.0,0.0,0.0,0.0,0.0,0.0,0.0,0.0,0.0,0.0,0.0,0.0,0.0,0.0,0.0,0.0,0.0,0.0,0.0,0.0,0.0,0.0,0.0,0.0,0.0,0.0,0.0,0.0,0.0,0.0,0.0,0.0,0.0,0.0,0.0,0.0,0.0,0.0,0.0,0.0,0.0,0.0,0.0,0.0,0.0,0.0,0.0,0.0,0.0,0.0,0.0,0.0,0.0,0.0,0.0,0.0,0.0,0.0,0.0,0.0,0.0,0.0,0.0,0.0,0.0,0.0,0.0,0.0,0.0,0.0,0.0,0.0,0.0,0.0,0.0,0.0,0.0,0.0,0.0,0.0,0.0,0.0,0.0,0.0,0.0,0.0,0.0,0.0,0.0,0.0,0.0,0.0,0.0,0.0,0.0,0.0,0.0,0.0,0.3727,0.4568,0.5348,0.5929,0.6074,0.6215,0.6547,0.777,0.7582,0.537,0.0,0.0,0.0,0.0,0.0,0.0,0.0,0.0,0.0,0.0,0.0,0.0,0.0,0.0,0.0,0.0,0.0,0.0,0.0,0.0,0.0,0.0,0.0,0.0,0.0,0.0,0.0,0.0,0.0,0.0,0.0,0.0,0.0,0.0,0.0,0.0,0.0,0.0,0.0,0.0,0.0,0.0,0.0,0.0,0.0,0.0,0.0,0.0,0.0,0.0,0.0,0.0,0.0,0.0,0.0,0.0,0.0,0.0,0.0,0.0,0.0,0.0,0.0,0.0,0.0,0.0,0.0,0.0,0.0,0.0,0.0,0.0,0.0,0.0,0.0,0.0,0.0,0.0,0.0,0.0,0.0,0.0,0.0,0.0,0.0,0.0,0.0,0.0,0.0,0.0,0.0,0.0,0.0,0.0,0.0,0.0,0.0,0.0,0.0,0.0,0.0,0.0,0.3795,0.5104,0.5993,0.603,0.6207,0.6718,0.7744,0.8449,0.8126,0.0,0.0,0.0,0.0,0.0,0.0,0.0,0.0,0.0,0.0,0.0,0.0,0.0,0.0,0.0,0.0,0.0,0.0,0.0,0.0,0.0,0.0,0.0,0.0,0.0,0.0,0.0,0.0,0.0,0.0,0.0,0.0,0.0,0.0,0.0,0.0,0.0,0.0,0.0,0.0,0.0,0.0,0.0,0.0,0.0,0.0,0.0,0.0,0.0,0.0,0.0,0.0,0.0,0.0,0.0,0.0,0.0,0.0,0.0,0.0,0.0,0.0,0.0,0.0,0.0,0.0,0.0,0.0,0.0,0.0,0.0,0.0,0.0,0.0,0.0,0.0,0.0,0.0,0.0,0.0,0.0,0.0,0.0,0.0,0.0,0.0,0.0,0.0,0.0,0.0,0.0,0.0,0.0,0.0,0.0,0.0,0.0,0.0,0.0,0.0,0.0,0.0,0.0,0.4062,0.5201,0.633,0.7197,0.7333,0.7783,0.8765,0.9522,0.8919,0.6553,0.0,0.0,0.0,0.0,0.0,0.0,0.0,0.0,0.0,0.0,0.0,0.0,0.0,0.0,0.0,0.0,0.0,0.0,0.0,0.0,0.0,0.0,0.0,0.0,0.0,0.0,0.0,0.0,0.0,0.0,0.0,0.0,0.0,0.0,0.0,0.0,0.0,0.0,0.0,0.0,0.0,0.0,0.0,0.0,0.0,0.0,0.0,0.0,0.0,0.0,0.0,0.0,0.0,0.0,0.0,0.0,0.0,0.0,0.0,0.0,0.0,0.0,0.0,0.0,0.0,0.0,0.0,0.0,0.0,0.0,0.0,0.0,0.0,0.0,0.0,0.0,0.0,0.0,0.0,0.0,0.0,0.0,0.0,0.0,0.0,0.0,0.0,0.0,0.0,0.0,0.0,0.0,0.0,0.0,0.0,0.0,0.0,0.0,0.0,0.0,0.0,0.0,0.4755,0.5932,0.7131,0.8262,0.8389,0.8803,0.982,1.0316,0.9777,0.8003,0.0,0.0,0.0,0.0,0.0,0.0,0.0,0.0,0.0,0.0,0.0,0.0,0.0,0.0,0.0,0.0,0.0,0.0,0.0,0.0,0.0,0.0,0.0,0.0,0.0,0.0,0.0,0.0,0.0,0.0,0.0,0.0,0.0,0.0,0.0,0.0,0.0,0.0,0.0,0.0,0.0,0.0,0.0,0.0,0.0,0.0,0.0,0.0,0.0,0.0,0.0,0.0,0.0,0.0,0.0,0.0,0.0,0.0,0.0,0.0,0.0,0.0,0.0,0.0,0.0,0.0,0.0,0.0,0.0,0.0,0.0,0.0,0.0,0.0,0.0,0.0,0.0,0.0,0.0,0.0,0.0,0.0,0.0,0.0,0.0,0.0,0.0,0.0,0.0,0.0,0.0,0.0,0.0,0.0,0.0,0.0,0.0,0.0,0.0,0.0,0.0,0.0,0.5721,0.6988,0.8246,0.9365,0.9478,0.9889,1.0899,1.0974,1.0727,1.0146,0.0,0.0,0.0,0.0,0.0,0.0,0.0,0.0,0.0,0.0,0.0,0.0,0.0,0.0,0.0,0.0,0.0,0.0,0.0,0.0,0.0,0.0,0.0,0.0,0.0,0.0,0.0,0.0,0.0,0.0,0.0,0.0,0.0,0.0,0.0,0.0,0.0,0.0,0.0,0.0,0.0,0.0,0.0,0.0,0.0,0.0,0.0,0.0,0.0,0.0,0.0,0.0,0.0,0.0,0.0,0.0,0.0,0.0,0.0,0.0,0.7824,0.6865,0.0,0.0,0.0,0.0,0.0,0.0,0.0,0.0,0.0,0.0,0.0,0.0,0.0,0.0,0.0,0.0,0.0,0.0,0.0,0.0,0.0,0.0,0.0,0.0,0.0,0.0,0.0,0.0,0.0,0.0,0.0,0.0,0.0,0.0,0.0,0.0,0.0,0.0,0.0,0.0,0.6255,0.7234,0.8564,1.0583,1.0798,1.1221,1.2259,1.2373,1.1703,1.0197,0.979,0.0,0.0,0.0,0.0,0.0,0.0,0.0,0.0,0.0,0.0,0.0,0.0,0.0,0.0,0.0,0.0,0.0,0.0,0.0,0.0,0.0,0.0,0.0,0.0,0.0,0.0,0.0,0.0,0.0,0.0,0.0,0.0,0.0,0.0,0.0,0.0,0.0,0.0,0.0,0.0,0.0,0.0,0.0,0.0,0.0,0.0,0.0,0.0,0.0,0.0,0.0,0.0,0.0,0.0,0.0,0.0,0.0,0.0,0.0,0.9815,0.9041,0.0,0.0,0.0,0.0,0.0,0.0,0.0,0.0,0.0,0.0,0.0,0.0,0.0,0.0,0.0,0.0,0.0,0.0,0.0,0.0,0.0,0.0,0.0,0.0,0.0,0.0,0.0,0.0,0.0,0.0,0.0,0.0,0.0,0.0,0.0,0.0,0.0,0.0,0.0,0.0,0.7544,0.873,1.012,1.1953,1.218,1.2375,1.2927,1.2871,1.2395,1.1471,1.0581,0.0,0.0,0.0,0.0,0.0,0.0,0.0,0.0,0.0,0.0,0.0,0.0,0.0,0.0,0.0,0.0,0.0,0.0,0.0,0.0,0.0,0.0,0.0,0.0,0.0,0.0,0.0,0.0,0.0,0.0,0.0,0.0,0.0,0.0,0.0,0.0,0.0,0.0,0.0,0.0,0.0,0.0,0.0,0.0,0.0,0.0,0.0,0.0,0.0,0.0,0.0,0.0,0.0,1.1168,1.1683,1.1928,1.1928,1.2195,1.2645,1.187,1.155,1.1462,1.0481,0.0,0.0,0.0,0.0,0.0,0.0,0.0,0.0,0.0,0.0,0.0,0.0,0.0,0.0,0.0,0.0,0.0,0.0,0.0,0.0,0.0,0.0,1.1005,1.0448,1.1705,1.2329,0.9785,0.0,0.0,0.0,0.0,0.0,0.0,0.0,0.0,0.0,0.0,0.0,0.9065,1.0484,1.1796,1.3134,1.3287,1.3287,1.3287,1.3053,1.2898,1.279,1.1417,1.0327,0.0,0.0,0.0,0.0,0.0,0.0,0.0,0.0,0.0,0.0,0.0,0.0,0.0,0.0,0.0,0.0,0.0,0.0,0.0,0.0,0.0,0.0,0.0,0.0,0.0,0.0,0.0,0.0,0.0,0.0,0.0,0.0,0.4412,0.4579,0.0,0.0,0.0,0.0,0.0,0.0,0.0,0.0,0.0,0.0,0.0,0.0,0.0,0.9102,1.0043,1.067,1.1169,1.152,1.2974,1.3828,1.4073,1.4073,1.4113,1.4208,1.3841,0.0,1.2158,1.1785,0.0,0.0,0.0,0.0,0.0,0.0,0.0,0.0,0.0,0.0,0.0,0.0,0.0,0.0,0.0,0.0,0.0,0.0,0.0,0.0,0.0,0.0,1.2844,1.277,1.2957,1.3058,1.2643,1.0948,0.9197,0.8187,0.7712,0.7136,0.0,0.0,0.0,0.0,0.0,0.0,1.0437,1.1249,1.2117,1.3425,1.3547,1.3547,1.3547,1.3507,1.33,1.2817,1.2563,1.1732,1.0127,0.9534,0.0,0.0,0.0,0.0,0.0,0.0,0.0,0.0,0.0,0.0,0.0,0.0,0.0,0.0,0.0,0.0,0.0,0.0,0.0,0.0,0.0,0.0,0.0,0.0,0.0,0.0,0.0,0.0,0.0,0.428,0.4675,0.4802,0.4684,0.4501,0.0,0.0,0.0,0.0,0.0,0.0,0.0,0.0,0.0,0.824,0.852,0.8976,0.9676,1.1363,1.2278,1.2439,1.3901,1.4687,1.477,1.477,1.477,1.4794,1.5083,1.4913,1.4377,1.3617,1.3004,1.2461,0.0,0.0,0.0,0.0,1.1975,1.2495,1.3387,1.3628,1.3468,1.2985,0.0,0.0,0.0,0.0,0.0,0.0,0.0,1.1692,1.2287,1.2941,1.3421,1.3244,1.4006,1.4499,1.3437,1.282,1.1958,1.021,0.9205,0.8159,0.668,0.7115,0.0,0.0,0.0,0.9964,1.1549,1.2343,1.3065,1.382,1.3895,1.3895,1.3895,1.37,1.342,1.3033,1.2878,1.2362,1.1383,1.0421,0.9253,0.0,0.0,0.0,0.0,0.0,0.0,0.0,0.0,0.0,0.0,0.0,0.0,0.0,0.0,0.0,0.0,0.0,0.0,0.0,0.0,0.0,0.0,0.0,0.0,0.0,0.0,0.0,0.0,0.4691,0.4989,0.5026,0.5067,0.4945,0.0,0.0,0.0,0.0,0.0,0.0,0.71,0.6663,0.7053,0.8428,0.8866,0.9277,0.9628,1.1551,1.2694,1.3018,1.4062,1.4792,1.5122,1.5122,1.5122,1.5147,1.5609,1.5972,1.6176,1.5432,1.5238,1.5282,1.4829,1.4392,1.4092,1.4498,1.4844,1.5206,1.6121,1.6423,1.6277,1.5826,1.5262,1.4636,1.3754,0.0,0.0,0.0,0.0,1.2657,1.2839,1.3329,1.3741,1.3486,1.4511,1.5121,1.3742,1.3787,1.3634,1.1898,1.0855,0.971,0.811,0.8744,0.0,0.861,1.007,1.1563,1.2525,1.3253,1.38,1.4062,1.4088,1.4088,1.4088,1.3881,1.356,1.3233,1.2993,1.273,1.2318,1.1256,1.0401,0.9806,0.0,0.0,0.0,0.0,0.0,0.0,0.0,0.0,0.0,0.0,0.0,0.0,0.0,0.0,0.0,0.0,0.0,0.0,0.0,0.0,0.0,0.0,0.0,0.0,0.0,0.0,0.0,0.0,0.0,0.5405,0.5873,0.0,0.0,0.0,0.0,0.5555,0.5827,0.6186,0.6702,0.7893,0.8741,0.9213,1.0374,1.0989,1.1023,1.1125,1.1822,1.3018,1.3309,1.4136,1.5378,1.5378,1.5378,1.5357,1.5154,1.563,1.66,1.6988,1.6693,1.5962,1.592,1.5393,1.4749,1.5586,1.6534,1.7559,1.8502,1.8626,1.8339,1.8303,1.6855,1.5078,1.501,1.4326,0.0,0.0,1.4576,1.4017,1.5201,1.4788,1.4085,1.4077,1.4126,1.4161,1.4084,1.3454,1.2948,1.3053,1.3053,1.2619,1.1362,0.0,1.1242,1.1202,1.157,1.2251,1.3387,1.3861,1.4075,1.4088,1.4088,1.4088,1.4088,1.4075,1.3821,1.3247,1.32,1.2919,1.2325,1.2231,1.153,1.0127,0.8499,0.0,0.0,0.0,0.0,0.0,0.0,0.0,0.0,0.0,0.0,0.0,0.0,0.0,0.0,0.0,0.0,0.0,0.0,0.0,0.0,0.0,0.0,0.0,0.0,0.0,0.0,0.0,0.0,0.5803,0.6108,0.0,0.5684,0.6091,0.6359,0.6308,0.6763,0.7413,0.8325,0.8133,0.8429,0.9376,0.9143,0.9009,0.9123,0.9939,1.0608,1.1087,1.2877,1.3981,1.4467,1.5289,1.5671,1.5658,1.6116,1.651,1.6907,1.7591,1.7581,1.7158,1.6917,1.6633,1.6409,1.6724,1.7069,1.7441,1.7803,1.8302,1.8828,1.8828,1.8285,1.7479,1.675,1.6262,1.595,1.5716,1.5361,1.4988,1.4726,1.437,1.4088,1.4088,1.4088,1.4088,1.4088,1.3876,1.3641,1.3754,1.3347,1.269,1.185,1.2505,1.2812,1.1857,1.2619,1.3447,1.3874,1.4021,1.4088,1.4088,1.4088,1.4088,1.4088,1.4088,1.3915,1.3473,1.27,1.2021,1.1606,1.1415,1.1009,1.0316,1.0359,0.9053,0.0,0.0,0.0,0.0,0.0,0.0,0.0,0.0,0.0,0.0,0.0,0.0,0.0,0.0,0.0,0.0,0.0,0.0,0.0,0.0,0.0,0.0,0.0,0.0,0.0,0.58,0.6142,0.6003,0.639,0.6535,0.6139,0.6651,0.7004,0.7004,0.7417,0.7997,0.8738,0.8141,0.8124,0.8945,0.871,0.8371,0.7988,0.9316,0.9998,0.9998,1.1745,1.2813,1.3247,1.4561,1.5146,1.5229,1.6197,1.6607,1.6631,1.7071,1.7167,1.7016,1.7427,1.7622,1.7622,1.7622,1.7622,1.7622,1.7622,1.8118,1.8734,1.8734,1.8734,1.857,1.7821,1.7365,1.6907,1.6193,1.5744,1.5291,1.4591,1.4382,1.4382,1.4382,1.4382,1.4355,1.4255,1.4229,1.4202,1.4108,1.3648,1.3112,1.2723,1.3434,1.3687,1.2536,1.3327,1.4015,1.3814,1.3961,1.4088,1.4088,1.4088,1.4088,1.4088,1.3849,1.3641,1.36,1.2116,1.142,1.1735,1.0868,1.0426,1.061,1.0877,0.9753,0.7172,0.0,0.0,0.0,0.0,0.0,0.0,0.0,0.0,0.0,0.0,0.0,0.0,0.0,0.0,0.0,0.0,0.0,0.0,0.0,0.0,0.0,0.0,0.0,0.5637,0.6156,0.6383,0.6067,0.6841,0.72,0.677,0.7261,0.7607,0.7607,0.7736,0.7818,0.7818,0.7911,0.8041,0.8038,0.9266,0.9316,0.8088,0.9312,0.9953,0.9953,0.9998,1.0681,1.1896,1.3247,1.3878,1.3926,1.5146,1.5683,1.571,1.5478,1.5365,1.5601,1.7391,1.8121,1.8121,1.8121,1.8121,1.8113,1.8164,1.8156,1.8156,1.8156,1.8156,1.8156,1.8113,1.7375,1.6551,1.6551,1.5777,1.5008,1.5008,1.5008,1.5008,1.5008,1.5008,1.4928,1.4596,1.4536,1.4449,1.4155,1.4102,1.4095,1.4088,1.4088,1.3895,1.3327,1.3721,0.0,1.3313,1.3734,1.4075,1.4048,1.4041,1.4041,1.4041,1.3286,1.3045,1.358,1.1639,1.1157,1.2694,1.0684,1.0019,1.1035,0.9896,0.8849,0.7914,0.0,0.0,0.0,0.0,0.0,0.0,0.0,0.0,0.0,0.0,0.0,0.0,0.0,0.0,0.0,0.0,0.0,0.0,0.0,0.0,0.0,0.5866,0.6313,0.6276,0.6563,0.6854,0.6987,0.7221,0.7366,0.7353,0.7597,0.7753,0.7753,0.7892,0.7928,0.7928,0.7968,0.8432,0.941,0.8871,0.8825,0.946,0.8874,0.8528,0.8581,1.0485,1.1072,1.0583,1.2856,1.3392,1.2479,1.2818,1.3542,1.4405,1.4332,1.4836,1.5705,1.5815,1.5873,1.5873,1.5873,1.5873,1.6006,1.677,1.7026,1.7026,1.7026,1.7026,1.6902,1.6131,1.5658,1.5435,1.5435,1.5225,1.5008,1.5008,1.5008,1.5008,1.5008,1.5008,1.4988,1.4863,1.4843,1.4756,1.4462,1.4402,1.4335,1.4122,1.4088,1.4035,1.3874,1.3981,1.4028,1.3868,1.3988,1.3876,1.3226,1.3152,1.3152,1.3152,1.2924,1.3132,1.3915,1.2503,1.1756,1.1991,1.117,1.112,1.1944,1.0588,0.9401,0.0,0.0,0.0,0.0,0.0,0.0,0.0,0.0,0.0,0.0,0.0,0.0,0.0,0.0,0.0,0.0,0.0,0.0,0.0,0.0,0.0,0.0,0.6298,0.6705,0.6873,0.7004,0.718,0.7395,0.7482,0.759,0.7678,0.7821,0.7906,0.7906,0.7938,0.7988,0.7988,0.7988,0.8333,0.9118,0.897,0.892,0.9167,0.897,0.8577,0.8041,0.9558,0.9899,0.9217,1.1307,1.1843,1.1116,1.1653,1.2668,1.3926,1.3926,1.4657,1.5751,0.0,0.0,0.0,0.0,1.5331,1.5416,1.6029,1.6249,1.6249,1.6249,1.6249,1.6165,1.5501,1.5331,1.5331,1.5331,1.5331,1.5331,1.5331,1.5331,1.5331,1.5331,1.5331,1.5291,1.517,1.5189,1.5023,1.4603,1.4522,0.0,1.4135,1.4088,1.4001,1.3761,1.3928,1.4001,1.3754,1.3935,1.3929,1.34,1.3347,1.3347,1.3347,1.3005,0.0,0.0,0.0,1.1384,1.098,1.1052,0.0,0.0,0.0,1.0174,0.9533,0.824,0.0,0.0,0.5046,0.4402,0.0,0.0,0.0,0.0,0.0,0.0,0.0,0.0,0.0,0.0,0.0,0.0,0.0,0.0,0.0,0.0,0.6756,0.7071,0.7378,0.7446,0.7467,0.7467,0.7651,0.7818,0.7834,0.7911,0.7988,0.7988,0.7988,0.7988,0.7988,0.7988,0.0,0.0,0.0,0.9262,0.8233,0.9266,0.9167,0.7988,0.8137,0.8137,0.8038,0.941,0.9899,0.985,1.0974,1.2231,1.3488,1.3632,1.4507,1.5784,1.5784,1.5784,1.5784,1.5784,1.5784,1.5784,1.5784,0.0,0.0,1.5784,1.5784,1.5784,1.5784,1.5784,1.5784,1.5784,1.5784,1.5784,1.5784,1.5784,1.5784,1.5784,1.5784,1.5711,1.5504,1.5444,1.5284,1.473,1.4616,1.4529,1.4235,1.4135,1.3915,1.3387,1.3754,1.3901,1.3373,1.3768,1.4048,1.3948,1.3935,0.0,1.3935,1.3246,1.3172,1.4028,1.2209,1.0849,1.0284,1.0853,1.1176,1.1142,1.1142,1.0991,1.064,0.9744,0.8632,0.7306,0.5518,0.4783,0.0,0.0,0.0,0.0,0.0,0.0,0.0,0.0,0.0,0.0,0.0,0.0,0.0,0.0,0.0,0.661,0.6972,0.7305,0.7409,0.7577,0.7726,0.7726,0.7777,0.7862,0.7934,0.7971,0.7988,0.7988,0.7988,0.7988,0.7988,0.7988,0.8482,0.9558,0.8825,0.8775,0.9608,0.8775,0.8237,0.7988,0.9118,0.0,0.8038,0.941,0.941,0.8382,0.8627,0.9505,1.0823,1.1848,1.3692,1.5784,1.5784,1.5784,1.5784,1.5784,1.5784,1.5784,1.5784,1.5784,1.5784,1.5784,1.5784,1.5784,1.5784,1.5784,0.0,1.5784,1.5784,1.5784,1.5784,1.5784,1.5784,1.5784,1.5784,1.5764,1.5711,1.5698,1.5638,1.5291,1.5231,1.5137,1.4888,1.4402,1.4048,1.3935,1.4015,1.4048,1.3935,1.4015,1.3849,1.3125,1.3045,1.3045,1.3045,1.2884,1.3172,1.4028,1.3436,1.2902,1.2563,1.249,1.2328,1.2051,1.2051,1.1242,0.9593,0.941,0.8329,0.651,0.596,0.574,0.0,0.0,0.0,0.0,0.0,0.0,0.0,0.0,0.0,0.0,0.0,0.7593,0.7718,0.0,0.7353,0.7013,0.7221,0.7467,0.757,0.7719,0.7811,0.7811,0.7879,0.7907,0.7982,0.7988,0.7988,0.7988,0.7988,0.7988,0.7988,0.7988,0.8283,0.897,0.8333,0.8333,0.897,0.8333,0.7988,0.7988,0.8676,0.8627,0.8038,0.8676,0.8627,0.7988,0.7988,0.8775,1.0145,1.2086,1.4028,1.5784,1.5784,1.5784,1.5784,1.5784,1.5784,1.5784,1.5784,1.5784,1.5784,1.5784,1.5784,1.5784,1.5784,1.5784,1.5784,1.5784,1.5784,1.5784,1.5784,1.5784,1.5784,1.5784,1.5784,1.5784,1.5784,1.5784,1.5745,1.5451,1.5398,1.5304,1.5062,1.476,1.4476,1.4329,1.4302,1.4255,1.4108,1.4088,1.3915,1.3507,1.3454,1.3454,1.3454,1.3454,1.3648,1.4055,1.3808,1.354,1.3393,1.3025,1.2717,1.2563,1.2378,1.1323,0.9296,0.9296,0.8275,0.6296,0.6179,0.6146,0.0,0.0,0.0,0.0,0.0,0.0,0.0,0.6052,0.7063,0.7884,0.8043,0.8172,0.8608,0.7858,0.7211,0.7395,0.7438,0.7539,0.7777,0.7838,0.7855,0.7855,0.7914,0.7988,0.7988,0.7988,0.7988,0.7988,0.7988,0.7988,0.7988,0.7988,0.7988,0.7988,0.7988,0.7988,0.7988,0.7988,0.7988,0.7988,0.7988,0.7988,0.7988,0.7988,0.7988,0.7988,0.7988,0.8775,1.0141,1.2275,1.3878,1.5051,1.5051,1.5051,1.5099,1.5635,1.5784,1.5784,1.5784,1.5784,1.5784,1.5784,1.5784,1.5784,1.5784,1.5784,1.5784,1.5784,1.5784,1.5784,1.5784,1.5784,1.5784,1.5784,1.5784,1.5784,1.5784,1.5784,1.5758,1.5524,1.5478,1.5404,1.517,1.5182,1.4997,1.4583,1.4522,1.4416,1.4122,1.4088,1.4088,1.4088,1.4088,1.4088,1.4088,1.4088,1.4088,1.4088,1.3861,1.366,1.3606,1.318,1.2904,1.279,1.2549,1.1378,0.9296,0.9296,0.8275,0.63,0.63,0.63,0.5552,0.5491,0.5474,0.5337,0.5504,0.5823,0.0,0.6526,0.7233,0.9586,0.9396,0.9139,1.0319,0.958,0.8558,0.7726,0.7678,0.7773,0.7807,0.788,0.7965,0.7965,0.7978,0.7988,0.7988,0.7988,0.7988,0.7988,0.7988,0.7988,0.7988,0.7988,0.7988,0.7988,0.7988,0.7988,0.7988,0.7988,0.7988,0.7988,0.7988,0.7988,0.7988,0.7988,0.7988,0.7988,0.7988,0.8775,0.9998,1.0337,1.1165,1.2334,1.2334,1.2334,1.2624,1.4956,1.5784,1.5784,1.5784,1.5784,1.5784,1.5784,1.5784,1.5784,1.5784,1.5784,1.5784,1.5784,1.5784,1.5784,1.5784,1.5784,1.5784,1.5784,1.5784,1.5784,1.5784,1.5784,1.5771,1.5738,1.5785,1.5772,1.5738,1.5732,1.5458,1.4599,1.4522,1.4416,1.4122,1.4088,1.4088,1.4088,1.4088,1.4088,1.4088,1.4088,1.4088,1.4088,1.4055,1.3921,1.3613,1.354,1.3293,1.2797,1.275,1.1607,0.9296,0.9296,0.8275,0.63,0.63,0.63,0.6091,0.6081,0.6003,0.5938,0.6078,0.6257,0.6512,0.7104,0.7988,0.9242,0.9178,0.9043,0.9605,0.8824,0.8006,0.7667,0.7719,0.7841,0.7884,0.7948,0.7988,0.7988,0.7988,0.7988,0.7988,0.7988,0.7988,0.7988,0.7988,0.7988,0.7988,0.7988,0.7988,0.7988,0.7988,0.7988,0.7988,0.7988,0.7988,0.7988,0.7988,0.7988,0.7988,0.7988,0.7988,0.7988,0.7988,0.8775,0.9998,0.9998,1.073,1.1896,1.1896,1.1896,1.2042,1.3108,1.4028,1.4704,1.4704,1.5194,1.5784,1.5784,1.5784,1.5784,1.5784,1.5784,1.5784,1.5784,1.5784,1.5784,1.5784,1.5784,1.5784,1.5784,1.5784,1.5784,1.5784,1.5784,1.5784,1.5784,1.5784,1.5784,1.5784,1.5784,1.5598,1.511,1.503,1.4863,1.4396,1.4342,1.4275,1.4108,1.4088,1.4088,1.4088,1.4088,1.4088,1.4088,1.4088,1.4035,1.3908,1.3693,1.3487,1.3273,1.3106,1.2278,1.0707,0.999,0.892,0.7501,0.683,0.6515,0.6251,0.634,0.6358,0.6358,0.6528,0.6658,0.6658,0.7394,0.8215,0.8787,0.8627,0.8512,0.8865,0.8136,0.7485,0.7634,0.778,0.7913,0.7975,0.7988,0.7988,0.7988,0.7988,0.7988,0.7988,0.7988,0.7988,0.7988,0.7988,0.7988,0.7988,0.7988,0.7988,0.7988,0.7988,0.7988,0.7988,0.7988,0.7988,0.7988,0.7988,0.7988,0.7988,0.7988,0.7988,0.7988,0.7988,0.8528,0.946,0.946,0.9998,1.0828,1.0828,1.0828,1.0828,1.0828,1.1891,1.3349,1.3349,1.4172,1.5289,1.5289,1.5486,1.5784,1.5784,1.5784,1.5784,1.5784,1.5784,1.5784,1.5784,1.5784,1.5784,1.5784,1.5784,1.5784,1.5784,1.5784,1.5784,1.5784,1.5784,1.5784,1.5784,1.5784,1.5711,1.5545,1.5518,1.5304,1.4716,1.4569,1.4409,1.4122,1.4088,1.4088,1.4088,1.4088,1.4088,1.4088,1.4088,1.4088,1.4088,1.3881,1.3686,1.36,1.34,1.2795,1.1702,1.0474,0.9371,0.836,0.7225,0.6722,0.5901,0.6135,0.6504,0.6504,0.6797,0.7075,0.7075,0.7122,0.7478,0.8667,0.7973,0.7535,0.8845,0.826,0.7638,0.778,0.7884,0.7985,0.7988,0.7988,0.7988,0.7988,0.7988,0.7988,0.7988,0.7988,0.7988,0.7988,0.7988,0.7988,0.7988,0.7988,0.7988,0.7988,0.7988,0.7988,0.7988,0.7988,0.7988,0.7988,0.7988,0.7988,0.7988,0.7988,0.7988,0.7988,0.7988,0.8038,0.8038,0.8038,0.8088,0.8137,0.8137,0.8137,0.8137,0.8137,0.9752,1.1945,1.1945,1.2861,1.3968,1.3968,1.48,1.5784,1.5784,1.5784,1.5784,1.5784,1.5784,1.5784,1.5784,1.5784,1.5784,1.5784,1.5784,1.5784,1.5784,1.5784,1.5784,1.5784,1.5784,1.5784,1.5784,1.5784,1.5778,1.5771,1.5764,1.5605,1.5068,1.4696,1.4409,1.4122,1.4088,1.4088,1.4088,1.4088,1.4088,1.4088,1.4088,1.4088,1.4088,1.4082,1.3941,1.3613,1.3593,1.2947,1.1702,1.0474,0.9371,0.836,0.7225,0.678,0.6193,0.643,0.6671,0.6865,0.6987,0.7095,0.7095,0.7095,0.7228,0.7621,0.7404,0.7241,0.769,0.77,0.7614,0.7662,0.7879,0.7988,0.7988,0.7988,0.7988,0.7988,0.7988,0.7988,0.7988,0.7988,0.7988,0.7988,0.7988,0.7988,0.7988,0.7988,0.7988,0.7988,0.7988,0.7988,0.7988,0.7988,0.7988,0.7988,0.7988,0.7988,0.7988,0.7988,0.7988,0.7988,0.7988,0.7988,0.7988,0.7988,0.7988,0.7988,0.7988,0.7988,0.7988,0.7988,0.8577,0.946,1.0337,1.1507,1.2716,1.359,1.359,1.3547,1.5296,1.5194,1.4704,1.5581,1.5784,1.5784,1.5784,1.5784,1.5784,1.5784,1.5784,1.5784,1.5784,1.5784,1.5784,1.5784,1.5784,1.5784,1.5784,1.5784,1.5784,1.5784,1.5665,1.5404,1.5062,1.4703,1.4409,1.4122,1.4088,1.4088,1.4088,1.4088,1.4088,1.4088,1.4088,1.4088,1.4088,1.4088,1.4041,1.3941,1.3941,1.3326,1.2117,1.0937,0.9795,0.8696,0.7505,0.6977,0.643,0.6624,0.677,0.7021,0.7095,0.7095,0.7095,0.7095,0.7095,0.7095,0.7011,0.6957,0.7011,0.7223,0.7455,0.7509,0.7811,0.7988,0.7988,0.7988,0.7988,0.7988,0.7988,0.7988,0.7988,0.7988,0.7988,0.7988,0.7988,0.7988,0.7988,0.7988,0.7988,0.7988,0.7988,0.7988,0.7988,0.7988,0.7988,0.7988,0.7988,0.7988,0.7988,0.7988,0.7988,0.7988,0.7988,0.7988,0.7988,0.7988,0.7988,0.7988,0.7988,0.7988,0.7988,0.7988,0.7988,0.8137,0.897,1.0145,1.1361,1.2231,1.2231,1.2285,1.4465,1.4561,1.4166,1.5439,1.5784,1.5784,1.5784,1.5784,1.5784,1.5784,1.5784,1.5784,1.5784,1.5784,1.5784,1.5784,1.5784,1.5784,1.5784,1.5784,1.5784,1.5784,1.5671,1.5404,1.5062,1.4796,1.4529,1.4128,1.4088,1.4088,1.4088,1.3688,1.3646,1.4088,1.3688,1.347,1.347,1.347,1.3252,1.2869,1.2863,1.2473,1.1681,1.0567,0.9623,0.889,0.7665,0.7095,0.6583,0.6712,0.679,0.7024,0.7095,0.7095,0.7095,0.7095,0.7092,0.7078,0.6895,0.6736,0.6819,0.6974,0.7132,0.7326,0.7729,0.7982,0.7988,0.7988,0.7988,0.7988,0.7988,0.7988,0.7988,0.7988,0.7988,0.7988,0.7988,0.7988,0.7988,0.7988,0.7988,0.7988,0.7988,0.7988,0.7988,0.7988,0.7988,0.7988,0.7988,0.7988,0.7988,0.7988,0.7988,0.7988,0.7988,0.7988,0.7988,0.7988,0.7988,0.7988,0.7988,0.7988,0.7988,0.7988,0.7988,0.7988,0.7988,0.8825,0.9899,0.9998,1.0779,1.1945,1.3392,1.3728,1.3974,1.5242,1.5635,1.5683,1.5683,1.573,1.5784,1.5784,1.5784,1.5784,1.5784,1.5784,1.5784,1.5784,1.5784,1.5784,1.5784,1.5784,1.5784,1.5784,1.5784,1.5625,1.5102,1.5022,1.4787,1.4168,1.4095,1.4088,1.3997,1.2942,1.2766,1.3864,1.2851,1.22,1.22,1.22,1.1681,1.0611,1.0611,1.0567,1.0524,0.9405,0.8846,0.8759,0.7621,0.7095,0.6637,0.6861,0.7004,0.7078,0.7095,0.7095,0.7095,0.7095,0.7034,0.6858,0.6753,0.661,0.6276,0.6613,0.6953,0.7034,0.7509,0.7909,0.7975,0.7988,0.7988,0.7988,0.7988,0.7988,0.7988,0.7988,0.7988,0.7988,0.7988,0.7988,0.7988,0.7988,0.7988,0.7988,0.7988,0.7988,0.7988,0.7988,0.7988,0.7988,0.7988,0.7988,0.7988,0.7988,0.7988,0.7988,0.7988,0.7988,0.7988,0.7988,0.7988,0.7988,0.7988,0.7988,0.7988,0.7988,0.7988,0.7988,0.7988,0.8233,0.8676,0.9657,0.9558,0.9406,1.1702,1.1745,1.1263,1.2528,1.359,1.4364,1.4364,1.5099,1.5784,1.5784,1.5784,1.5784,1.5784,1.5784,1.5784,1.5784,1.5784,1.5784,1.5784,1.5784,1.5784,1.5784,1.5784,1.5698,1.5331,1.5142,1.4867,1.4449,1.4215,1.373,1.2851,1.2498,1.2072,1.152,1.1214,1.1037,1.1037,1.1037,1.0907,1.0611,1.0611,1.0178,0.9323,0.9065,0.8452,0.7533,0.7228,0.7095,0.6834,0.697,0.7095,0.7095,0.7095,0.7045,0.6892,0.6596,0.6353,0.6314,0.5941,0.5635,0.5808,0.6325,0.6749,0.6817,0.7438,0.7891,0.7978,0.7988,0.7988,0.7988,0.7988,0.7988,0.7988,0.7988,0.7988,0.7988,0.7988,0.7988,0.7988,0.7988,0.7988,0.7988,0.7988,0.7988,0.7988,0.7988,0.7988,0.7988,0.7988,0.7988,0.7988,0.7988,0.7988,0.7988,0.7988,0.7988,0.7988,0.7988,0.7988,0.7988,0.7988,0.7988,0.7988,0.7988,0.7988,0.7988,0.7988,0.7988,0.8137,0.8874,0.8627,0.8382,1.0435,1.0583,1.0293,1.1556,1.2431,1.3151,1.3734,1.4411,1.5092,1.5683,1.5784,1.5784,1.5784,1.5784,1.5784,1.5784,1.5784,1.5784,1.5784,1.5784,1.5784,1.5784,1.5784,1.5678,1.5431,1.5189,1.485,1.4556,1.4262,1.3603,1.2413,1.1852,1.1295,1.0654,1.0139,0.9836,0.9836,0.9836,0.9618,0.9096,0.9048,0.875,0.8105,0.8105,0.7753,0.7095,0.7095,0.7095,0.7028,0.7095,0.7095,0.7095,0.7095,0.6984,0.66,0.5927,0.5439,0.5599,0.4772,0.4328,0.5198,0.572,0.6122,0.6391,0.7158,0.772,0.773,0.7889,0.7988,0.7988,0.7988,0.7988,0.7988,0.7988,0.7988,0.7988,0.7988,0.7988,0.7988,0.7988,0.7988,0.7988,0.7988,0.7988,0.7988,0.7988,0.7988,0.7988,0.7988,0.7988,0.7988,0.7988,0.7988,0.7988,0.7988,0.7988,0.7988,0.7988,0.7988,0.7988,0.7988,0.7988,0.7988,0.7988,0.7988,0.7988,0.7988,0.7988,0.7988,0.7988,0.7988,0.8237,0.9361,0.9756,0.9948,1.1068,1.1507,1.1896,1.3102,1.3632,1.4166,1.5296,1.5683,1.5784,1.5784,1.5784,1.5784,1.5784,1.5784,1.5784,1.5784,1.5784,1.5784,1.5784,1.5784,1.5678,1.5431,1.5189,1.485,1.4556,1.4262,1.3561,1.22,1.1166,1.0481,1.0178,0.9187,0.8671,0.8671,0.8671,0.8189,0.7139,0.7095,0.7095,0.7095,0.7095,0.7095,0.7095,0.7095,0.7095,0.7082,0.7095,0.7095,0.7095,0.7095,0.7011,0.6732,0.6006,0.5269,0.4813,0.3954,0.3458,0.3998,0.3863,0.3933,0.4753,0.5599,0.6231,0.6338,0.7285,0.7988,0.7988,0.7988,0.7988,0.7988,0.7988,0.7988,0.7988,0.7988,0.7988,0.7988,0.7988,0.7988,0.7988,0.7988,0.7988,0.7988,0.7988,0.7988,0.7988,0.7988,0.7988,0.7988,0.7988,0.7988,0.7988,0.7988,0.7988,0.7988,0.7988,0.7988,0.7988,0.7988,0.7988,0.7988,0.7988,0.7988,0.7988,0.7988,0.7988,0.7988,0.7988,0.7988,0.8038,0.8283,0.8333,0.8382,0.8627,0.946,1.0391,1.0632,1.228,1.3974,1.4166,1.5045,1.5784,1.5784,1.5784,1.5784,1.5784,1.5784,1.5784,1.5784,1.5784,1.5784,1.5784,1.5784,1.5678,1.5431,1.5189,1.485,1.4556,1.4262,1.3215,1.1085,1.0697,0.9788,0.7834,0.7533,0.7404,0.7404,0.7404,0.7316,0.7095,0.7095,0.7095,0.7095,0.7095,0.7095,0.7095,0.7095,0.7095,0.7095,0.7095,0.7095,0.7095,0.7095,0.6937,0.6369,0.5613,0.4952,0.4557,0.3504,0.2841,0.348,0.3338,0.3256,0.3686,0.4393,0.49,0.4951,0.6103,0.6983,0.6983,0.7587,0.7988,0.7988,0.7988,0.7686,0.7033,0.7587,0.7988,0.7988,0.7988,0.7988,0.7988,0.7988,0.7988,0.7988,0.7988,0.7988,0.7988,0.7988,0.7988,0.7988,0.7988,0.7988,0.7988,0.7988,0.7988,0.7988,0.7988,0.7988,0.7988,0.7988,0.7988,0.7988,0.7988,0.7988,0.7988,0.7988,0.7988,0.7988,0.7988,0.7988,0.7988,0.7988,0.7988,0.7988,0.7988,0.8482,0.9118,0.9805,1.0921,1.2037,1.2716,1.3878,1.4997,1.5683,1.5784,1.5784,1.5784,1.5784,1.5784,1.5784,1.5784,1.5784,1.5784,1.5698,1.5498,1.5211,1.4917,1.4676,1.4536,1.4262,1.3167,1.0783,1.0611,0.9614,0.7228,0.7095,0.7095,0.7095,0.7095,0.7095,0.7095,0.7095,0.7095,0.7095,0.7095,0.7095,0.7095,0.7095,0.7095,0.7088,0.7095,0.7095,0.7095,0.7095,0.6869,0.6047,0.5249,0.4629,0.4358,0.3175,0.2393,0.3081,0.2918,0.2697,0.2726,0.3177,0.3592,0.3591,0.4988,0.5902,0.5622,0.7033,0.7889,0.7587,0.7839,0.7587,0.6531,0.7135,0.7686,0.7988,0.7988,0.7988,0.7988,0.7988,0.7988,0.7988,0.7988,0.7988,0.7988,0.7988,0.7988,0.7988,0.7988,0.7988,0.7988,0.7988,0.7988,0.7988,0.7988,0.7988,0.7988,0.7988,0.7988,0.7988,0.7988,0.7988,0.7988,0.7988,0.7988,0.7988,0.7988,0.7988,0.7988,0.7988,0.7988,0.7988,0.7988,0.7988,0.8237,0.9316,0.9801,1.0342,1.1604,1.2716,1.383,1.5092,1.5391,1.5486,1.573,1.5784,1.5784,1.5784,1.5731,1.5684,1.5684,1.5491,1.5197,1.4955,1.4663,1.4496,1.4436,1.4002,1.2863,1.0783,1.0394,0.9357,0.7228,0.7095,0.7095,0.7095,0.7095,0.7095,0.7095,0.7095,0.7095,0.7095,0.7095,0.7095,0.7095,0.7095,0.7082,0.7061,0.7095,0.7095,0.7095,0.7095,0.69,0.6145,0.5319,0.4514,0.3833,0.2882,0.2289,0.2526,0.1876,0.1335,0.144,0.1858,0.217,0.2207,0.44,0.5566,0.4309,0.6426,0.7537,0.6282,0.7285,0.7939,0.7839,0.6783,0.6731,0.7939,0.7988,0.7988,0.7988,0.7988,0.7988,0.7988,0.7988,0.7988,0.7988,0.7988,0.7988,0.7988,0.7988,0.7988,0.7988,0.7988,0.7988,0.7988,0.7988,0.7988,0.7988,0.7988,0.7988,0.7988,0.7988,0.7988,0.7988,0.7988,0.7988,0.7988,0.7988,0.7988,0.7988,0.7988,0.7988,0.7988,0.7988,0.7988,0.8038,0.8137,0.9069,1.0342,1.1604,1.1994,1.2431,1.3782,1.407,1.4411,1.5588,1.5784,1.5784,1.5784,1.5611,1.5438,1.5438,1.519,1.4941,1.4596,1.4536,1.4422,1.4155,1.313,1.1943,1.0697,0.9666,0.8496,0.7183,0.7095,0.7095,0.7095,0.7095,0.7095,0.7095,0.7095,0.7095,0.7095,0.7095,0.7095,0.7095,0.7095,0.7028,0.6953,0.7031,0.7095,0.7095,0.7034,0.6687,0.5494,0.5236,0.4879,0.3674,0.3121,0.2742,0.2384,0.1638,0.0958,0.0578,0.0657,0.0782,0.0801,0.2964,0.4099,0.295,0.5737,0.7304,0.6116,0.7235,0.7686,0.6883,0.4822,0.4169,0.552,0.6376,0.7182,0.7988,0.7988,0.7988,0.7988,0.7988,0.7988,0.7988,0.7988,0.7988,0.7988,0.7988,0.7988,0.7988,0.7988,0.7988,0.7988,0.7988,0.7988,0.7988,0.7988,0.7988,0.7988,0.7988,0.7988,0.7988,0.7988,0.7988,0.7988,0.7988,0.7988,0.7988,0.7988,0.7988,0.7988,0.7988,0.7988,0.7988,0.7988,0.8382,0.9118,1.0435,1.0779,1.1312,1.344,1.3926,1.4268,1.554,1.5784,1.5724,1.5598,1.5471,1.5337,1.5164,1.4883,1.4656,1.4536,1.4369,1.4215,1.4095,1.3027,1.1858,1.0697,0.9536,0.8364,0.7183,0.7095,0.7095,0.7095,0.7095,0.7095,0.7095,0.7095,0.7095,0.7095,0.7095,0.7095,0.7095,0.7007,0.694,0.6514,0.6766,0.7095,0.7095,0.6957,0.6506,0.5291,0.53,0.5186,0.3915,0.3649,0.3428,0.2704,0.1934,0.1186,0.0446,0.0137,0.0,0.0,0.1793,0.2798,0.1974,0.4944,0.6768,0.5958,0.6787,0.7033,0.6079,0.3519,0.2564,0.3915,0.452,0.5425,0.6778,0.6828,0.6828,0.6828,0.6828,0.703,0.7385,0.7385,0.7637,0.7988,0.7988,0.7988,0.7988,0.7988,0.7988,0.7988,0.7988,0.7988,0.7988,0.7988,0.7988,0.7988,0.7988,0.7988,0.7988,0.7988,0.7988,0.7988,0.7988,0.7988,0.7988,0.7988,0.7988,0.7988,0.7988,0.7988,0.7988,0.7988,0.7988,0.8233,0.9167,0.941,1.0141,1.2764,1.3295,1.3782,1.5486,1.5758,1.5638,1.5431,1.5251,1.507,1.4863,1.4583,1.4396,1.4396,1.4215,1.4088,1.4088,1.3027,1.1858,1.0697,0.9231,0.8017,0.7139,0.7095,0.7095,0.7095,0.7095,0.7095,0.7095,0.7095,0.7095,0.7095,0.7095,0.7075,0.7031,0.693,0.6836,0.5599,0.6237,0.7095,0.7095,0.6919,0.6546,0.5939,0.5576,0.5225,0.4617,0.4491,0.4267,0.3511,0.2732,0.1961,0.1206,0.0463,0.0,0.0,0.1176,0.1935,0.165,0.4097,0.5752,0.563,0.5848,0.6029,0.5979,0.3519,0.2564,0.3915,0.2765,0.2665,0.4016,0.4066,0.4066,0.4066,0.4066,0.4718,0.6029,0.6029,0.6731,0.7988,0.7988,0.7988,0.7988,0.7988,0.7988,0.7988,0.7988,0.7988,0.7988,0.7988,0.7988,0.7988,0.7988,0.7988,0.7988,0.7988,0.7988,0.7988,0.7988,0.7988,0.7988,0.7988,0.7988,0.7988,0.7988,0.7988,0.7988,0.7988,0.7988,0.7988,0.8041,0.8038,0.8726,1.1361,1.1896,1.2673,1.5296,1.5598,1.5398,1.5398,1.4917,1.4529,1.4522,1.4282,1.4088,1.4088,1.4088,1.4088,1.4088,1.3027,1.1858,1.0697,0.8444,0.7095,0.7095,0.7095,0.7095,0.7095,0.7095,0.7095,0.7095,0.7095,0.7095,0.7095,0.7095,0.7024,0.6886,0.6886,0.6766,0.5771,0.6107,0.6488,0.6278,0.6156,0.5808,0.4805,0.4908,0.4904,0.3877,0.4125,0.4267,0.3483,0.2702,0.196,0.1205,0.0474,0.0,0.0,0.0988,0.1742,0.185,0.4274,0.6274,0.715,0.5683,0.4618,0.4618,0.2164,0.0807,0.126,0.0857,0.1661,0.3915,0.4016,0.4016,0.4016,0.4016,0.4216,0.4618,0.4618,0.5322,0.6631,0.6631,0.7135,0.7988,0.7988,0.7988,0.7988,0.7988,0.7988,0.7988,0.7988,0.7988,0.7988,0.7988,0.7988,0.7988,0.7988,0.7988,0.7988,0.7988,0.7988,0.7988,0.7988,0.7988,0.7988,0.7988,0.7988,0.7988,0.7988,0.7988,0.7988,0.7988,0.7988,0.8726,1.1361,1.1896,1.2673,1.5296,1.5591,1.5337,1.5182,1.4776,1.4449,1.4255,1.4142,1.4088,1.4088,1.4088,1.4088,1.4088,1.3027,1.1858,1.0697,0.9187,0.7969,0.7139,0.7095,0.7095,0.7095,0.7095,0.7051,0.6953,0.6953,0.6903,0.6841,0.6841,0.6763,0.6617,0.6617,0.6512,0.5197,0.5603,0.6078,0.585,0.5718,0.5442,0.4619,0.4697,0.4716,0.3907,0.4153,0.4349,0.3846,0.2899,0.2057,0.1584,0.0654,0.0,0.0,0.0563,0.142,0.2557,0.5005,0.6957,0.7848,0.5999,0.4568,0.4016,0.1963,0.0555,0.0051,0.0,0.0756,0.2414,0.2514,0.2514,0.2514,0.2514,0.2765,0.3265,0.3265,0.3967,0.5222,0.5222,0.5977,0.7235,0.7235,0.7537,0.0,0.7988,0.7988,0.7988,0.7988,0.7988,0.7988,0.7988,0.7988,0.7988,0.7988,0.7988,0.7988,0.7988,0.7988,0.7988,0.7988,0.7988,0.7988,0.7988,0.7988,0.7988,0.7988,0.7988,0.7988,0.7988,0.8382,0.9312,1.1458,1.2285,1.3273,1.5254,1.5431,1.5137,1.485,1.4549,1.4295,1.4115,1.4088,1.4088,1.4088,1.4088,1.4088,1.4088,1.3428,1.2504,1.1343,0.9792,0.8584,0.7841,0.7356,0.7071,0.7018,0.7018,0.695,0.6848,0.6844,0.6797,0.6702,0.6644,0.6566,0.6511,0.6457,0.6385,0.0,0.4879,0.5732,0.5711,0.5542,0.5306,0.5086,0.4877,0.0,0.4522,0.446,0.4411,0.4435,0.316,0.2123,0.213,0.0916,0.0,0.0,0.0159,0.1202,0.3665,0.6125,0.7682,0.7814,0.6712,0.5425,0.4116,0.2764,0.1411,0.005,0.0,0.0,0.0,0.0,0.0,0.0,0.0,0.0605,0.1862,0.1862,0.2564,0.3865,0.3865,0.457,0.5879,0.5979,0.6731,0.7889,0.7939,0.7988,0.7988,0.7988,0.7988,0.7988,0.7988,0.7988,0.7988,0.7988,0.7988,0.7988,0.7988,0.7988,0.7988,0.7988,0.7988,0.7988,0.7988,0.7988,0.7988,0.7988,0.7988,0.7988,0.7988,0.897,1.0243,1.1604,1.2866,1.4094,1.5166,1.5164,1.4914,1.4569,1.4282,1.4088,1.4088,1.4088,1.4088,1.4088,1.4088,1.4088,1.4088,1.4088,1.3646,1.2504,1.0394,0.9065,0.889,0.7918,0.7192,0.6893,0.7044,0.7007,0.6809,0.6795,0.675,0.6668,0.6566,0.6497,0.6494,0.6361,0.63,0.4432,0.0,0.507,0.4866,0.4842,0.4836,0.0,0.4685,0.4675,0.4522,0.4015,0.3595,0.366,0.2396,0.1353,0.1358,0.0584,0.0,0.0,0.1752,0.367,0.5287,0.6923,0.7901,0.7934,0.6763,0.5425,0.4116,0.2764,0.1411,0.005,0.0,0.0,0.0,0.0,0.0,0.0,0.0,0.0151,0.0454,0.0454,0.1159,0.2464,0.2464,0.3215,0.4518,0.5575,0.6179,0.6531,0.7587,0.7988,0.7988,0.7988,0.7988,0.7988,0.7988,0.7988,0.7988,0.7988,0.7988,0.7988,0.7988,0.7988,0.7988,0.7988,0.7988,0.7988,0.7988,0.7988,0.7988,0.7988,0.7988,0.7988,0.7988,0.8237,0.9118,1.1409,1.2139,1.2988,1.5027,1.5164,1.4914,1.4569,1.4282,1.4088,1.4088,1.4088,1.4088,1.4088,1.4088,1.4088,1.4088,1.4088,1.3997,1.3688,1.2339,1.0783,0.9021,0.9262,0.8696,0.6972,0.8267,0.8629,0.7721,0.7592,0.7176,0.6405,0.6368,0.6351,0.6351,0.6317,0.63,0.4491,0.4684,0.4877,0.4714,0.4735,0.4772,0.4691,0.4655,0.4505,0.4086,0.3649,0.3355,0.3387,0.2131,0.1219,0.1537,0.0719,0.0,0.0,0.1776,0.3586,0.491,0.6276,0.7335,0.7939,0.7335,0.6126,0.4166,0.3316,0.2063,0.0101,0.0,0.0,0.0,0.0,0.0,0.0,0.0,0.0,0.0,0.0,0.0404,0.1058,0.1058,0.1812,0.3165,0.452,0.5425,0.6079,0.7437,0.7988,0.7988,0.7988,0.7988,0.7988,0.7988,0.7988,0.7988,0.7988,0.7988,0.7988,0.7988,0.7988,0.7988,0.7988,0.7988,0.7988,0.7988,0.7988,0.7988,0.7988,0.7988,0.7988,0.7988,0.892,1.019,1.1604,1.2731,1.3826,1.4969,1.4963,1.4663,1.4376,1.4195,1.4088,1.4088,1.4088,1.4088,1.4088,1.4088,1.4088,1.4088,1.4088,1.4088,1.4088,1.3512,1.2116,0.9743,0.9968,0.9364,0.7462,0.8815,0.9295,0.8622,0.8516,0.8012,0.6984,0.6984,0.6756,0.63,0.63,0.63,0.4573,0.4789,0.4992,0.4877,0.4793,0.4752,0.483,0.4589,0.4181,0.368,0.3483,0.3347,0.3247,0.2045,0.1261,0.1789,0.0823,0.0128,0.0551,0.1412,0.2665,0.4416,0.5422,0.6531,0.7889,0.7988,0.6877,0.4216,0.4016,0.2815,0.0151,0.0,0.0,0.0,0.0,0.0,0.0,0.0,0.0,0.0,0.0,0.0101,0.0303,0.0303,0.0907,0.2063,0.3616,0.472,0.5525,0.7285,0.7889,0.7736,0.7939,0.7988,0.7988,0.7988,0.7988,0.7988,0.7988,0.7988,0.7988,0.7988,0.7988,0.7988,0.7988,0.7988,0.7988,0.7988,0.7988,0.7988,0.7988,0.7988,0.7988,0.7988,0.985,1.1653,1.1848,1.359,1.5074,1.5017,1.4723,1.4429,1.4135,1.4088,1.4088,1.4088,1.4088,1.4088,1.4088,1.4088,1.4088,1.4088,1.4088,1.4088,1.4088,1.4088,1.3119,1.0741,1.0647,1.007,0.8719,0.9325,0.9632,0.9523,0.9518,0.9031,0.8012,0.7859,0.7365,0.6528,0.6377,0.63,0.4925,0.5254,0.5332,0.4723,0.4253,0.4059,0.4475,0.4045,0.3707,0.4236,0.379,0.3137,0.2489,0.1678,0.0922,0.0434,0.0128,0.081,0.3054,0.2598,0.3317,0.698,0.6581,0.6531,0.7889,0.7988,0.6877,0.4216,0.4016,0.2815,0.0151,0.0,0.0,0.0,0.0,0.0,0.0,0.0,0.0,0.0,0.0,0.0605,0.1711,0.1711,0.1812,0.2113,0.4622,0.4522,0.2916,0.6528,0.7335,0.6431,0.7537,0.7988,0.7988,0.7988,0.7988,0.7988,0.7988,0.7988,0.7988,0.7988,0.7988,0.7988,0.7988,0.7988,0.7988,0.7988,0.7988,0.7988,0.7988,0.7988,0.7988,0.7988,0.9164,1.0583,1.1653,1.2866,1.3982,1.483,1.4723,1.4429,1.4135,1.4088,1.4088,1.4088,1.4088,1.4088,1.4088,1.4088,1.4088,1.4088,1.4088,1.4088,1.4088,1.4088,1.3342,1.1624,1.2289,1.2401,1.1671,1.096,1.0599,1.0565,1.0565,1.0078,0.9069,0.8199,0.7706,0.7557,0.6679,0.63,0.4714,0.4992,0.5162,0.4891,0.4974,0.5218,0.543,0.4564,0.3717,0.3634,0.2821,0.1993,0.1684,0.0998,0.0395,0.0046,0.0,0.0423,0.166,0.1942,0.2966,0.5522,0.5927,0.6531,0.7889,0.7335,0.6126,0.4166,0.3316,0.2063,0.0101,0.0,0.0,0.0,0.0,0.0,0.0,0.0,0.0,0.0,0.0,0.0303,0.0958,0.1661,0.2013,0.2163,0.4824,0.4872,0.3316,0.6628,0.7235,0.6129,0.7484,0.7988,0.7988,0.7988,0.7988,0.7988,0.7988,0.7988,0.7988,0.7988,0.7988,0.7988,0.7988,0.7988,0.7988,0.7988,0.7988,0.7988,0.7988,0.7988,0.7988,0.7988,0.9558,1.1137,1.1591,1.3047,1.4372,1.4688,1.4489,1.4242,1.4108,1.4088,1.4088,1.4088,1.4088,1.4088,1.4088,1.4088,1.4088,1.4088,1.4088,1.4088,1.4088,1.4088,1.3668,1.2597,1.2143,1.2011,1.2274,1.1848,1.162,1.162,1.162,1.113,1.0115,0.9107,0.8313,0.7783,0.6756,0.63,0.4621,0.4789,0.4988,0.5201,0.5477,0.5804,0.6166,0.509,0.3985,0.3743,0.2951,0.2155,0.1665,0.0945,0.036,0.0049,0.0245,0.0585,0.0904,0.1561,0.2715,0.4718,0.5575,0.6531,0.7889,0.6783,0.5425,0.4116,0.2764,0.1411,0.005,0.0,0.0,0.0,0.0,0.0,0.0,0.0303,0.0303,0.0,0.0303,0.0656,0.0958,0.2314,0.2917,0.3066,0.5425,0.5522,0.4216,0.6877,0.7235,0.6129,0.7484,0.7988,0.7988,0.7988,0.7988,0.7988,0.7988,0.7988,0.7988,0.7988,0.7988,0.7988,0.7988,0.7988,0.7988,0.7988,0.7988,0.7988,0.7988,0.7988,0.7988,0.7988,0.9768,1.1433,1.1495,1.3055,1.4466,1.4519,1.4282,1.4088,1.4088,1.4088,1.4088,1.4088,1.4088,1.4088,1.4088,1.4088,1.4088,1.4088,1.4088,1.4055,1.3988,1.3921,1.3661,1.3133,1.1898,1.1502,1.2268,1.2305,1.2305,1.2305,1.2305,1.1922,1.1162,0.9895,0.8922,0.8122,0.6872,0.63,0.4969,0.5066,0.5187,0.5647,0.4843,0.435,0.5702,0.5071,0.4551,0.5793,0.5986,0.5317,0.3342,0.2339,0.1449,0.0192,0.1032,0.2307,0.3515,0.2715,0.3417,0.7232,0.6681,0.6531,0.7889,0.6783,0.5425,0.4116,0.2764,0.1411,0.005,0.0,0.0,0.0,0.0,0.0,0.0,0.1209,0.1209,0.0,0.126,0.2514,0.3765,0.5122,0.5727,0.5777,0.7232,0.6376,0.4216,0.6877,0.7235,0.6129,0.7484,0.7988,0.7988,0.7988,0.7988,0.7988,0.7988,0.7988,0.7988,0.7988,0.7988,0.7988,0.7988,0.7988,0.7988,0.7988,0.7988,0.7988,0.7988,0.7988,0.7988,0.7988,0.8995,1.0253,1.127,1.2268,1.3279,1.4298,1.4282,1.4088,1.4088,1.4088,1.4088,1.4088,1.4088,1.4088,1.4088,1.4088,1.4088,1.4088,1.4088,1.3975,1.366,1.3427,1.3133,1.2837,1.2441,1.2224,1.2305,1.2305,1.2305,1.2305,1.2305,1.2261,1.2187,1.0239,0.9258,0.9145,0.7215,0.63,0.4699,0.4918,0.5184,0.5579,0.5294,0.5183,0.62,0.5673,0.5129,0.5863,0.5398,0.4355,0.2698,0.1527,0.0595,0.0097,0.0446,0.1209,0.2564,0.3015,0.4117,0.6478,0.6331,0.6179,0.6731,0.4772,0.3317,0.2815,0.1511,0.0555,0.0051,0.0,0.0,0.0,0.0,0.0404,0.126,0.1762,0.2163,0.2514,0.3015,0.3065,0.2815,0.5022,0.5525,0.482,0.6176,0.5724,0.4166,0.5974,0.6481,0.6129,0.7484,0.7988,0.7988,0.7988,0.7988,0.7988,0.7988,0.7988,0.7988,0.7988,0.7988,0.7988,0.7988,0.7988,0.7988,0.7988,0.7988,0.7988,0.7988,0.7988,0.7965,0.787,0.8858,1.0026,1.0886,1.1998,1.3068,1.4061,1.4162,1.4088,1.4088,1.4088,1.4088,1.4088,1.4088,1.4088,1.4088,1.4088,1.4088,1.4088,1.4088,1.3968,1.3626,1.3333,1.308,1.2804,1.2502,1.2305,1.2305,1.2305,1.2305,1.2305,1.2305,1.1996,1.1354,0.997,0.8998,0.8351,0.6949,0.63,0.453,0.4589,0.4738,0.5522,0.5691,0.5864,0.6658,0.6303,0.5925,0.6389,0.5449,0.4309,0.3435,0.2128,0.1235,0.1276,0.1245,0.1712,0.3066,0.4069,0.5122,0.6481,0.6279,0.5979,0.5979,0.3568,0.2013,0.2013,0.0756,0.0,0.0,0.0,0.0,0.0,0.0404,0.1058,0.2013,0.2816,0.3518,0.4016,0.4868,0.457,0.3317,0.5625,0.6126,0.532,0.6229,0.6126,0.532,0.6229,0.6631,0.6734,0.7637,0.7988,0.7988,0.7988,0.7988,0.7988,0.7988,0.7988,0.7988,0.7988,0.7988,0.7988,0.7988,0.7988,0.7988,0.7988,0.7988,0.7978,0.7931,0.7917,0.7891,0.7834,0.8449,0.9287,1.007,1.0928,1.198,1.3289,1.3512,1.3646,1.4039,1.3779,1.3512,1.3512,1.3512,1.3512,1.3512,1.3864,1.4088,1.4088,1.4001,1.3828,1.3493,1.3233,1.2933,1.2663,1.2412,1.2305,1.2305,1.2305,1.2305,1.2305,1.2305,1.1805,1.0783,0.9782,0.877,0.7783,0.6756,0.63,0.4611,0.4176,0.3833,0.5583,0.5922,0.6047,0.69,0.6919,0.6963,0.7806,0.6822,0.5823,0.5986,0.481,0.3823,0.3997,0.4019,0.4468,0.5827,0.5979,0.6481,0.7839,0.6783,0.5979,0.5979,0.3568,0.1962,0.1962,0.0756,0.0,0.0,0.0,0.0,0.0,0.131,0.2013,0.2063,0.4672,0.5322,0.4066,0.6728,0.7285,0.6029,0.7385,0.7988,0.7988,0.7988,0.7988,0.7988,0.7988,0.7988,0.7988,0.7988,0.7988,0.7988,0.7988,0.7988,0.7988,0.7988,0.7988,0.7988,0.7988,0.7988,0.7988,0.7988,0.7988,0.7988,0.7988,0.7988,0.7955,0.7848,0.7811,0.7807,0.7807,0.7584,0.7731,0.8841,0.9013,0.9579,1.1852,1.2279,1.2674,1.3864,1.3075,1.2279,1.2279,1.2279,1.2285,1.2328,1.3379,1.4088,1.4088,1.378,1.3487,1.3233,1.2965,1.2656,1.2318,1.2305,1.2305,1.2305,1.2305,1.2305,1.2305,1.2305,1.1805,1.0783,0.9782,0.877,0.7744,0.6756,0.63,0.4404,0.473,0.5224,0.5715,0.6273,0.6825,0.7353,0.7394,0.7468,0.7894,0.6921,0.5963,0.6017,0.4863,0.3942,0.4013,0.4019,0.4468,0.5827,0.5979,0.6481,0.7839,0.5974,0.4568,0.4568,0.2163,0.0605,0.0605,0.0202,0.0,0.0,0.0,0.0454,0.136,0.1812,0.2916,0.4772,0.5627,0.5777,0.5425,0.7182,0.7285,0.6029,0.7385,0.7484,0.6581,0.6581,0.6581,0.6681,0.7587,0.7988,0.7988,0.7988,0.7988,0.7988,0.7988,0.7988,0.7988,0.7988,0.7988,0.7988,0.7988,0.7988,0.7988,0.7988,0.7988,0.7988,0.7988,0.7914,0.7868,0.7824,0.7658,0.7502,0.7502,0.748,0.7699,0.8734,0.8928,0.9323,1.0826,1.108,1.1214,1.1563,1.1343,1.108,1.108,1.1809,1.2589,1.347,1.3864,1.4088,1.4088,1.378,1.3487,1.3233,1.2965,1.2656,1.2318,1.2305,1.2305,1.2305,1.2305,1.2305,1.2305,1.2305,1.1471,0.9744,0.9448,0.8428,0.6756,0.6451,0.63,0.4945,0.5202,0.5565,0.6321,0.6787,0.7139,0.7665,0.7773,0.7824,0.7951,0.7291,0.6747,0.6773,0.5645,0.4909,0.5487,0.5135,0.5272,0.6631,0.6783,0.7083,0.7889,0.6124,0.4568,0.4066,0.2063,0.0555,0.0051,0.0,0.0,0.0,0.0,0.0605,0.1962,0.2514,0.3819,0.5979,0.5979,0.5979,0.5979,0.6276,0.6276,0.6029,0.7385,0.7537,0.6783,0.6783,0.6783,0.6883,0.7686,0.7988,0.7988,0.7988,0.7988,0.7988,0.7988,0.7988,0.7988,0.7988,0.7988,0.7988,0.7988,0.7988,0.7988,0.7988,0.7988,0.7988,0.7988,0.788,0.7797,0.7743,0.755,0.7415,0.7415,0.7326,0.7434,0.804,0.8189,0.854,0.9705,0.9923,1.0053,1.0524,1.0221,0.9923,0.9923,1.0907,1.2206,1.3913,1.4088,1.4041,1.3928,1.3647,1.3313,1.3053,1.2784,1.2529,1.2311,1.2305,1.2114,1.1731,1.2077,1.2305,1.2305,1.2305,1.1323,0.9296,0.9296,0.8275,0.63,0.63,0.63,0.5769,0.5514,0.5276,0.7083,0.7282,0.7162,0.7837,0.7988,0.7988,0.7988,0.788,0.7875,0.7965,0.6883,0.6448,0.7766,0.6983,0.6631,0.7839,0.7988,0.7988,0.7988,0.6833,0.5475,0.4116,0.2765,0.1461,0.0101,0.0,0.0,0.0,0.0,0.0605,0.1962,0.3316,0.462,0.5979,0.5979,0.5929,0.5827,0.4568,0.4568,0.5677,0.7132,0.7889,0.7988,0.7988,0.7988,0.7988,0.7988,0.7988,0.7988,0.7988,0.7988,0.7988,0.7988,0.7988,0.7988,0.7988,0.7988,0.7988,0.7988,0.7988,0.7988,0.7988,0.7988,0.7988,0.7988,0.787,0.7763,0.7634,0.7475,0.7395,0.7395,0.7244,0.7095,0.7095,0.7095,0.7404,0.854,0.8715,0.9061,1.0091,0.9405,0.8803,0.9017,0.9923,1.1434,1.3786,1.4062,1.3941,1.3633,1.336,1.3053,1.2811,1.2472,1.2305,1.2305,1.2224,1.1731,1.082,1.1694,1.215,1.215,1.2077,1.1136,0.9296,0.9221,0.8161,0.63,0.63,0.63,0.5178,0.5643,0.6282,0.6883,0.7395,0.7793,0.7951,0.7988,0.7988,0.7988,0.7965,0.7951,0.7985,0.7763,0.7651,0.7932,0.7736,0.7686,0.7939,0.7988,0.7988,0.7988,0.6833,0.5475,0.4116,0.2765,0.1461,0.0101,0.0,0.0,0.0,0.0,0.0605,0.1962,0.3316,0.462,0.5979,0.5979,0.5475,0.4418,0.4116,0.3616,0.2917,0.5325,0.6983,0.7988,0.7988,0.7988,0.7988,0.7988,0.7988,0.7988,0.7988,0.7988,0.7988,0.7988,0.7988,0.7988,0.7988,0.7988,0.7988,0.7988,0.7988,0.7988,0.7988,0.7988,0.7988,0.7988,0.7848,0.7638,0.7607,0.7397,0.7146,0.7146,0.7122,0.7095,0.7095,0.7095,0.7183,0.7448,0.7489,0.7577,0.7793,0.7665,0.8097,0.9966,1.0438,1.1434,1.3786,1.3881,1.3673,1.3613,1.3166,1.2857,1.279,1.2472,1.2305,1.2305,1.1545,1.1013,1.082,1.1013,1.1124,1.1124,1.0346,0.975,0.9296,0.8504,0.748,0.63,0.63,0.63,0.5467,0.6061,0.6705,0.7221,0.7651,0.7988,0.7988,0.7988,0.7988,0.7988,0.7988,0.7988,0.7988,0.7988,0.7988,0.7988,0.7988,0.7988,0.7988,0.7988,0.7988,0.7988,0.7385,0.6176,0.4216,0.3364,0.2113,0.0151,0.0,0.0303,0.0907,0.0958,0.1561,0.2914,0.427,0.5275,0.5979,0.5375,0.467,0.3966,0.2715,0.2413,0.3015,0.5072,0.6734,0.7988,0.7988,0.7988,0.7988,0.7988,0.7988,0.7988,0.7988,0.7988,0.7988,0.7988,0.7988,0.7988,0.7988,0.7988,0.7988,0.7988,0.7988,0.7988,0.7988,0.7988,0.7975,0.7901,0.777,0.7584,0.7509,0.7316,0.7095,0.7095,0.7095,0.7095,0.7095,0.7095,0.7095,0.7095,0.7095,0.7095,0.7095,0.7577,0.858,1.0351,1.108,1.2077,1.387,1.3828,1.3547,1.3413,1.3019,1.2533,1.1885,1.1664,1.1397,1.0875,1.0383,0.9852,0.9399,0.9362,0.9588,1.0078,0.9556,0.9069,0.858,0.8046,0.7288,0.63,0.63,0.63,0.575,0.6337,0.6841,0.7587,0.7909,0.7988,0.7988,0.7988,0.7988,0.7988,0.7988,0.7988,0.7988,0.7988,0.7988,0.7988,0.7988,0.7988,0.7988,0.7988,0.7988,0.7988,0.7988,0.703,0.4568,0.4368,0.3316,0.0857,0.0706,0.1159,0.2264,0.2364,0.2765,0.3615,0.5172,0.5879,0.5677,0.4568,0.4016,0.3966,0.1511,0.1762,0.4368,0.5475,0.6734,0.7988,0.7988,0.7988,0.7988,0.7988,0.7988,0.7988,0.7988,0.7988,0.7988,0.7988,0.7988,0.7988,0.7988,0.7988,0.7988,0.7988,0.7988,0.7985,0.7958,0.7951,0.7921,0.7818,0.7672,0.7533,0.745,0.7255,0.7095,0.7095,0.7095,0.7095,0.7095,0.7095,0.7095,0.7095,0.7095,0.7095,0.7095,0.8105,0.9279,1.0438,1.1552,1.2705,1.3889,1.3713,1.3413,1.316,1.2737,1.2024,1.0881,1.0634,1.019,0.9334,0.9145,0.8656,0.7821,0.7629,0.7931,0.8765,0.877,0.8466,0.7783,0.7633,0.7099,0.63,0.63,0.63,0.4692,0.5617,0.6685,0.7438,0.7834,0.7988,0.7988,0.7988,0.7988,0.7988,0.7988,0.7988,0.7988,0.7988,0.7988,0.7988,0.7988,0.7988,0.7988,0.7988,0.7988,0.7988,0.7988,0.7385,0.5877,0.5727,0.5122,0.3566,0.3465,0.3566,0.3715,0.3715,0.3265,0.2314,0.4672,0.5425,0.4268,0.4066,0.4016,0.3966,0.2464,0.3118,0.5727,0.5927,0.6734,0.7988,0.7988,0.7988,0.7988,0.7988,0.7988,0.7988,0.7988,0.7988,0.7988,0.7988,0.7988,0.7988,0.7988,0.7988,0.7988,0.7988,0.7988,0.7965,0.7882,0.7841,0.7811,0.7668,0.7519,0.7443,0.7422,0.7255,0.7095,0.7095,0.7095,0.7095,0.7095,0.7095,0.7095,0.7095,0.7095,0.7095,0.7095,0.8105,0.9279,1.0438,1.1552,1.2638,1.3563,1.3407,1.3153,1.2878,1.1765,1.0974,1.0826,1.0008,0.9448,0.9296,0.8466,0.7936,0.7821,0.6945,0.6567,0.6679,0.6718,0.7061,0.7783,0.6907,0.6412,0.63,0.63,0.63,0.5016,0.5863,0.6712,0.7509,0.7818,0.7884,0.7971,0.7988,0.7988,0.7988,0.7988,0.7988,0.7988,0.7988,0.7988,0.7988,0.7988,0.7988,0.7988,0.7988,0.7988,0.7988,0.7988,0.7484,0.6129,0.5979,0.5425,0.4116,0.4016,0.4316,0.5072,0.5122,0.4872,0.4271,0.6126,0.6478,0.5122,0.4368,0.3615,0.2864,0.3065,0.3717,0.492,0.5677,0.6734,0.7988,0.7988,0.7988,0.7988,0.7988,0.7988,0.7988,0.7988,0.7988,0.7988,0.7988,0.7988,0.7988,0.7988,0.7988,0.7988,0.7988,0.7988,0.7961,0.7858,0.7811,0.7763,0.7536,0.7424,0.7353,0.7265,0.7146,0.7095,0.7095,0.7095,0.7095,0.7095,0.7095,0.7095,0.7095,0.7095,0.7095,0.7095,0.8619,1.0009,1.0524,1.2169,1.3368,1.3558,1.3353,1.3093,1.2817,1.2097,1.1168,1.0045,0.9561,0.8808,0.7706,0.7215,0.6945,0.6945,0.6528,0.63,0.63,0.63,0.6528,0.6945,0.6528,0.63,0.63,0.63,0.6252,0.5043,0.5677,0.6242,0.7217,0.7556,0.7699,0.788,0.7961,0.7988,0.7988,0.7988,0.7988,0.7988,0.7988,0.7988,0.7988,0.7988,0.7988,0.7988,0.7988,0.7988,0.7988,0.7988,0.7587,0.6581,0.6531,0.6077,0.5068,0.5018,0.5472,0.6431,0.6531,0.6329,0.6029,0.7285,0.7335,0.6029,0.502,0.3817,0.2514,0.3516,0.4016,0.4016,0.5022,0.6226,0.7487,0.7839,0.7988,0.7988,0.7988,0.7988,0.7988,0.7988,0.7988,0.7988,0.7988,0.7988,0.7988,0.7988,0.7988,0.7988,0.7988,0.7988,0.7955,0.7814,0.7756,0.7695,0.7397,0.7312,0.7285,0.7125,0.7095,0.7095,0.7095,0.7095,0.7095,0.7095,0.7095,0.7095,0.7095,0.7095,0.7095,0.7095,0.8794,1.0269,1.0567,1.2339,1.36,1.3499,1.3307,1.306,1.271,1.2201,1.1211,0.9448,0.9069,0.8161,0.6412,0.63,0.63,0.63,0.63,0.63,0.63,0.63,0.63,0.63,0.63,0.63,0.6296,0.6259,0.6139,0.4026,0.4446,0.4914,0.6248,0.6861,0.7243,0.7726,0.7887,0.7988,0.7988,0.7988,0.7988,0.7988,0.7988,0.7988,0.7988,0.7988,0.7988,0.7988,0.7988,0.7988,0.7988,0.7988,0.7988,0.7889,0.7889,0.7889,0.7789,0.7789,0.7836,0.7889,0.7889,0.7335,0.6029,0.7285,0.7335,0.6029,0.5929,0.5222,0.3915,0.3966,0.4016,0.4016,0.4066,0.482,0.6179,0.7437,0.7988,0.7988,0.7988,0.7988,0.7988,0.7988,0.7988,0.7988,0.7988,0.7988,0.7988,0.7988,0.7988,0.7988,0.7988,0.7988,0.7938,0.7699,0.7611,0.7546,0.7193,0.7109,0.7105,0.7098,0.7095,0.7095,0.7095,0.7095,0.7095,0.7095,0.7095,0.7095,0.7095,0.7095,0.7095,0.7095,0.8145,0.9366,1.0438,1.1638,1.2577,1.314,1.322,1.2979,1.2392,1.1471,1.0453,0.9372,0.8428,0.7442,0.6377,0.63,0.63,0.63,0.63,0.63,0.63,0.63,0.63,0.63,0.63,0.63,0.6296,0.6108,0.6,0.3883,0.4277,0.4723,0.5699,0.6312,0.6831,0.7233,0.7601,0.7919,0.7968,0.7988,0.7988,0.7988,0.7988,0.7988,0.7988,0.7988,0.7988,0.7988,0.7988,0.7988,0.7988,0.7988,0.7988,0.7988,0.7988,0.7988,0.7988,0.7988,0.7988,0.7988,0.7988,0.7786,0.7285,0.7739,0.7335,0.6029,0.5979,0.5322,0.4016,0.4016,0.3566,0.2765,0.3615,0.3817,0.3519,0.487,0.6426,0.7988,0.7988,0.7988,0.7988,0.7988,0.7988,0.7988,0.7988,0.7988,0.7988,0.7988,0.7988,0.7988,0.7988,0.7924,0.7855,0.7658,0.7533,0.7411,0.7152,0.7095,0.7095,0.7095,0.7095,0.7095,0.7095,0.7095,0.7095,0.7095,0.7095,0.7095,0.7095,0.7095,0.7095,0.7095,0.8105,0.9279,1.0438,1.1552,1.2529,1.3121,1.3213,1.2979,1.2365,1.1391,1.0378,0.9372,0.8389,0.7365,0.6377,0.63,0.63,0.63,0.63,0.63,0.63,0.6162,0.6162,0.63,0.63,0.6248,0.6112,0.602,0.5892,0.3516,0.3863,0.4294,0.5152,0.5623,0.6112,0.7014,0.7373,0.7614,0.7917,0.7988,0.7988,0.7988,0.7988,0.7988,0.7988,0.7988,0.7988,0.7988,0.7988,0.7988,0.7988,0.7988,0.7988,0.7988,0.7988,0.7988,0.7988,0.7988,0.7988,0.7988,0.7988,0.7988,0.7988,0.7988,0.7587,0.6681,0.6232,0.5322,0.4016,0.3566,0.2614,0.136,0.2264,0.2414,0.2063,0.2966,0.4618,0.6678,0.6678,0.6678,0.6678,0.6678,0.6678,0.6728,0.7182,0.7335,0.7385,0.7839,0.7958,0.7914,0.7914,0.7862,0.7712,0.7567,0.7451,0.7339,0.7139,0.7095,0.7095,0.7095,0.7095,0.7095,0.7095,0.7095,0.7095,0.7095,0.7095,0.7095,0.7095,0.7095,0.7095,0.7095,0.7753,0.869,0.9785,1.0884,1.1808,1.2449,1.2537,1.235,1.1856,1.0901,0.989,0.8879,0.8199,0.7365,0.6377,0.63,0.63,0.63,0.63,0.63,0.63,0.6108,0.6078,0.6183,0.617,0.6054,0.5915,0.5905,0.5749,0.0,0.0,0.0,0.4587,0.4772,0.5131,0.6941,0.7082,0.7055,0.7806,0.7961,0.7965,0.7985,0.7988,0.7988,0.7988,0.7988,0.7988,0.7988,0.7988,0.7988,0.7988,0.7988,0.7988,0.7988,0.7988,0.7988,0.7988,0.7988,0.7988,0.7988,0.7988,0.7988,0.7988,0.7988,0.7988,0.7939,0.6631,0.5272,0.3915,0.2564,0.126,0.0,0.0,0.0706,0.1963,0.1963,0.2665,0.3865,0.3966,0.4016,0.4016,0.4016,0.4016,0.4166,0.5475,0.5929,0.6129,0.7434,0.7841,0.7762,0.7762,0.7665,0.7563,0.7417,0.7412,0.7333,0.7139,0.7095,0.7095,0.7095,0.7095,0.7095,0.7095,0.7095,0.7095,0.7095,0.7092,0.7092,0.7095,0.7095,0.7095,0.7095,0.7092,0.7476,0.8551,0.9527,1.0403,1.1064,1.1155,1.105,1.0775,0.9857,0.8846,0.7897,0.7783,0.7326,0.6377,0.63,0.63,0.63,0.63,0.6296,0.6293,0.6101,0.5983,0.5979,0.5871,0.58,0.5793,0.565,0.5539,0.2919,0.0,0.0,0.0,0.0,0.0,0.5386,0.5698,0.6098,0.7125,0.7264,0.7355,0.7891,0.7988,0.7988,0.7988,0.7988,0.7988,0.7988,0.7988,0.7988,0.7988,0.7988,0.7988,0.7988,0.7988,0.7988,0.7988,0.7988,0.7988,0.7988,0.7988,0.7988,0.7988,0.7988,0.7537,0.6581,0.5222,0.3867,0.2514,0.1209,0.0353,0.0,0.0,0.0202,0.0555,0.0555,0.0756,0.126,0.3215,0.4016,0.4016,0.4016,0.4016,0.4066,0.4418,0.4568,0.4618,0.4968,0.5652,0.6343,0.6343,0.6875,0.7424,0.7429,0.7292,0.7149,0.7109,0.7095,0.7095,0.7095,0.7095,0.7095,0.7095,0.7095,0.7095,0.7095,0.7014,0.6974,0.7078,0.7095,0.7095,0.7095,0.7011,0.7354,0.853,0.8818,0.9203,1.0014,1.0094,1.0004,0.9733,0.8803,0.8084,0.7821,0.7138,0.6606,0.63,0.63,0.63,0.63,0.63,0.6245,0.6095,0.5942,0.5813,0.5711,0.5772,0.5749,0.5644,0.5528,0.5436,0.317,0.3331,0.3587,0.3648,0.0,0.0,0.5287,0.5511,0.585,0.7186,0.7402,0.7479,0.7911,0.7988,0.7988,0.7988,0.7988,0.7988,0.7988,0.7988,0.7988,0.7988,0.7988,0.7988,0.7988,0.7988,0.7988,0.7988,0.7988,0.7988,0.7988,0.7988,0.7988,0.7988,0.7988,0.7637,0.6833,0.497,0.3615,0.2815,0.0907,0.0,0.0,0.0,0.0,0.0,0.0,0.0,0.0101,0.1711,0.2314,0.2314,0.2314,0.2314,0.2413,0.2964,0.3165,0.3261,0.3785,0.4413,0.4962,0.497,0.5364,0.5814,0.5814,0.5721,0.562,0.562,0.562,0.562,0.562,0.6021,0.6381,0.6381,0.6738,0.7082,0.7021,0.6943,0.691,0.6994,0.6957,0.6913,0.6913,0.6888,0.7017,0.7688,0.8037,0.8378,0.8858,0.8908,0.8865,0.8703,0.7783,0.7176,0.7176,0.6644,0.63,0.63,0.63,0.63,0.63,0.6238,0.6122,0.5993,0.582,0.564,0.5528,0.5579,0.5576,0.5528,0.5436,0.5395,0.3533,0.0,0.0,0.4089,0.3795,0.0,0.5747,0.5742,0.5823,0.7307,0.7621,0.7644,0.7725,0.7756,0.7762,0.7746,0.7826,0.7914,0.7982,0.7988,0.7988,0.7988,0.7988,0.7988,0.7988,0.7988,0.7988,0.7988,0.7988,0.7988,0.7988,0.7988,0.7988,0.7988,0.7988,0.7839,0.7534,0.5168,0.3865,0.3516,0.1159,0.0,0.0,0.0,0.0,0.0,0.0,0.0,0.0,0.0,0.0,0.0,0.0,0.0,0.0151,0.136,0.1762,0.1958,0.3151,0.3572,0.3595,0.357,0.3587,0.3614,0.3614,0.3614,0.3614,0.3614,0.3614,0.3614,0.3614,0.4374,0.5179,0.5179,0.606,0.6859,0.6738,0.6685,0.6662,0.6662,0.6696,0.6702,0.6702,0.6685,0.6627,0.6532,0.7243,0.7764,0.765,0.7629,0.7629,0.7629,0.6834,0.63,0.63,0.63,0.63,0.63,0.63,0.63,0.63,0.6112,0.5983,0.5969,0.5715,0.5532,0.5395,0.5395,0.5395,0.5395,0.5395,0.5395,0.3877,0.3836,0.3931,0.3754,0.3799,0.0,0.3923,0.4053,0.4372,0.5176,0.5345,0.5528,0.6129,0.63,0.634,0.6257,0.6802,0.7439,0.7921,0.7988,0.7988,0.7988,0.7988,0.7988,0.7988,0.7988,0.7988,0.7988,0.7988,0.7988,0.7988,0.7988,0.7988,0.7988,0.7988,0.698,0.4818,0.4266,0.2914,0.0756,0.0252,0.0,0.0,0.0,0.0,0.0,0.0,0.0,0.0,0.0,0.0,0.0,0.0,0.0,0.0051,0.0303,0.0404,0.0403,0.0691,0.1403,0.2181,0.2183,0.2818,0.3614,0.3614,0.3614,0.3614,0.3614,0.3614,0.3614,0.3614,0.3792,0.3972,0.3972,0.4754,0.5472,0.5451,0.5385,0.5292,0.5292,0.6055,0.6702,0.6702,0.66,0.6549,0.6518,0.657,0.6638,0.6609,0.6606,0.6606,0.6606,0.6416,0.63,0.63,0.63,0.63,0.63,0.63,0.63,0.63,0.6112,0.5936,0.5847,0.559,0.5426,0.5395,0.5395,0.5395,0.5395,0.5395,0.5395,0.4202,0.4128,0.4206,0.4081,0.3961,0.0,0.0,0.4178,0.4389,0.5189,0.5243,0.5274,0.5722,0.5806,0.5806,0.5803,0.643,0.6906,0.698,0.757,0.7988,0.7988,0.7988,0.7988,0.7988,0.7988,0.7988,0.7988,0.7988,0.7988,0.7988,0.7988,0.7988,0.7988,0.7988,0.703,0.5022,0.4318,0.3015,0.1008,0.0303,0.0,0.0,0.0,0.0,0.0,0.0,0.0,0.0,0.0,0.0,0.0,0.0,0.0,0.0,0.0,0.0,0.0,0.0,0.0384,0.0901,0.092,0.131,0.179,0.179,0.179,0.179,0.179,0.179,0.179,0.179,0.2236,0.2681,0.2681,0.3559,0.4312,0.4265,0.4188,0.4114,0.4027,0.4494,0.5055,0.5623,0.6093,0.6405,0.6405,0.6344,0.63,0.63,0.63,0.63,0.63,0.63,0.63,0.63,0.63,0.63,0.63,0.63,0.63,0.63,0.604,0.581,0.562,0.547,0.5395,0.5395,0.5395,0.5395,0.5395,0.5395,0.5395,0.4567,0.4504,0.4631,0.4484,0.4233,0.4178,0.0,0.0,0.0,0.5322,0.5348,0.5237,0.5352,0.5281,0.523,0.5315,0.5881,0.6176,0.5783,0.6748,0.754,0.7597,0.7783,0.7884,0.7823,0.7766,0.7803,0.7978,0.783,0.7806,0.7982,0.7988,0.7988,0.7988,0.7988,0.7232,0.5627,0.4518,0.3215,0.1611,0.0504,0.0,0.0,0.0,0.0,0.0,0.0,0.0,0.0,0.0,0.0,0.0,0.0,0.0,0.0,0.0,0.0,0.0,0.0,0.0,0.0,0.0,0.0,0.0,0.0,0.0,0.0,0.0,0.0,0.0,0.0,0.0718,0.1433,0.1433,0.237,0.317,0.307,0.3035,0.2999,0.2824,0.2813,0.3203,0.4491,0.5434,0.606,0.6261,0.63,0.63,0.63,0.63,0.63,0.63,0.63,0.63,0.63,0.63,0.63,0.63,0.63,0.6286,0.6255,0.5922,0.5633,0.5399,0.5395,0.5395,0.5395,0.5395,0.5395,0.5395,0.5395,0.5395,0.5118,0.5047,0.5132,0.4409,0.4597,0.4699,0.3795,0.0,0.3967,0.3664,0.0,0.3836,0.3853,0.0,0.0,0.3694,0.4382,0.4853,0.4696,0.5348,0.5966,0.6188,0.7082,0.7543,0.7223,0.7007,0.7183,0.7931,0.7302,0.72,0.7948,0.7988,0.7988,0.7988,0.7988,0.6778,0.4268,0.4066,0.2715,0.0202,0.005,0.0,0.0,0.0,0.0,0.0,0.0,0.0,0.0,0.0,0.0,0.0,0.0,0.0,0.0,0.0,0.0,0.0,0.0,0.0,0.0,0.0,0.0,0.0,0.0,0.0,0.0,0.0,0.0,0.0,0.0,0.009,0.0225,0.0225,0.1042,0.1808,0.1803,0.1784,0.1807,0.1763,0.1762,0.2387,0.4375,0.4805,0.5198,0.6141,0.63,0.63,0.63,0.63,0.63,0.63,0.63,0.63,0.63,0.63,0.63,0.63,0.63,0.6238,0.6023,0.5772,0.5569,0.5399,0.5395,0.5395,0.5395,0.5395,0.5395,0.5395,0.5395,0.5395,0.5131,0.5199,0.5368,0.467,0.4729,0.4756,0.3934,0.3751,0.3734,0.3603,0.0,0.0,0.0,0.0,0.0,0.0,0.3887,0.4155,0.3741,0.4484,0.5274,0.583,0.6213,0.6552,0.6854,0.6695,0.6905,0.7723,0.7112,0.7054,0.7865,0.7941,0.7988,0.7988,0.7235,0.5924,0.4016,0.3215,0.1862,0.0,0.0,0.0,0.0,0.0,0.0,0.0,0.0,0.0,0.0,0.0,0.0,0.0,0.0,0.0,0.0,0.0,0.0,0.0,0.0,0.0,0.0,0.0,0.0,0.0,0.0,0.0,0.0,0.0,0.0,0.0,0.0,0.0,0.0,0.0,0.0348,0.0673,0.0673,0.0689,0.0667,0.0667,0.0667,0.1137,0.266,0.3908,0.4844,0.5315,0.5906,0.63,0.63,0.63,0.63,0.63,0.63,0.63,0.63,0.63,0.63,0.63,0.63,0.619,0.5908,0.5779,0.5603,0.5399,0.5395,0.5395,0.5395,0.5395,0.5395,0.5395,0.5395,0.5395,0.5471,0.5525,0.5589,0.4849,0.4745,0.4687,0.4046,0.3829,0.3768,0.3788,0.3717,0.0,0.0,0.0,0.0,0.0,0.0,0.3656,0.3114,0.3721,0.4433,0.5053,0.5257,0.5603,0.6268,0.601,0.6213,0.7217,0.6658,0.6722,0.7756,0.7916,0.7944,0.7988,0.6681,0.5372,0.4016,0.2665,0.131,0.0,0.0,0.0,0.0,0.0,0.0,0.0,0.0,0.0,0.0,0.0,0.0,0.0,0.0,0.0,0.0,0.0,0.0,0.0,0.0,0.0,0.0,0.0,0.0,0.0,0.0,0.0,0.0,0.0,0.0,0.0,0.0,0.0,0.0,0.0,0.0,0.0,0.0,0.0,0.0,0.0,0.0,0.0235,0.102,0.2659,0.4062,0.4608,0.5354,0.5983,0.6261,0.63,0.63,0.63,0.63,0.63,0.63,0.63,0.63,0.63,0.6221,0.6071,0.581,0.5725,0.5614,0.5399,0.5395,0.5395,0.5395,0.5395,0.5395,0.5395,0.5395,0.5395,0.6501,0.6269,0.5992,0.4795,0.4614,0.4504,0.3788,0.39,0.4119,0.3849,0.4156,0.4368,0.4056,0.0,0.0,0.0,0.0,0.0,0.0,0.2944,0.3064,0.335,0.4166,0.0,0.5392,0.4613,0.4769,0.6426,0.5684,0.5912,0.7716,0.7818,0.7885,0.7985,0.6681,0.5372,0.4016,0.2665,0.131,0.0,0.0,0.0,0.0,0.0,0.0,0.0,0.0,0.0,0.0,0.0,0.0,0.0,0.0,0.0,0.0,0.0,0.0,0.0,0.0,0.0,0.0,0.0,0.0,0.0,0.0,0.0,0.0,0.0,0.0,0.0,0.0,0.0,0.0,0.0,0.0,0.0,0.0,0.0,0.0,0.0,0.0,0.0,0.0039,0.098,0.2387,0.4414,0.4727,0.5118,0.618,0.63,0.63,0.63,0.63,0.63,0.63,0.63,0.63,0.63,0.5983,0.5813,0.58,0.5562,0.5402,0.5395,0.5395,0.5395,0.5395,0.5395,0.5395,0.5395,0.5395,0.5395,0.681,0.6922,0.6834,0.5569,0.5318,0.5152,0.4107,0.4041,0.4136,0.3856,0.4177,0.4399,0.4073,0.0,0.0,0.0,0.0,0.0,0.0,0.0,0.2558,0.0,0.0,0.0,0.0,0.0,0.5079,0.5962,0.5935,0.6359,0.7461,0.7706,0.7834,0.7885,0.6638,0.5372,0.4016,0.2665,0.131,0.0,0.0,0.0,0.0,0.0,0.0,0.0,0.0,0.0,0.0,0.0,0.0,0.0,0.0,0.0,0.0,0.0,0.0,0.0,0.0,0.0,0.0,0.0,0.0,0.0,0.0,0.0,0.0,0.0,0.0,0.0,0.0,0.0,0.0,0.0,0.0,0.0,0.0,0.0,0.0,0.0,0.0,0.0,0.0,0.0314,0.1019,0.2426,0.3203,0.4021,0.5118,0.5237,0.5512,0.6219,0.63,0.63,0.63,0.63,0.63,0.63,0.6067,0.5908,0.5803,0.5613,0.5498,0.5395,0.5395,0.5395,0.5395,0.5395,0.5395,0.5395,0.5395,0.5395,0.728,0.7417,0.7316,0.6125,0.5898,0.5681,0.456,0.4513,0.4611,0.4331,0.4457,0.4663,0.4792,0.4345,0.0,0.0,0.0,0.0,0.0,0.2455,0.0,0.0,0.0,0.0,0.0,0.0,0.0,0.0,0.0,0.0,0.0,0.7604,0.7756,0.7811,0.6166,0.487,0.4016,0.2213,0.0857,0.0,0.0,0.0,0.0,0.0,0.0,0.0,0.0,0.0,0.0,0.0,0.0,0.0,0.0,0.0,0.0,0.0,0.0,0.0,0.0,0.0,-0.0093,-0.0498,-0.0628,-0.0718,-0.1165,-0.1299,-0.1299,-0.1299,-0.0986,-0.0628,-0.0628,-0.0314,0.0,0.0,0.0,0.0,0.0,0.0,0.0,0.0,0.0,0.0,0.0,0.0,0.0353,0.145,0.2152,0.293,0.3984,0.4139,0.453,0.5628,0.5747,0.5867,0.6261,0.63,0.63,0.63,0.6064,0.5905,0.5803,0.5613,0.5521,0.5477,0.5423,0.5423,0.5477,0.5423,0.5395,0.5395,0.5395,0.5395]}]]